<?xml version="1.0" encoding="utf-8"?>
<gpx xmlns:xsi="http://www.w3.org/2001/XMLSchema-instance" xmlns:xsd="http://www.w3.org/2001/XMLSchema" version="1.1" creator="Shapelink.com" xmlns="http://www.topografix.com/GPX/1/1" xmlns:gpxtpx="http://www.garmin.com/xmlschemas/TrackPointExtension/v1">
  <metadata>
    <name>Sykling 93.70 km, 2012-05-13</name>
    <desc></desc>
    <author><name>Mikael Blom</name></author> 
    <time>2012-05-13T07:54:03Z</time>
  </metadata>
  <trk>
    <name>Sykling 93.70 km, 2012-05-13</name>
    <trkseg>
      <trkpt lat="59.9807864" lon="17.7388833">
        <ele>26.5736</ele>
        <time>2012-05-13T07:54:03Z</time>
      </trkpt>
      <trkpt lat="59.9810564" lon="17.7384447">
        <ele>67.9103</ele>
        <time>2012-05-13T07:54:09Z</time>
      </trkpt>
      <trkpt lat="59.9811919" lon="17.7384232">
        <ele>66.4683</ele>
        <time>2012-05-13T07:54:13Z</time>
      </trkpt>
      <trkpt lat="59.9812246" lon="17.7384007">
        <ele>65.5071</ele>
        <time>2012-05-13T07:54:14Z</time>
      </trkpt>
      <trkpt lat="59.9813187" lon="17.7383178">
        <ele>67.4297</ele>
        <time>2012-05-13T07:54:17Z</time>
      </trkpt>
      <trkpt lat="59.9815153" lon="17.7381966">
        <ele>76.0814</ele>
        <time>2012-05-13T07:54:25Z</time>
      </trkpt>
      <trkpt lat="59.9816958" lon="17.738154">
        <ele>72.7169</ele>
        <time>2012-05-13T07:54:31Z</time>
      </trkpt>
      <trkpt lat="59.9818685" lon="17.7380195">
        <ele>71.7555</ele>
        <time>2012-05-13T07:54:36Z</time>
      </trkpt>
      <trkpt lat="59.982002" lon="17.7379822">
        <ele>69.3523</ele>
        <time>2012-05-13T07:54:40Z</time>
      </trkpt>
      <trkpt lat="59.9821114" lon="17.7379261">
        <ele>71.2749</ele>
        <time>2012-05-13T07:54:42Z</time>
      </trkpt>
      <trkpt lat="59.9822242" lon="17.7378598">
        <ele>74.1588</ele>
        <time>2012-05-13T07:54:44Z</time>
      </trkpt>
      <trkpt lat="59.9824736" lon="17.7377226">
        <ele>78.9655</ele>
        <time>2012-05-13T07:54:49Z</time>
      </trkpt>
      <trkpt lat="59.9826263" lon="17.7377362">
        <ele>81.3688</ele>
        <time>2012-05-13T07:54:52Z</time>
      </trkpt>
      <trkpt lat="59.9827844" lon="17.7377576">
        <ele>83.2914</ele>
        <time>2012-05-13T07:54:55Z</time>
      </trkpt>
      <trkpt lat="59.983034" lon="17.7378101">
        <ele>85.6946</ele>
        <time>2012-05-13T07:55:00Z</time>
      </trkpt>
      <trkpt lat="59.9833569" lon="17.738051">
        <ele>65.9877</ele>
        <time>2012-05-13T07:55:05Z</time>
      </trkpt>
      <trkpt lat="59.9835286" lon="17.7380865">
        <ele>60.2197</ele>
        <time>2012-05-13T07:55:08Z</time>
      </trkpt>
      <trkpt lat="59.9839516" lon="17.7379746">
        <ele>64.5457</ele>
        <time>2012-05-13T07:55:15Z</time>
      </trkpt>
      <trkpt lat="59.9842427" lon="17.7379203">
        <ele>72.2362</ele>
        <time>2012-05-13T07:55:20Z</time>
      </trkpt>
      <trkpt lat="59.9844038" lon="17.7379327">
        <ele>78.9655</ele>
        <time>2012-05-13T07:55:23Z</time>
      </trkpt>
      <trkpt lat="59.9844431" lon="17.7379247">
        <ele>76.0814</ele>
        <time>2012-05-13T07:55:25Z</time>
      </trkpt>
      <trkpt lat="59.9845108" lon="17.7379299">
        <ele>76.0814</ele>
        <time>2012-05-13T07:55:27Z</time>
      </trkpt>
      <trkpt lat="59.9846947" lon="17.7380021">
        <ele>59.7391</ele>
        <time>2012-05-13T07:55:33Z</time>
      </trkpt>
      <trkpt lat="59.9849056" lon="17.7380671">
        <ele>54.9324</ele>
        <time>2012-05-13T07:55:39Z</time>
      </trkpt>
      <trkpt lat="59.9850802" lon="17.7380884">
        <ele>56.8551</ele>
        <time>2012-05-13T07:55:43Z</time>
      </trkpt>
      <trkpt lat="59.9852635" lon="17.738166">
        <ele>50.6066</ele>
        <time>2012-05-13T07:55:48Z</time>
      </trkpt>
      <trkpt lat="59.9853993" lon="17.7382842">
        <ele>44.8386</ele>
        <time>2012-05-13T07:55:52Z</time>
      </trkpt>
      <trkpt lat="59.9855553" lon="17.7383954">
        <ele>41.474</ele>
        <time>2012-05-13T07:55:56Z</time>
      </trkpt>
      <trkpt lat="59.985713" lon="17.7384264">
        <ele>43.8773</ele>
        <time>2012-05-13T07:55:59Z</time>
      </trkpt>
      <trkpt lat="59.9859437" lon="17.738526">
        <ele>44.8386</ele>
        <time>2012-05-13T07:56:04Z</time>
      </trkpt>
      <trkpt lat="59.9860274" lon="17.7385524">
        <ele>45.3192</ele>
        <time>2012-05-13T07:56:06Z</time>
      </trkpt>
      <trkpt lat="59.9862577" lon="17.7387084">
        <ele>46.7612</ele>
        <time>2012-05-13T07:56:12Z</time>
      </trkpt>
      <trkpt lat="59.9864387" lon="17.738843">
        <ele>50.6066</ele>
        <time>2012-05-13T07:56:16Z</time>
      </trkpt>
      <trkpt lat="59.9866865" lon="17.739021">
        <ele>54.4518</ele>
        <time>2012-05-13T07:56:22Z</time>
      </trkpt>
      <trkpt lat="59.9868428" lon="17.7391305">
        <ele>59.2584</ele>
        <time>2012-05-13T07:56:26Z</time>
      </trkpt>
      <trkpt lat="59.9869554" lon="17.7392502">
        <ele>61.6617</ele>
        <time>2012-05-13T07:56:29Z</time>
      </trkpt>
      <trkpt lat="59.9870446" lon="17.7393211">
        <ele>64.5457</ele>
        <time>2012-05-13T07:56:31Z</time>
      </trkpt>
      <trkpt lat="59.9873991" lon="17.7393511">
        <ele>76.5621</ele>
        <time>2012-05-13T07:56:37Z</time>
      </trkpt>
      <trkpt lat="59.9876268" lon="17.7393149">
        <ele>80.8882</ele>
        <time>2012-05-13T07:56:41Z</time>
      </trkpt>
      <trkpt lat="59.987857" lon="17.7393039">
        <ele>78.004</ele>
        <time>2012-05-13T07:56:46Z</time>
      </trkpt>
      <trkpt lat="59.9879499" lon="17.7392885">
        <ele>77.5234</ele>
        <time>2012-05-13T07:56:48Z</time>
      </trkpt>
      <trkpt lat="59.9881568" lon="17.7392976">
        <ele>80.4075</ele>
        <time>2012-05-13T07:56:52Z</time>
      </trkpt>
      <trkpt lat="59.9884037" lon="17.7392148">
        <ele>79.9266</ele>
        <time>2012-05-13T07:56:58Z</time>
      </trkpt>
      <trkpt lat="59.9885875" lon="17.7391492">
        <ele>76.5621</ele>
        <time>2012-05-13T07:57:03Z</time>
      </trkpt>
      <trkpt lat="59.9886327" lon="17.7391246">
        <ele>76.0814</ele>
        <time>2012-05-13T07:57:04Z</time>
      </trkpt>
      <trkpt lat="59.9887169" lon="17.7390562">
        <ele>76.5621</ele>
        <time>2012-05-13T07:57:06Z</time>
      </trkpt>
      <trkpt lat="59.9890032" lon="17.7388631">
        <ele>77.0428</ele>
        <time>2012-05-13T07:57:13Z</time>
      </trkpt>
      <trkpt lat="59.989176" lon="17.7387684">
        <ele>79.446</ele>
        <time>2012-05-13T07:57:17Z</time>
      </trkpt>
      <trkpt lat="59.9893002" lon="17.7387084">
        <ele>76.0814</ele>
        <time>2012-05-13T07:57:21Z</time>
      </trkpt>
      <trkpt lat="59.9924318" lon="17.7373108">
        <ele>71.7555</ele>
        <time>2012-05-13T07:58:16Z</time>
      </trkpt>
      <trkpt lat="59.9925816" lon="17.7372228">
        <ele>72.2362</ele>
        <time>2012-05-13T07:58:19Z</time>
      </trkpt>
      <trkpt lat="59.9928102" lon="17.7369461">
        <ele>70.7942</ele>
        <time>2012-05-13T07:58:24Z</time>
      </trkpt>
      <trkpt lat="59.9930647" lon="17.7364612">
        <ele>63.1036</ele>
        <time>2012-05-13T07:58:30Z</time>
      </trkpt>
      <trkpt lat="59.9931596" lon="17.7362841">
        <ele>59.2584</ele>
        <time>2012-05-13T07:58:32Z</time>
      </trkpt>
      <trkpt lat="59.9933124" lon="17.7359945">
        <ele>55.4131</ele>
        <time>2012-05-13T07:58:35Z</time>
      </trkpt>
      <trkpt lat="59.9935368" lon="17.7356956">
        <ele>51.5679</ele>
        <time>2012-05-13T07:58:39Z</time>
      </trkpt>
      <trkpt lat="59.9938864" lon="17.7355568">
        <ele>48.2034</ele>
        <time>2012-05-13T07:58:44Z</time>
      </trkpt>
      <trkpt lat="59.9939749" lon="17.735563">
        <ele>48.684</ele>
        <time>2012-05-13T07:58:45Z</time>
      </trkpt>
      <trkpt lat="59.9942178" lon="17.7355996">
        <ele>49.1646</ele>
        <time>2012-05-13T07:58:48Z</time>
      </trkpt>
      <trkpt lat="59.9945141" lon="17.7357257">
        <ele>47.2418</ele>
        <time>2012-05-13T07:58:52Z</time>
      </trkpt>
      <trkpt lat="59.9946424" lon="17.7358138">
        <ele>45.7999</ele>
        <time>2012-05-13T07:58:54Z</time>
      </trkpt>
      <trkpt lat="59.9948746" lon="17.7360076">
        <ele>41.9547</ele>
        <time>2012-05-13T07:58:58Z</time>
      </trkpt>
      <trkpt lat="59.9952565" lon="17.7360981">
        <ele>44.358</ele>
        <time>2012-05-13T07:59:04Z</time>
      </trkpt>
      <trkpt lat="59.9954399" lon="17.7361344">
        <ele>41.9547</ele>
        <time>2012-05-13T07:59:07Z</time>
      </trkpt>
      <trkpt lat="59.9956309" lon="17.7361453">
        <ele>42.4354</ele>
        <time>2012-05-13T07:59:11Z</time>
      </trkpt>
      <trkpt lat="59.9957744" lon="17.7361074">
        <ele>42.4354</ele>
        <time>2012-05-13T07:59:14Z</time>
      </trkpt>
      <trkpt lat="59.9960165" lon="17.7361105">
        <ele>39.0707</ele>
        <time>2012-05-13T07:59:18Z</time>
      </trkpt>
      <trkpt lat="59.9962099" lon="17.7361375">
        <ele>41.9547</ele>
        <time>2012-05-13T07:59:21Z</time>
      </trkpt>
      <trkpt lat="59.9965332" lon="17.7362758">
        <ele>43.3966</ele>
        <time>2012-05-13T07:59:27Z</time>
      </trkpt>
      <trkpt lat="59.9965834" lon="17.7362945">
        <ele>44.358</ele>
        <time>2012-05-13T07:59:28Z</time>
      </trkpt>
      <trkpt lat="59.9968986" lon="17.7364745">
        <ele>40.5128</ele>
        <time>2012-05-13T07:59:34Z</time>
      </trkpt>
      <trkpt lat="59.9971175" lon="17.7365504">
        <ele>35.7061</ele>
        <time>2012-05-13T07:59:38Z</time>
      </trkpt>
      <trkpt lat="59.9972465" lon="17.7365735">
        <ele>35.7061</ele>
        <time>2012-05-13T07:59:41Z</time>
      </trkpt>
      <trkpt lat="59.9977982" lon="17.7367082">
        <ele>28.0155</ele>
        <time>2012-05-13T07:59:54Z</time>
      </trkpt>
      <trkpt lat="59.9983179" lon="17.7366946">
        <ele>30.8995</ele>
        <time>2012-05-13T08:00:04Z</time>
      </trkpt>
      <trkpt lat="59.9986444" lon="17.7367312">
        <ele>34.2642</ele>
        <time>2012-05-13T08:00:09Z</time>
      </trkpt>
      <trkpt lat="59.9988007" lon="17.7367148">
        <ele>39.5513</ele>
        <time>2012-05-13T08:00:12Z</time>
      </trkpt>
      <trkpt lat="59.9990598" lon="17.736799">
        <ele>45.7999</ele>
        <time>2012-05-13T08:00:17Z</time>
      </trkpt>
      <trkpt lat="59.9992887" lon="17.7368379">
        <ele>48.2034</ele>
        <time>2012-05-13T08:00:21Z</time>
      </trkpt>
      <trkpt lat="59.999512" lon="17.7369254">
        <ele>51.5679</ele>
        <time>2012-05-13T08:00:26Z</time>
      </trkpt>
      <trkpt lat="59.9995635" lon="17.7369269">
        <ele>52.5292</ele>
        <time>2012-05-13T08:00:27Z</time>
      </trkpt>
      <trkpt lat="59.99989" lon="17.7369522">
        <ele>47.2418</ele>
        <time>2012-05-13T08:00:33Z</time>
      </trkpt>
      <trkpt lat="60.0001864" lon="17.7369263">
        <ele>49.6453</ele>
        <time>2012-05-13T08:00:38Z</time>
      </trkpt>
      <trkpt lat="60.000453" lon="17.7368107">
        <ele>50.126</ele>
        <time>2012-05-13T08:00:42Z</time>
      </trkpt>
      <trkpt lat="60.0007747" lon="17.7365502">
        <ele>46.2806</ele>
        <time>2012-05-13T08:00:47Z</time>
      </trkpt>
      <trkpt lat="60.0010878" lon="17.7363745">
        <ele>42.4354</ele>
        <time>2012-05-13T08:00:52Z</time>
      </trkpt>
      <trkpt lat="60.0013764" lon="17.7362082">
        <ele>48.2034</ele>
        <time>2012-05-13T08:00:57Z</time>
      </trkpt>
      <trkpt lat="60.0016905" lon="17.7358614">
        <ele>55.8938</ele>
        <time>2012-05-13T08:01:03Z</time>
      </trkpt>
      <trkpt lat="60.0018078" lon="17.7357236">
        <ele>57.3358</ele>
        <time>2012-05-13T08:01:05Z</time>
      </trkpt>
      <trkpt lat="60.0019156" lon="17.7355526">
        <ele>57.3358</ele>
        <time>2012-05-13T08:01:07Z</time>
      </trkpt>
      <trkpt lat="60.0021227" lon="17.7349127">
        <ele>48.684</ele>
        <time>2012-05-13T08:01:12Z</time>
      </trkpt>
      <trkpt lat="60.0022563" lon="17.7341597">
        <ele>42.4354</ele>
        <time>2012-05-13T08:01:17Z</time>
      </trkpt>
      <trkpt lat="60.0023101" lon="17.7337425">
        <ele>40.0321</ele>
        <time>2012-05-13T08:01:20Z</time>
      </trkpt>
      <trkpt lat="60.0023166" lon="17.7334465">
        <ele>41.474</ele>
        <time>2012-05-13T08:01:22Z</time>
      </trkpt>
      <trkpt lat="60.0022823" lon="17.7325506">
        <ele>41.9547</ele>
        <time>2012-05-13T08:01:27Z</time>
      </trkpt>
      <trkpt lat="60.0025005" lon="17.731685">
        <ele>29.4575</ele>
        <time>2012-05-13T08:01:32Z</time>
      </trkpt>
      <trkpt lat="60.0027716" lon="17.7309867">
        <ele>15.999</ele>
        <time>2012-05-13T08:01:37Z</time>
      </trkpt>
      <trkpt lat="60.002994" lon="17.7304925">
        <ele>10.2312</ele>
        <time>2012-05-13T08:01:41Z</time>
      </trkpt>
      <trkpt lat="60.0033253" lon="17.7299162">
        <ele>18.4023</ele>
        <time>2012-05-13T08:01:47Z</time>
      </trkpt>
      <trkpt lat="60.0036331" lon="17.7293433">
        <ele>19.3638</ele>
        <time>2012-05-13T08:01:53Z</time>
      </trkpt>
      <trkpt lat="60.0039376" lon="17.7288682">
        <ele>20.325</ele>
        <time>2012-05-13T08:01:59Z</time>
      </trkpt>
      <trkpt lat="60.004025" lon="17.7287911">
        <ele>20.8057</ele>
        <time>2012-05-13T08:02:01Z</time>
      </trkpt>
      <trkpt lat="60.0040871" lon="17.7285292">
        <ele>22.2476</ele>
        <time>2012-05-13T08:02:06Z</time>
      </trkpt>
      <trkpt lat="60.0040599" lon="17.7283852">
        <ele>24.1703</ele>
        <time>2012-05-13T08:02:08Z</time>
      </trkpt>
      <trkpt lat="60.0040381" lon="17.728254">
        <ele>25.6123</ele>
        <time>2012-05-13T08:02:11Z</time>
      </trkpt>
      <trkpt lat="60.0041813" lon="17.7284223">
        <ele>26.5736</ele>
        <time>2012-05-13T08:02:15Z</time>
      </trkpt>
      <trkpt lat="60.0042839" lon="17.7284111">
        <ele>28.0155</ele>
        <time>2012-05-13T08:02:18Z</time>
      </trkpt>
      <trkpt lat="60.0045851" lon="17.7282295">
        <ele>34.2642</ele>
        <time>2012-05-13T08:02:24Z</time>
      </trkpt>
      <trkpt lat="60.0047511" lon="17.7281177">
        <ele>40.5128</ele>
        <time>2012-05-13T08:02:27Z</time>
      </trkpt>
      <trkpt lat="60.0050501" lon="17.7280248">
        <ele>37.6287</ele>
        <time>2012-05-13T08:02:32Z</time>
      </trkpt>
      <trkpt lat="60.0053716" lon="17.727952">
        <ele>37.6287</ele>
        <time>2012-05-13T08:02:37Z</time>
      </trkpt>
      <trkpt lat="60.0056612" lon="17.7280156">
        <ele>35.2255</ele>
        <time>2012-05-13T08:02:42Z</time>
      </trkpt>
      <trkpt lat="60.0057198" lon="17.7280379">
        <ele>33.3029</ele>
        <time>2012-05-13T08:02:43Z</time>
      </trkpt>
      <trkpt lat="60.0058363" lon="17.728042">
        <ele>32.8223</ele>
        <time>2012-05-13T08:02:45Z</time>
      </trkpt>
      <trkpt lat="60.0061166" lon="17.7277684">
        <ele>30.8995</ele>
        <time>2012-05-13T08:02:50Z</time>
      </trkpt>
      <trkpt lat="60.0062103" lon="17.7276234">
        <ele>29.4575</ele>
        <time>2012-05-13T08:02:52Z</time>
      </trkpt>
      <trkpt lat="60.0063148" lon="17.7274896">
        <ele>27.0543</ele>
        <time>2012-05-13T08:02:54Z</time>
      </trkpt>
      <trkpt lat="60.006732" lon="17.7271972">
        <ele>24.1703</ele>
        <time>2012-05-13T08:03:01Z</time>
      </trkpt>
      <trkpt lat="60.0070703" lon="17.7270599">
        <ele>25.1317</ele>
        <time>2012-05-13T08:03:06Z</time>
      </trkpt>
      <trkpt lat="60.0073762" lon="17.7268474">
        <ele>21.2864</ele>
        <time>2012-05-13T08:03:11Z</time>
      </trkpt>
      <trkpt lat="60.0075686" lon="17.7267372">
        <ele>20.325</ele>
        <time>2012-05-13T08:03:14Z</time>
      </trkpt>
      <trkpt lat="60.0079648" lon="17.7269158">
        <ele>19.3638</ele>
        <time>2012-05-13T08:03:19Z</time>
      </trkpt>
      <trkpt lat="60.0080374" lon="17.7269869">
        <ele>18.8831</ele>
        <time>2012-05-13T08:03:20Z</time>
      </trkpt>
      <trkpt lat="60.0083685" lon="17.7275359">
        <ele>20.8057</ele>
        <time>2012-05-13T08:03:26Z</time>
      </trkpt>
      <trkpt lat="60.0086263" lon="17.7279493">
        <ele>20.325</ele>
        <time>2012-05-13T08:03:32Z</time>
      </trkpt>
      <trkpt lat="60.0087805" lon="17.7281974">
        <ele>15.0377</ele>
        <time>2012-05-13T08:03:36Z</time>
      </trkpt>
      <trkpt lat="60.0090096" lon="17.7287375">
        <ele>16.4797</ele>
        <time>2012-05-13T08:03:43Z</time>
      </trkpt>
      <trkpt lat="60.0092065" lon="17.7293203">
        <ele>19.8444</ele>
        <time>2012-05-13T08:03:51Z</time>
      </trkpt>
      <trkpt lat="60.0092916" lon="17.7295943">
        <ele>20.8057</ele>
        <time>2012-05-13T08:03:55Z</time>
      </trkpt>
      <trkpt lat="60.0094697" lon="17.7298757">
        <ele>26.0929</ele>
        <time>2012-05-13T08:04:01Z</time>
      </trkpt>
      <trkpt lat="60.0095101" lon="17.730053">
        <ele>25.1317</ele>
        <time>2012-05-13T08:04:04Z</time>
      </trkpt>
      <trkpt lat="60.0096348" lon="17.7303736">
        <ele>29.4575</ele>
        <time>2012-05-13T08:04:10Z</time>
      </trkpt>
      <trkpt lat="60.0097453" lon="17.7306557">
        <ele>32.3416</ele>
        <time>2012-05-13T08:04:15Z</time>
      </trkpt>
      <trkpt lat="60.0099434" lon="17.7311271">
        <ele>31.8607</ele>
        <time>2012-05-13T08:04:23Z</time>
      </trkpt>
      <trkpt lat="60.0102218" lon="17.7315297">
        <ele>32.3416</ele>
        <time>2012-05-13T08:04:31Z</time>
      </trkpt>
      <trkpt lat="60.0105179" lon="17.7319639">
        <ele>30.4188</ele>
        <time>2012-05-13T08:04:39Z</time>
      </trkpt>
      <trkpt lat="60.010674" lon="17.7321652">
        <ele>29.4575</ele>
        <time>2012-05-13T08:04:43Z</time>
      </trkpt>
      <trkpt lat="60.0107741" lon="17.7324278">
        <ele>30.4188</ele>
        <time>2012-05-13T08:04:47Z</time>
      </trkpt>
      <trkpt lat="60.0109259" lon="17.7326145">
        <ele>30.4188</ele>
        <time>2012-05-13T08:04:51Z</time>
      </trkpt>
      <trkpt lat="60.0110028" lon="17.7326855">
        <ele>31.8607</ele>
        <time>2012-05-13T08:04:53Z</time>
      </trkpt>
      <trkpt lat="60.0114675" lon="17.7328626">
        <ele>30.8995</ele>
        <time>2012-05-13T08:05:02Z</time>
      </trkpt>
      <trkpt lat="60.0117011" lon="17.7328774">
        <ele>28.9769</ele>
        <time>2012-05-13T08:05:06Z</time>
      </trkpt>
      <trkpt lat="60.0120773" lon="17.7328189">
        <ele>25.6123</ele>
        <time>2012-05-13T08:05:12Z</time>
      </trkpt>
      <trkpt lat="60.0124793" lon="17.732672">
        <ele>27.0543</ele>
        <time>2012-05-13T08:05:18Z</time>
      </trkpt>
      <trkpt lat="60.0129253" lon="17.7325133">
        <ele>28.4962</ele>
        <time>2012-05-13T08:05:25Z</time>
      </trkpt>
      <trkpt lat="60.0132805" lon="17.7324441">
        <ele>28.9769</ele>
        <time>2012-05-13T08:05:30Z</time>
      </trkpt>
      <trkpt lat="60.0137443" lon="17.7324345">
        <ele>28.0155</ele>
        <time>2012-05-13T08:05:36Z</time>
      </trkpt>
      <trkpt lat="60.0141214" lon="17.7325979">
        <ele>22.2476</ele>
        <time>2012-05-13T08:05:41Z</time>
      </trkpt>
      <trkpt lat="60.0143721" lon="17.7327331">
        <ele>19.3638</ele>
        <time>2012-05-13T08:05:45Z</time>
      </trkpt>
      <trkpt lat="60.0147528" lon="17.7330578">
        <ele>21.767</ele>
        <time>2012-05-13T08:05:52Z</time>
      </trkpt>
      <trkpt lat="60.0151293" lon="17.7333527">
        <ele>21.767</ele>
        <time>2012-05-13T08:05:59Z</time>
      </trkpt>
      <trkpt lat="60.0156153" lon="17.7335774">
        <ele>15.999</ele>
        <time>2012-05-13T08:06:08Z</time>
      </trkpt>
      <trkpt lat="60.0159992" lon="17.7337453">
        <ele>10.7118</ele>
        <time>2012-05-13T08:06:16Z</time>
      </trkpt>
      <trkpt lat="60.0164872" lon="17.733843">
        <ele>9.75061</ele>
        <time>2012-05-13T08:06:25Z</time>
      </trkpt>
      <trkpt lat="60.0168452" lon="17.7339096">
        <ele>13.1151</ele>
        <time>2012-05-13T08:06:32Z</time>
      </trkpt>
      <trkpt lat="60.0172152" lon="17.7339996">
        <ele>14.557</ele>
        <time>2012-05-13T08:06:39Z</time>
      </trkpt>
      <trkpt lat="60.0176113" lon="17.7341649">
        <ele>14.557</ele>
        <time>2012-05-13T08:06:47Z</time>
      </trkpt>
      <trkpt lat="60.0179703" lon="17.734426">
        <ele>14.557</ele>
        <time>2012-05-13T08:06:54Z</time>
      </trkpt>
      <trkpt lat="60.0181889" lon="17.7346325">
        <ele>18.8831</ele>
        <time>2012-05-13T08:07:00Z</time>
      </trkpt>
      <trkpt lat="60.0184184" lon="17.7348729">
        <ele>23.209</ele>
        <time>2012-05-13T08:07:05Z</time>
      </trkpt>
      <trkpt lat="60.0187699" lon="17.7352164">
        <ele>26.0929</ele>
        <time>2012-05-13T08:07:12Z</time>
      </trkpt>
      <trkpt lat="60.0188197" lon="17.7352827">
        <ele>25.6123</ele>
        <time>2012-05-13T08:07:13Z</time>
      </trkpt>
      <trkpt lat="60.0190907" lon="17.735692">
        <ele>28.0155</ele>
        <time>2012-05-13T08:07:19Z</time>
      </trkpt>
      <trkpt lat="60.0195606" lon="17.7363963">
        <ele>21.767</ele>
        <time>2012-05-13T08:07:29Z</time>
      </trkpt>
      <trkpt lat="60.0198734" lon="17.7368355">
        <ele>21.2864</ele>
        <time>2012-05-13T08:07:35Z</time>
      </trkpt>
      <trkpt lat="60.0200303" lon="17.7371907">
        <ele>24.1703</ele>
        <time>2012-05-13T08:07:39Z</time>
      </trkpt>
      <trkpt lat="60.0203254" lon="17.738177">
        <ele>28.4962</ele>
        <time>2012-05-13T08:07:49Z</time>
      </trkpt>
      <trkpt lat="60.0206324" lon="17.7388643">
        <ele>32.3416</ele>
        <time>2012-05-13T08:07:57Z</time>
      </trkpt>
      <trkpt lat="60.0210245" lon="17.7394587">
        <ele>31.8607</ele>
        <time>2012-05-13T08:08:06Z</time>
      </trkpt>
      <trkpt lat="60.0213813" lon="17.7399029">
        <ele>29.9381</ele>
        <time>2012-05-13T08:08:14Z</time>
      </trkpt>
      <trkpt lat="60.0217434" lon="17.7402923">
        <ele>29.4575</ele>
        <time>2012-05-13T08:08:22Z</time>
      </trkpt>
      <trkpt lat="60.0221219" lon="17.7406752">
        <ele>27.0543</ele>
        <time>2012-05-13T08:08:31Z</time>
      </trkpt>
      <trkpt lat="60.0222904" lon="17.7408683">
        <ele>27.0543</ele>
        <time>2012-05-13T08:08:35Z</time>
      </trkpt>
      <trkpt lat="60.0224489" lon="17.7411104">
        <ele>28.4962</ele>
        <time>2012-05-13T08:08:39Z</time>
      </trkpt>
      <trkpt lat="60.0226322" lon="17.7411566">
        <ele>28.9769</ele>
        <time>2012-05-13T08:08:43Z</time>
      </trkpt>
      <trkpt lat="60.0227077" lon="17.7408279">
        <ele>27.0543</ele>
        <time>2012-05-13T08:08:46Z</time>
      </trkpt>
      <trkpt lat="60.0227189" lon="17.7407017">
        <ele>26.5736</ele>
        <time>2012-05-13T08:08:47Z</time>
      </trkpt>
      <trkpt lat="60.0227924" lon="17.7397049">
        <ele>22.2476</ele>
        <time>2012-05-13T08:08:54Z</time>
      </trkpt>
      <trkpt lat="60.022913" lon="17.7381697">
        <ele>17.9218</ele>
        <time>2012-05-13T08:09:04Z</time>
      </trkpt>
      <trkpt lat="60.0230369" lon="17.7365973">
        <ele>15.5184</ele>
        <time>2012-05-13T08:09:14Z</time>
      </trkpt>
      <trkpt lat="60.0231239" lon="17.7355243">
        <ele>14.557</ele>
        <time>2012-05-13T08:09:21Z</time>
      </trkpt>
      <trkpt lat="60.0232644" lon="17.7342773">
        <ele>14.557</ele>
        <time>2012-05-13T08:09:30Z</time>
      </trkpt>
      <trkpt lat="60.0233996" lon="17.7331506">
        <ele>15.999</ele>
        <time>2012-05-13T08:09:39Z</time>
      </trkpt>
      <trkpt lat="60.0233651" lon="17.732404">
        <ele>15.0377</ele>
        <time>2012-05-13T08:09:45Z</time>
      </trkpt>
      <trkpt lat="60.0233237" lon="17.7321562">
        <ele>15.0377</ele>
        <time>2012-05-13T08:09:47Z</time>
      </trkpt>
      <trkpt lat="60.0231093" lon="17.7314726">
        <ele>15.0377</ele>
        <time>2012-05-13T08:09:53Z</time>
      </trkpt>
      <trkpt lat="60.0227324" lon="17.730672">
        <ele>11.6732</ele>
        <time>2012-05-13T08:10:00Z</time>
      </trkpt>
      <trkpt lat="60.0226287" lon="17.7303896">
        <ele>11.1925</ele>
        <time>2012-05-13T08:10:02Z</time>
      </trkpt>
      <trkpt lat="60.0224919" lon="17.7297255">
        <ele>9.75061</ele>
        <time>2012-05-13T08:10:06Z</time>
      </trkpt>
      <trkpt lat="60.0224003" lon="17.7289453">
        <ele>11.1925</ele>
        <time>2012-05-13T08:10:11Z</time>
      </trkpt>
      <trkpt lat="60.0224375" lon="17.7283402">
        <ele>12.6344</ele>
        <time>2012-05-13T08:10:16Z</time>
      </trkpt>
      <trkpt lat="60.0224672" lon="17.7278444">
        <ele>14.0764</ele>
        <time>2012-05-13T08:10:22Z</time>
      </trkpt>
      <trkpt lat="60.02247" lon="17.7271947">
        <ele>15.5184</ele>
        <time>2012-05-13T08:10:31Z</time>
      </trkpt>
      <trkpt lat="60.0224447" lon="17.7265103">
        <ele>14.0764</ele>
        <time>2012-05-13T08:10:38Z</time>
      </trkpt>
      <trkpt lat="60.0223847" lon="17.7255631">
        <ele>12.6344</ele>
        <time>2012-05-13T08:10:46Z</time>
      </trkpt>
      <trkpt lat="60.0222874" lon="17.7245728">
        <ele>14.0764</ele>
        <time>2012-05-13T08:10:54Z</time>
      </trkpt>
      <trkpt lat="60.0221785" lon="17.7234292">
        <ele>13.5958</ele>
        <time>2012-05-13T08:11:04Z</time>
      </trkpt>
      <trkpt lat="60.0220926" lon="17.7226359">
        <ele>15.0377</ele>
        <time>2012-05-13T08:11:12Z</time>
      </trkpt>
      <trkpt lat="60.0220469" lon="17.7222425">
        <ele>16.4797</ele>
        <time>2012-05-13T08:11:16Z</time>
      </trkpt>
      <trkpt lat="60.0218589" lon="17.7216827">
        <ele>19.3638</ele>
        <time>2012-05-13T08:11:22Z</time>
      </trkpt>
      <trkpt lat="60.0217012" lon="17.7215331">
        <ele>20.325</ele>
        <time>2012-05-13T08:11:25Z</time>
      </trkpt>
      <trkpt lat="60.0212908" lon="17.7213959">
        <ele>22.2476</ele>
        <time>2012-05-13T08:11:32Z</time>
      </trkpt>
      <trkpt lat="60.0208306" lon="17.7212876">
        <ele>24.1703</ele>
        <time>2012-05-13T08:11:40Z</time>
      </trkpt>
      <trkpt lat="60.0204352" lon="17.7212085">
        <ele>26.0929</ele>
        <time>2012-05-13T08:11:47Z</time>
      </trkpt>
      <trkpt lat="60.0199154" lon="17.7210608">
        <ele>29.9381</ele>
        <time>2012-05-13T08:11:55Z</time>
      </trkpt>
      <trkpt lat="60.019302" lon="17.720891">
        <ele>30.8995</ele>
        <time>2012-05-13T08:12:04Z</time>
      </trkpt>
      <trkpt lat="60.0185245" lon="17.7206665">
        <ele>30.8995</ele>
        <time>2012-05-13T08:12:15Z</time>
      </trkpt>
      <trkpt lat="60.0180349" lon="17.7205287">
        <ele>31.3801</ele>
        <time>2012-05-13T08:12:22Z</time>
      </trkpt>
      <trkpt lat="60.0174657" lon="17.7204115">
        <ele>34.7449</ele>
        <time>2012-05-13T08:12:31Z</time>
      </trkpt>
      <trkpt lat="60.0170979" lon="17.7204421">
        <ele>33.7834</ele>
        <time>2012-05-13T08:12:37Z</time>
      </trkpt>
      <trkpt lat="60.0169001" lon="17.7202506">
        <ele>32.8223</ele>
        <time>2012-05-13T08:12:41Z</time>
      </trkpt>
      <trkpt lat="60.0168933" lon="17.7199999">
        <ele>30.8995</ele>
        <time>2012-05-13T08:12:43Z</time>
      </trkpt>
      <trkpt lat="60.0169632" lon="17.7189314">
        <ele>24.1703</ele>
        <time>2012-05-13T08:12:50Z</time>
      </trkpt>
      <trkpt lat="60.0170399" lon="17.7176513">
        <ele>18.8831</ele>
        <time>2012-05-13T08:12:57Z</time>
      </trkpt>
      <trkpt lat="60.0172102" lon="17.7165458">
        <ele>15.0377</ele>
        <time>2012-05-13T08:13:03Z</time>
      </trkpt>
      <trkpt lat="60.0174373" lon="17.7156025">
        <ele>13.5958</ele>
        <time>2012-05-13T08:13:09Z</time>
      </trkpt>
      <trkpt lat="60.0176393" lon="17.7146177">
        <ele>15.5184</ele>
        <time>2012-05-13T08:13:16Z</time>
      </trkpt>
      <trkpt lat="60.0177415" lon="17.7137097">
        <ele>17.4412</ele>
        <time>2012-05-13T08:13:23Z</time>
      </trkpt>
      <trkpt lat="60.0178187" lon="17.7125643">
        <ele>18.4023</ele>
        <time>2012-05-13T08:13:32Z</time>
      </trkpt>
      <trkpt lat="60.0179016" lon="17.7113642">
        <ele>19.3638</ele>
        <time>2012-05-13T08:13:42Z</time>
      </trkpt>
      <trkpt lat="60.017999" lon="17.7100593">
        <ele>19.8444</ele>
        <time>2012-05-13T08:13:53Z</time>
      </trkpt>
      <trkpt lat="60.0180943" lon="17.7086192">
        <ele>19.8444</ele>
        <time>2012-05-13T08:14:05Z</time>
      </trkpt>
      <trkpt lat="60.0182121" lon="17.7070686">
        <ele>20.8057</ele>
        <time>2012-05-13T08:14:18Z</time>
      </trkpt>
      <trkpt lat="60.018344" lon="17.7061084">
        <ele>21.2864</ele>
        <time>2012-05-13T08:14:26Z</time>
      </trkpt>
      <trkpt lat="60.0185414" lon="17.705237">
        <ele>20.325</ele>
        <time>2012-05-13T08:14:33Z</time>
      </trkpt>
      <trkpt lat="60.0188217" lon="17.7043877">
        <ele>19.8444</ele>
        <time>2012-05-13T08:14:40Z</time>
      </trkpt>
      <trkpt lat="60.0192019" lon="17.7035928">
        <ele>19.8444</ele>
        <time>2012-05-13T08:14:48Z</time>
      </trkpt>
      <trkpt lat="60.0196376" lon="17.7028624">
        <ele>21.2864</ele>
        <time>2012-05-13T08:14:57Z</time>
      </trkpt>
      <trkpt lat="60.0200302" lon="17.7021213">
        <ele>23.209</ele>
        <time>2012-05-13T08:15:06Z</time>
      </trkpt>
      <trkpt lat="60.0203443" lon="17.7013276">
        <ele>24.1703</ele>
        <time>2012-05-13T08:15:15Z</time>
      </trkpt>
      <trkpt lat="60.020611" lon="17.7004062">
        <ele>25.1317</ele>
        <time>2012-05-13T08:15:25Z</time>
      </trkpt>
      <trkpt lat="60.020857" lon="17.6994936">
        <ele>26.0929</ele>
        <time>2012-05-13T08:15:35Z</time>
      </trkpt>
      <trkpt lat="60.0211244" lon="17.6984859">
        <ele>26.5736</ele>
        <time>2012-05-13T08:15:46Z</time>
      </trkpt>
      <trkpt lat="60.0213863" lon="17.6975187">
        <ele>25.6123</ele>
        <time>2012-05-13T08:15:55Z</time>
      </trkpt>
      <trkpt lat="60.0216067" lon="17.696692">
        <ele>24.651</ele>
        <time>2012-05-13T08:16:02Z</time>
      </trkpt>
      <trkpt lat="60.0219541" lon="17.6953512">
        <ele>25.1317</ele>
        <time>2012-05-13T08:16:13Z</time>
      </trkpt>
      <trkpt lat="60.0221511" lon="17.6944128">
        <ele>26.5736</ele>
        <time>2012-05-13T08:16:21Z</time>
      </trkpt>
      <trkpt lat="60.0223023" lon="17.6933669">
        <ele>27.5349</ele>
        <time>2012-05-13T08:16:30Z</time>
      </trkpt>
      <trkpt lat="60.0223982" lon="17.6922136">
        <ele>26.5736</ele>
        <time>2012-05-13T08:16:40Z</time>
      </trkpt>
      <trkpt lat="60.0224743" lon="17.6906934">
        <ele>24.1703</ele>
        <time>2012-05-13T08:16:53Z</time>
      </trkpt>
      <trkpt lat="60.0225335" lon="17.6894263">
        <ele>23.6896</ele>
        <time>2012-05-13T08:17:04Z</time>
      </trkpt>
      <trkpt lat="60.0226121" lon="17.6880984">
        <ele>26.0929</ele>
        <time>2012-05-13T08:17:15Z</time>
      </trkpt>
      <trkpt lat="60.0226893" lon="17.6866877">
        <ele>26.0929</ele>
        <time>2012-05-13T08:17:27Z</time>
      </trkpt>
      <trkpt lat="60.0227484" lon="17.6853868">
        <ele>26.0929</ele>
        <time>2012-05-13T08:17:38Z</time>
      </trkpt>
      <trkpt lat="60.0227711" lon="17.6840441">
        <ele>24.651</ele>
        <time>2012-05-13T08:17:49Z</time>
      </trkpt>
      <trkpt lat="60.0227372" lon="17.6825126">
        <ele>23.6896</ele>
        <time>2012-05-13T08:18:01Z</time>
      </trkpt>
      <trkpt lat="60.0226533" lon="17.6811984">
        <ele>24.1703</ele>
        <time>2012-05-13T08:18:11Z</time>
      </trkpt>
      <trkpt lat="60.0225302" lon="17.6800422">
        <ele>24.651</ele>
        <time>2012-05-13T08:18:20Z</time>
      </trkpt>
      <trkpt lat="60.0223178" lon="17.6786336">
        <ele>24.1703</ele>
        <time>2012-05-13T08:18:31Z</time>
      </trkpt>
      <trkpt lat="60.0220778" lon="17.6772023">
        <ele>23.6896</ele>
        <time>2012-05-13T08:18:42Z</time>
      </trkpt>
      <trkpt lat="60.0218998" lon="17.6759199">
        <ele>22.7283</ele>
        <time>2012-05-13T08:18:52Z</time>
      </trkpt>
      <trkpt lat="60.0218224" lon="17.6747559">
        <ele>21.2864</ele>
        <time>2012-05-13T08:19:01Z</time>
      </trkpt>
      <trkpt lat="60.0218252" lon="17.6735085">
        <ele>20.325</ele>
        <time>2012-05-13T08:19:11Z</time>
      </trkpt>
      <trkpt lat="60.0218129" lon="17.6722631">
        <ele>20.325</ele>
        <time>2012-05-13T08:19:21Z</time>
      </trkpt>
      <trkpt lat="60.021718" lon="17.6711237">
        <ele>20.325</ele>
        <time>2012-05-13T08:19:30Z</time>
      </trkpt>
      <trkpt lat="60.0215986" lon="17.6702377">
        <ele>21.767</ele>
        <time>2012-05-13T08:19:37Z</time>
      </trkpt>
      <trkpt lat="60.0213777" lon="17.6692047">
        <ele>19.8444</ele>
        <time>2012-05-13T08:19:46Z</time>
      </trkpt>
      <trkpt lat="60.0211247" lon="17.6683362">
        <ele>19.3638</ele>
        <time>2012-05-13T08:19:54Z</time>
      </trkpt>
      <trkpt lat="60.0207731" lon="17.667342">
        <ele>20.325</ele>
        <time>2012-05-13T08:20:04Z</time>
      </trkpt>
      <trkpt lat="60.0203796" lon="17.6662734">
        <ele>20.8057</ele>
        <time>2012-05-13T08:20:15Z</time>
      </trkpt>
      <trkpt lat="60.0200105" lon="17.6652626">
        <ele>20.8057</ele>
        <time>2012-05-13T08:20:26Z</time>
      </trkpt>
      <trkpt lat="60.019659" lon="17.6641271">
        <ele>20.8057</ele>
        <time>2012-05-13T08:20:38Z</time>
      </trkpt>
      <trkpt lat="60.0194294" lon="17.6630968">
        <ele>21.2864</ele>
        <time>2012-05-13T08:20:48Z</time>
      </trkpt>
      <trkpt lat="60.0192581" lon="17.6619641">
        <ele>21.767</ele>
        <time>2012-05-13T08:20:58Z</time>
      </trkpt>
      <trkpt lat="60.0191476" lon="17.6606461">
        <ele>21.767</ele>
        <time>2012-05-13T08:21:09Z</time>
      </trkpt>
      <trkpt lat="60.0190433" lon="17.6592307">
        <ele>22.2476</ele>
        <time>2012-05-13T08:21:21Z</time>
      </trkpt>
      <trkpt lat="60.018927" lon="17.6576598">
        <ele>22.7283</ele>
        <time>2012-05-13T08:21:34Z</time>
      </trkpt>
      <trkpt lat="60.0188503" lon="17.6566481">
        <ele>22.7283</ele>
        <time>2012-05-13T08:21:42Z</time>
      </trkpt>
      <trkpt lat="60.0187426" lon="17.6552234">
        <ele>22.7283</ele>
        <time>2012-05-13T08:21:53Z</time>
      </trkpt>
      <trkpt lat="60.0186426" lon="17.6539035">
        <ele>22.7283</ele>
        <time>2012-05-13T08:22:03Z</time>
      </trkpt>
      <trkpt lat="60.0185334" lon="17.6524714">
        <ele>23.209</ele>
        <time>2012-05-13T08:22:14Z</time>
      </trkpt>
      <trkpt lat="60.0184276" lon="17.6509505">
        <ele>23.6896</ele>
        <time>2012-05-13T08:22:26Z</time>
      </trkpt>
      <trkpt lat="60.0183793" lon="17.6494951">
        <ele>24.651</ele>
        <time>2012-05-13T08:22:38Z</time>
      </trkpt>
      <trkpt lat="60.0183748" lon="17.6484144">
        <ele>24.651</ele>
        <time>2012-05-13T08:22:47Z</time>
      </trkpt>
      <trkpt lat="60.0183712" lon="17.6471761">
        <ele>25.1317</ele>
        <time>2012-05-13T08:22:57Z</time>
      </trkpt>
      <trkpt lat="60.0183661" lon="17.6454876">
        <ele>24.651</ele>
        <time>2012-05-13T08:23:10Z</time>
      </trkpt>
      <trkpt lat="60.0183649" lon="17.6444913">
        <ele>25.1317</ele>
        <time>2012-05-13T08:23:18Z</time>
      </trkpt>
      <trkpt lat="60.0183834" lon="17.6432137">
        <ele>26.5736</ele>
        <time>2012-05-13T08:23:29Z</time>
      </trkpt>
      <trkpt lat="60.0183524" lon="17.6421264">
        <ele>26.0929</ele>
        <time>2012-05-13T08:23:38Z</time>
      </trkpt>
      <trkpt lat="60.0182435" lon="17.6409618">
        <ele>25.1317</ele>
        <time>2012-05-13T08:23:47Z</time>
      </trkpt>
      <trkpt lat="60.0181018" lon="17.6395193">
        <ele>24.1703</ele>
        <time>2012-05-13T08:23:58Z</time>
      </trkpt>
      <trkpt lat="60.017954" lon="17.6381978">
        <ele>24.651</ele>
        <time>2012-05-13T08:24:08Z</time>
      </trkpt>
      <trkpt lat="60.0177433" lon="17.6372177">
        <ele>25.1317</ele>
        <time>2012-05-13T08:24:16Z</time>
      </trkpt>
      <trkpt lat="60.0173311" lon="17.6358144">
        <ele>26.5736</ele>
        <time>2012-05-13T08:24:28Z</time>
      </trkpt>
      <trkpt lat="60.0169708" lon="17.6345665">
        <ele>26.5736</ele>
        <time>2012-05-13T08:24:39Z</time>
      </trkpt>
      <trkpt lat="60.0165976" lon="17.6334724">
        <ele>26.0929</ele>
        <time>2012-05-13T08:24:49Z</time>
      </trkpt>
      <trkpt lat="60.0161976" lon="17.6326851">
        <ele>27.0543</ele>
        <time>2012-05-13T08:24:58Z</time>
      </trkpt>
      <trkpt lat="60.0157726" lon="17.631856">
        <ele>28.0155</ele>
        <time>2012-05-13T08:25:08Z</time>
      </trkpt>
      <trkpt lat="60.0153487" lon="17.6308498">
        <ele>28.4962</ele>
        <time>2012-05-13T08:25:19Z</time>
      </trkpt>
      <trkpt lat="60.0149896" lon="17.6301209">
        <ele>28.4962</ele>
        <time>2012-05-13T08:25:27Z</time>
      </trkpt>
      <trkpt lat="60.0145406" lon="17.6294251">
        <ele>29.4575</ele>
        <time>2012-05-13T08:25:36Z</time>
      </trkpt>
      <trkpt lat="60.0140721" lon="17.6287849">
        <ele>29.4575</ele>
        <time>2012-05-13T08:25:45Z</time>
      </trkpt>
      <trkpt lat="60.0134459" lon="17.6278671">
        <ele>30.8995</ele>
        <time>2012-05-13T08:25:57Z</time>
      </trkpt>
      <trkpt lat="60.0128708" lon="17.6268784">
        <ele>32.3416</ele>
        <time>2012-05-13T08:26:09Z</time>
      </trkpt>
      <trkpt lat="60.0124332" lon="17.6259434">
        <ele>32.3416</ele>
        <time>2012-05-13T08:26:19Z</time>
      </trkpt>
      <trkpt lat="60.0120323" lon="17.6249091">
        <ele>31.8607</ele>
        <time>2012-05-13T08:26:29Z</time>
      </trkpt>
      <trkpt lat="60.0117488" lon="17.624095">
        <ele>31.8607</ele>
        <time>2012-05-13T08:26:36Z</time>
      </trkpt>
      <trkpt lat="60.0114122" lon="17.6234157">
        <ele>31.3801</ele>
        <time>2012-05-13T08:26:43Z</time>
      </trkpt>
      <trkpt lat="60.0110034" lon="17.6228104">
        <ele>31.3801</ele>
        <time>2012-05-13T08:26:51Z</time>
      </trkpt>
      <trkpt lat="60.0105381" lon="17.6223063">
        <ele>31.8607</ele>
        <time>2012-05-13T08:27:00Z</time>
      </trkpt>
      <trkpt lat="60.0098976" lon="17.62165">
        <ele>33.7834</ele>
        <time>2012-05-13T08:27:13Z</time>
      </trkpt>
      <trkpt lat="60.0094948" lon="17.6211143">
        <ele>35.2255</ele>
        <time>2012-05-13T08:27:22Z</time>
      </trkpt>
      <trkpt lat="60.0091148" lon="17.6204998">
        <ele>35.7061</ele>
        <time>2012-05-13T08:27:31Z</time>
      </trkpt>
      <trkpt lat="60.0087324" lon="17.6196634">
        <ele>36.6675</ele>
        <time>2012-05-13T08:27:41Z</time>
      </trkpt>
      <trkpt lat="60.0084327" lon="17.6188093">
        <ele>37.1481</ele>
        <time>2012-05-13T08:27:50Z</time>
      </trkpt>
      <trkpt lat="60.0082035" lon="17.6179448">
        <ele>36.6675</ele>
        <time>2012-05-13T08:27:58Z</time>
      </trkpt>
      <trkpt lat="60.0080024" lon="17.6170012">
        <ele>37.1481</ele>
        <time>2012-05-13T08:28:06Z</time>
      </trkpt>
      <trkpt lat="60.0078294" lon="17.6158037">
        <ele>34.7449</ele>
        <time>2012-05-13T08:28:16Z</time>
      </trkpt>
      <trkpt lat="60.0077534" lon="17.6147983">
        <ele>33.7834</ele>
        <time>2012-05-13T08:28:24Z</time>
      </trkpt>
      <trkpt lat="60.0077379" lon="17.6136166">
        <ele>32.3416</ele>
        <time>2012-05-13T08:28:33Z</time>
      </trkpt>
      <trkpt lat="60.0077929" lon="17.6118306">
        <ele>30.8995</ele>
        <time>2012-05-13T08:28:46Z</time>
      </trkpt>
      <trkpt lat="60.0078732" lon="17.6104375">
        <ele>29.9381</ele>
        <time>2012-05-13T08:28:57Z</time>
      </trkpt>
      <trkpt lat="60.0079726" lon="17.6091934">
        <ele>29.9381</ele>
        <time>2012-05-13T08:29:07Z</time>
      </trkpt>
      <trkpt lat="60.0081115" lon="17.6078295">
        <ele>30.8995</ele>
        <time>2012-05-13T08:29:18Z</time>
      </trkpt>
      <trkpt lat="60.0082333" lon="17.6067496">
        <ele>30.4188</ele>
        <time>2012-05-13T08:29:27Z</time>
      </trkpt>
      <trkpt lat="60.0084066" lon="17.6054376">
        <ele>31.3801</ele>
        <time>2012-05-13T08:29:38Z</time>
      </trkpt>
      <trkpt lat="60.0085989" lon="17.6040795">
        <ele>33.3029</ele>
        <time>2012-05-13T08:29:50Z</time>
      </trkpt>
      <trkpt lat="60.0087532" lon="17.6030178">
        <ele>34.7449</ele>
        <time>2012-05-13T08:30:00Z</time>
      </trkpt>
      <trkpt lat="60.0088875" lon="17.602168">
        <ele>35.7061</ele>
        <time>2012-05-13T08:30:08Z</time>
      </trkpt>
      <trkpt lat="60.0090526" lon="17.6011524">
        <ele>37.6287</ele>
        <time>2012-05-13T08:30:18Z</time>
      </trkpt>
      <trkpt lat="60.009232" lon="17.6000134">
        <ele>39.5513</ele>
        <time>2012-05-13T08:30:29Z</time>
      </trkpt>
      <trkpt lat="60.0094324" lon="17.5987905">
        <ele>40.9934</ele>
        <time>2012-05-13T08:30:40Z</time>
      </trkpt>
      <trkpt lat="60.0096975" lon="17.5971969">
        <ele>40.5128</ele>
        <time>2012-05-13T08:30:54Z</time>
      </trkpt>
      <trkpt lat="60.0098909" lon="17.5961006">
        <ele>40.9934</ele>
        <time>2012-05-13T08:31:03Z</time>
      </trkpt>
      <trkpt lat="60.0102285" lon="17.5942276">
        <ele>40.0321</ele>
        <time>2012-05-13T08:31:18Z</time>
      </trkpt>
      <trkpt lat="60.0104882" lon="17.5928255">
        <ele>39.0707</ele>
        <time>2012-05-13T08:31:29Z</time>
      </trkpt>
      <trkpt lat="60.0108061" lon="17.5914189">
        <ele>39.0707</ele>
        <time>2012-05-13T08:31:40Z</time>
      </trkpt>
      <trkpt lat="60.0110803" lon="17.5905414">
        <ele>40.0321</ele>
        <time>2012-05-13T08:31:48Z</time>
      </trkpt>
      <trkpt lat="60.0114059" lon="17.589739">
        <ele>40.9934</ele>
        <time>2012-05-13T08:31:56Z</time>
      </trkpt>
      <trkpt lat="60.0117753" lon="17.589032">
        <ele>40.9934</ele>
        <time>2012-05-13T08:32:04Z</time>
      </trkpt>
      <trkpt lat="60.0122286" lon="17.5883337">
        <ele>40.5128</ele>
        <time>2012-05-13T08:32:13Z</time>
      </trkpt>
      <trkpt lat="60.0127253" lon="17.5877561">
        <ele>40.9934</ele>
        <time>2012-05-13T08:32:22Z</time>
      </trkpt>
      <trkpt lat="60.0133157" lon="17.5872541">
        <ele>41.474</ele>
        <time>2012-05-13T08:32:32Z</time>
      </trkpt>
      <trkpt lat="60.0139617" lon="17.5869066">
        <ele>41.9547</ele>
        <time>2012-05-13T08:32:42Z</time>
      </trkpt>
      <trkpt lat="60.0145452" lon="17.5866907">
        <ele>41.9547</ele>
        <time>2012-05-13T08:32:51Z</time>
      </trkpt>
      <trkpt lat="60.0151988" lon="17.586463">
        <ele>42.916</ele>
        <time>2012-05-13T08:33:01Z</time>
      </trkpt>
      <trkpt lat="60.0159416" lon="17.5861164">
        <ele>41.474</ele>
        <time>2012-05-13T08:33:13Z</time>
      </trkpt>
      <trkpt lat="60.0164491" lon="17.5857382">
        <ele>38.5901</ele>
        <time>2012-05-13T08:33:22Z</time>
      </trkpt>
      <trkpt lat="60.0169021" lon="17.5852685">
        <ele>34.7449</ele>
        <time>2012-05-13T08:33:30Z</time>
      </trkpt>
      <trkpt lat="60.0173929" lon="17.5846242">
        <ele>34.7449</ele>
        <time>2012-05-13T08:33:39Z</time>
      </trkpt>
      <trkpt lat="60.0178949" lon="17.5837726">
        <ele>33.3029</ele>
        <time>2012-05-13T08:33:49Z</time>
      </trkpt>
      <trkpt lat="60.0182769" lon="17.5829024">
        <ele>33.3029</ele>
        <time>2012-05-13T08:33:57Z</time>
      </trkpt>
      <trkpt lat="60.0185681" lon="17.5820156">
        <ele>32.8223</ele>
        <time>2012-05-13T08:34:05Z</time>
      </trkpt>
      <trkpt lat="60.0188499" lon="17.5809446">
        <ele>32.8223</ele>
        <time>2012-05-13T08:34:14Z</time>
      </trkpt>
      <trkpt lat="60.0190222" lon="17.5800761">
        <ele>32.8223</ele>
        <time>2012-05-13T08:34:21Z</time>
      </trkpt>
      <trkpt lat="60.019061" lon="17.5798377">
        <ele>32.8223</ele>
        <time>2012-05-13T08:34:23Z</time>
      </trkpt>
      <trkpt lat="60.0192067" lon="17.5795162">
        <ele>31.3801</ele>
        <time>2012-05-13T08:34:27Z</time>
      </trkpt>
      <trkpt lat="60.0192611" lon="17.5794872">
        <ele>30.8995</ele>
        <time>2012-05-13T08:34:28Z</time>
      </trkpt>
      <trkpt lat="60.0194464" lon="17.5793939">
        <ele>29.9381</ele>
        <time>2012-05-13T08:34:31Z</time>
      </trkpt>
      <trkpt lat="60.0195652" lon="17.579269">
        <ele>29.4575</ele>
        <time>2012-05-13T08:34:33Z</time>
      </trkpt>
      <trkpt lat="60.0198148" lon="17.5787816">
        <ele>25.6123</ele>
        <time>2012-05-13T08:34:38Z</time>
      </trkpt>
      <trkpt lat="60.0198949" lon="17.578538">
        <ele>24.1703</ele>
        <time>2012-05-13T08:34:40Z</time>
      </trkpt>
      <trkpt lat="60.0199794" lon="17.5781616">
        <ele>21.767</ele>
        <time>2012-05-13T08:34:43Z</time>
      </trkpt>
      <trkpt lat="60.0200573" lon="17.577627">
        <ele>21.767</ele>
        <time>2012-05-13T08:34:47Z</time>
      </trkpt>
      <trkpt lat="60.0201285" lon="17.5770115">
        <ele>24.651</ele>
        <time>2012-05-13T08:34:51Z</time>
      </trkpt>
      <trkpt lat="60.0201583" lon="17.5765605">
        <ele>25.1317</ele>
        <time>2012-05-13T08:34:54Z</time>
      </trkpt>
      <trkpt lat="60.0202536" lon="17.5760124">
        <ele>23.209</ele>
        <time>2012-05-13T08:34:58Z</time>
      </trkpt>
      <trkpt lat="60.020428" lon="17.5755352">
        <ele>25.1317</ele>
        <time>2012-05-13T08:35:02Z</time>
      </trkpt>
      <trkpt lat="60.0206582" lon="17.5751128">
        <ele>26.0929</ele>
        <time>2012-05-13T08:35:07Z</time>
      </trkpt>
      <trkpt lat="60.0210586" lon="17.574925">
        <ele>25.6123</ele>
        <time>2012-05-13T08:35:13Z</time>
      </trkpt>
      <trkpt lat="60.0213734" lon="17.5748614">
        <ele>23.209</ele>
        <time>2012-05-13T08:35:18Z</time>
      </trkpt>
      <trkpt lat="60.0214207" lon="17.5748612">
        <ele>23.6896</ele>
        <time>2012-05-13T08:35:19Z</time>
      </trkpt>
      <trkpt lat="60.0216378" lon="17.5747958">
        <ele>24.651</ele>
        <time>2012-05-13T08:35:23Z</time>
      </trkpt>
      <trkpt lat="60.0220201" lon="17.5745415">
        <ele>20.8057</ele>
        <time>2012-05-13T08:35:30Z</time>
      </trkpt>
      <trkpt lat="60.0221382" lon="17.574491">
        <ele>18.4023</ele>
        <time>2012-05-13T08:35:32Z</time>
      </trkpt>
      <trkpt lat="60.0224183" lon="17.5744198">
        <ele>11.6732</ele>
        <time>2012-05-13T08:35:37Z</time>
      </trkpt>
      <trkpt lat="60.0228199" lon="17.574307">
        <ele>0</ele>
        <time>2012-05-13T08:35:44Z</time>
      </trkpt>
      <trkpt lat="60.022888" lon="17.5742845">
        <ele>0</ele>
        <time>2012-05-13T08:35:45Z</time>
      </trkpt>
      <trkpt lat="60.0231129" lon="17.5743122">
        <ele>5.42456</ele>
        <time>2012-05-13T08:35:48Z</time>
      </trkpt>
      <trkpt lat="60.0234843" lon="17.5743551">
        <ele>14.0764</ele>
        <time>2012-05-13T08:35:53Z</time>
      </trkpt>
      <trkpt lat="60.0237503" lon="17.5744034">
        <ele>12.1538</ele>
        <time>2012-05-13T08:35:58Z</time>
      </trkpt>
      <trkpt lat="60.0238513" lon="17.5744029">
        <ele>12.1538</ele>
        <time>2012-05-13T08:36:00Z</time>
      </trkpt>
      <trkpt lat="60.0241832" lon="17.5743337">
        <ele>20.8057</ele>
        <time>2012-05-13T08:36:05Z</time>
      </trkpt>
      <trkpt lat="60.0243688" lon="17.574235">
        <ele>23.209</ele>
        <time>2012-05-13T08:36:08Z</time>
      </trkpt>
      <trkpt lat="60.0246562" lon="17.5739352">
        <ele>22.2476</ele>
        <time>2012-05-13T08:36:13Z</time>
      </trkpt>
      <trkpt lat="60.0247192" lon="17.5738929">
        <ele>23.6896</ele>
        <time>2012-05-13T08:36:14Z</time>
      </trkpt>
      <trkpt lat="60.0249002" lon="17.5737548">
        <ele>28.0155</ele>
        <time>2012-05-13T08:36:17Z</time>
      </trkpt>
      <trkpt lat="60.0252382" lon="17.5734989">
        <ele>28.0155</ele>
        <time>2012-05-13T08:36:23Z</time>
      </trkpt>
      <trkpt lat="60.0254102" lon="17.5732806">
        <ele>27.0543</ele>
        <time>2012-05-13T08:36:26Z</time>
      </trkpt>
      <trkpt lat="60.0255189" lon="17.5726676">
        <ele>18.4023</ele>
        <time>2012-05-13T08:36:30Z</time>
      </trkpt>
      <trkpt lat="60.0255238" lon="17.5724808">
        <ele>18.4023</ele>
        <time>2012-05-13T08:36:31Z</time>
      </trkpt>
      <trkpt lat="60.0255404" lon="17.572149">
        <ele>18.8831</ele>
        <time>2012-05-13T08:36:33Z</time>
      </trkpt>
      <trkpt lat="60.0256146" lon="17.5715443">
        <ele>24.1703</ele>
        <time>2012-05-13T08:36:38Z</time>
      </trkpt>
      <trkpt lat="60.0256703" lon="17.5712651">
        <ele>26.5736</ele>
        <time>2012-05-13T08:36:41Z</time>
      </trkpt>
      <trkpt lat="60.0257215" lon="17.5706132">
        <ele>27.5349</ele>
        <time>2012-05-13T08:36:47Z</time>
      </trkpt>
      <trkpt lat="60.025612" lon="17.5701007">
        <ele>27.5349</ele>
        <time>2012-05-13T08:36:52Z</time>
      </trkpt>
      <trkpt lat="60.0255146" lon="17.5698288">
        <ele>29.9381</ele>
        <time>2012-05-13T08:36:55Z</time>
      </trkpt>
      <trkpt lat="60.0252481" lon="17.5692964">
        <ele>28.9769</ele>
        <time>2012-05-13T08:37:02Z</time>
      </trkpt>
      <trkpt lat="60.0252085" lon="17.5692191">
        <ele>28.4962</ele>
        <time>2012-05-13T08:37:03Z</time>
      </trkpt>
      <trkpt lat="60.0250618" lon="17.5687927">
        <ele>29.4575</ele>
        <time>2012-05-13T08:37:08Z</time>
      </trkpt>
      <trkpt lat="60.0249032" lon="17.5680839">
        <ele>37.6287</ele>
        <time>2012-05-13T08:37:16Z</time>
      </trkpt>
      <trkpt lat="60.0248497" lon="17.567807">
        <ele>36.1868</ele>
        <time>2012-05-13T08:37:19Z</time>
      </trkpt>
      <trkpt lat="60.0247535" lon="17.5672743">
        <ele>36.1868</ele>
        <time>2012-05-13T08:37:24Z</time>
      </trkpt>
      <trkpt lat="60.0246236" lon="17.5668212">
        <ele>31.3801</ele>
        <time>2012-05-13T08:37:29Z</time>
      </trkpt>
      <trkpt lat="60.0244213" lon="17.5663317">
        <ele>27.0543</ele>
        <time>2012-05-13T08:37:35Z</time>
      </trkpt>
      <trkpt lat="60.0243236" lon="17.5661592">
        <ele>24.651</ele>
        <time>2012-05-13T08:37:37Z</time>
      </trkpt>
      <trkpt lat="60.0241024" lon="17.5656412">
        <ele>33.3029</ele>
        <time>2012-05-13T08:37:43Z</time>
      </trkpt>
      <trkpt lat="60.0238908" lon="17.5653521">
        <ele>32.8223</ele>
        <time>2012-05-13T08:37:47Z</time>
      </trkpt>
      <trkpt lat="60.0237593" lon="17.5648155">
        <ele>28.9769</ele>
        <time>2012-05-13T08:37:51Z</time>
      </trkpt>
      <trkpt lat="60.0237254" lon="17.5643369">
        <ele>28.0155</ele>
        <time>2012-05-13T08:37:54Z</time>
      </trkpt>
      <trkpt lat="60.0237222" lon="17.5628626">
        <ele>31.3801</ele>
        <time>2012-05-13T08:38:03Z</time>
      </trkpt>
      <trkpt lat="60.0238355" lon="17.562186">
        <ele>33.7834</ele>
        <time>2012-05-13T08:38:09Z</time>
      </trkpt>
      <trkpt lat="60.0239205" lon="17.5614566">
        <ele>36.1868</ele>
        <time>2012-05-13T08:38:15Z</time>
      </trkpt>
      <trkpt lat="60.0240211" lon="17.5604031">
        <ele>35.7061</ele>
        <time>2012-05-13T08:38:23Z</time>
      </trkpt>
      <trkpt lat="60.0242625" lon="17.5596611">
        <ele>37.1481</ele>
        <time>2012-05-13T08:38:30Z</time>
      </trkpt>
      <trkpt lat="60.0245308" lon="17.5589957">
        <ele>36.6675</ele>
        <time>2012-05-13T08:38:37Z</time>
      </trkpt>
      <trkpt lat="60.0248835" lon="17.5582871">
        <ele>36.6675</ele>
        <time>2012-05-13T08:38:45Z</time>
      </trkpt>
      <trkpt lat="60.0253667" lon="17.5576069">
        <ele>36.6675</ele>
        <time>2012-05-13T08:38:54Z</time>
      </trkpt>
      <trkpt lat="60.0257408" lon="17.5571547">
        <ele>34.2642</ele>
        <time>2012-05-13T08:39:01Z</time>
      </trkpt>
      <trkpt lat="60.0259862" lon="17.5567514">
        <ele>33.7834</ele>
        <time>2012-05-13T08:39:06Z</time>
      </trkpt>
      <trkpt lat="60.02623" lon="17.5560542">
        <ele>33.3029</ele>
        <time>2012-05-13T08:39:13Z</time>
      </trkpt>
      <trkpt lat="60.0263206" lon="17.5554431">
        <ele>34.7449</ele>
        <time>2012-05-13T08:39:18Z</time>
      </trkpt>
      <trkpt lat="60.026363" lon="17.554547">
        <ele>36.1868</ele>
        <time>2012-05-13T08:39:25Z</time>
      </trkpt>
      <trkpt lat="60.0263343" lon="17.5537161">
        <ele>38.5901</ele>
        <time>2012-05-13T08:39:32Z</time>
      </trkpt>
      <trkpt lat="60.0263143" lon="17.5534875">
        <ele>39.0707</ele>
        <time>2012-05-13T08:39:34Z</time>
      </trkpt>
      <trkpt lat="60.0263141" lon="17.5530707">
        <ele>39.0707</ele>
        <time>2012-05-13T08:39:38Z</time>
      </trkpt>
      <trkpt lat="60.0262966" lon="17.5528194">
        <ele>40.0321</ele>
        <time>2012-05-13T08:39:41Z</time>
      </trkpt>
      <trkpt lat="60.0262713" lon="17.5524316">
        <ele>40.9934</ele>
        <time>2012-05-13T08:39:45Z</time>
      </trkpt>
      <trkpt lat="60.0262813" lon="17.5522073">
        <ele>40.9934</ele>
        <time>2012-05-13T08:39:47Z</time>
      </trkpt>
      <trkpt lat="60.0261672" lon="17.5517664">
        <ele>30.8995</ele>
        <time>2012-05-13T08:39:51Z</time>
      </trkpt>
      <trkpt lat="60.0260455" lon="17.5516072">
        <ele>30.4188</ele>
        <time>2012-05-13T08:39:53Z</time>
      </trkpt>
      <trkpt lat="60.0256456" lon="17.5509982">
        <ele>30.4188</ele>
        <time>2012-05-13T08:40:00Z</time>
      </trkpt>
      <trkpt lat="60.0254605" lon="17.5503837">
        <ele>30.8995</ele>
        <time>2012-05-13T08:40:05Z</time>
      </trkpt>
      <trkpt lat="60.0251442" lon="17.5489467">
        <ele>30.4188</ele>
        <time>2012-05-13T08:40:16Z</time>
      </trkpt>
      <trkpt lat="60.0248483" lon="17.5476967">
        <ele>29.9381</ele>
        <time>2012-05-13T08:40:25Z</time>
      </trkpt>
      <trkpt lat="60.024506" lon="17.5464716">
        <ele>29.9381</ele>
        <time>2012-05-13T08:40:34Z</time>
      </trkpt>
      <trkpt lat="60.0241481" lon="17.545299">
        <ele>30.8995</ele>
        <time>2012-05-13T08:40:43Z</time>
      </trkpt>
      <trkpt lat="60.0237994" lon="17.5441082">
        <ele>30.8995</ele>
        <time>2012-05-13T08:40:52Z</time>
      </trkpt>
      <trkpt lat="60.0235524" lon="17.5432114">
        <ele>29.9381</ele>
        <time>2012-05-13T08:40:59Z</time>
      </trkpt>
      <trkpt lat="60.0235424" lon="17.5425971">
        <ele>28.0155</ele>
        <time>2012-05-13T08:41:03Z</time>
      </trkpt>
      <trkpt lat="60.0235895" lon="17.5414284">
        <ele>27.5349</ele>
        <time>2012-05-13T08:41:10Z</time>
      </trkpt>
      <trkpt lat="60.0235528" lon="17.5408235">
        <ele>28.4962</ele>
        <time>2012-05-13T08:41:14Z</time>
      </trkpt>
      <trkpt lat="60.023671" lon="17.5400867">
        <ele>28.4962</ele>
        <time>2012-05-13T08:41:19Z</time>
      </trkpt>
      <trkpt lat="60.0237129" lon="17.53998">
        <ele>28.4962</ele>
        <time>2012-05-13T08:41:20Z</time>
      </trkpt>
      <trkpt lat="60.0239356" lon="17.5394215">
        <ele>31.3801</ele>
        <time>2012-05-13T08:41:26Z</time>
      </trkpt>
      <trkpt lat="60.0239492" lon="17.5389829">
        <ele>31.3801</ele>
        <time>2012-05-13T08:41:31Z</time>
      </trkpt>
      <trkpt lat="60.0239261" lon="17.5388678">
        <ele>31.8607</ele>
        <time>2012-05-13T08:41:32Z</time>
      </trkpt>
      <trkpt lat="60.0237999" lon="17.5381203">
        <ele>33.3029</ele>
        <time>2012-05-13T08:41:39Z</time>
      </trkpt>
      <trkpt lat="60.0237116" lon="17.5373986">
        <ele>33.7834</ele>
        <time>2012-05-13T08:41:46Z</time>
      </trkpt>
      <trkpt lat="60.0236875" lon="17.5372128">
        <ele>33.7834</ele>
        <time>2012-05-13T08:41:48Z</time>
      </trkpt>
      <trkpt lat="60.0235394" lon="17.5369542">
        <ele>34.2642</ele>
        <time>2012-05-13T08:41:52Z</time>
      </trkpt>
      <trkpt lat="60.023488" lon="17.536947">
        <ele>33.7834</ele>
        <time>2012-05-13T08:41:53Z</time>
      </trkpt>
      <trkpt lat="60.0230643" lon="17.5368972">
        <ele>32.3416</ele>
        <time>2012-05-13T08:42:00Z</time>
      </trkpt>
      <trkpt lat="60.0225941" lon="17.5366959">
        <ele>32.3416</ele>
        <time>2012-05-13T08:42:07Z</time>
      </trkpt>
      <trkpt lat="60.0221085" lon="17.5362944">
        <ele>33.3029</ele>
        <time>2012-05-13T08:42:15Z</time>
      </trkpt>
      <trkpt lat="60.0216839" lon="17.5358479">
        <ele>34.2642</ele>
        <time>2012-05-13T08:42:23Z</time>
      </trkpt>
      <trkpt lat="60.0214206" lon="17.5355686">
        <ele>35.2255</ele>
        <time>2012-05-13T08:42:28Z</time>
      </trkpt>
      <trkpt lat="60.0210388" lon="17.5351491">
        <ele>35.7061</ele>
        <time>2012-05-13T08:42:35Z</time>
      </trkpt>
      <trkpt lat="60.0204608" lon="17.5346309">
        <ele>35.7061</ele>
        <time>2012-05-13T08:42:45Z</time>
      </trkpt>
      <trkpt lat="60.0200079" lon="17.5344454">
        <ele>33.7834</ele>
        <time>2012-05-13T08:42:52Z</time>
      </trkpt>
      <trkpt lat="60.0194657" lon="17.534417">
        <ele>31.8607</ele>
        <time>2012-05-13T08:43:00Z</time>
      </trkpt>
      <trkpt lat="60.0187094" lon="17.5345244">
        <ele>29.9381</ele>
        <time>2012-05-13T08:43:11Z</time>
      </trkpt>
      <trkpt lat="60.0180436" lon="17.5346122">
        <ele>29.4575</ele>
        <time>2012-05-13T08:43:21Z</time>
      </trkpt>
      <trkpt lat="60.0173465" lon="17.5346316">
        <ele>29.4575</ele>
        <time>2012-05-13T08:43:32Z</time>
      </trkpt>
      <trkpt lat="60.016706" lon="17.5345212">
        <ele>29.9381</ele>
        <time>2012-05-13T08:43:42Z</time>
      </trkpt>
      <trkpt lat="60.0159893" lon="17.5342457">
        <ele>29.4575</ele>
        <time>2012-05-13T08:43:53Z</time>
      </trkpt>
      <trkpt lat="60.0151469" lon="17.5339108">
        <ele>30.8995</ele>
        <time>2012-05-13T08:44:06Z</time>
      </trkpt>
      <trkpt lat="60.0143022" lon="17.5335483">
        <ele>28.0155</ele>
        <time>2012-05-13T08:44:19Z</time>
      </trkpt>
      <trkpt lat="60.0137198" lon="17.5333169">
        <ele>26.0929</ele>
        <time>2012-05-13T08:44:28Z</time>
      </trkpt>
      <trkpt lat="60.0131578" lon="17.5330708">
        <ele>26.5736</ele>
        <time>2012-05-13T08:44:37Z</time>
      </trkpt>
      <trkpt lat="60.0126787" lon="17.5327857">
        <ele>29.9381</ele>
        <time>2012-05-13T08:44:45Z</time>
      </trkpt>
      <trkpt lat="60.0121415" lon="17.5323869">
        <ele>36.1868</ele>
        <time>2012-05-13T08:44:55Z</time>
      </trkpt>
      <trkpt lat="60.011506" lon="17.5319111">
        <ele>40.9934</ele>
        <time>2012-05-13T08:45:07Z</time>
      </trkpt>
      <trkpt lat="60.0109561" lon="17.5315036">
        <ele>42.4354</ele>
        <time>2012-05-13T08:45:17Z</time>
      </trkpt>
      <trkpt lat="60.0103916" lon="17.5311054">
        <ele>42.916</ele>
        <time>2012-05-13T08:45:27Z</time>
      </trkpt>
      <trkpt lat="60.0098455" lon="17.5307553">
        <ele>42.916</ele>
        <time>2012-05-13T08:45:36Z</time>
      </trkpt>
      <trkpt lat="60.0091956" lon="17.5303501">
        <ele>41.9547</ele>
        <time>2012-05-13T08:45:46Z</time>
      </trkpt>
      <trkpt lat="60.0086037" lon="17.5299799">
        <ele>42.916</ele>
        <time>2012-05-13T08:45:55Z</time>
      </trkpt>
      <trkpt lat="60.0079967" lon="17.5295934">
        <ele>40.9934</ele>
        <time>2012-05-13T08:46:04Z</time>
      </trkpt>
      <trkpt lat="60.0073264" lon="17.5291257">
        <ele>40.9934</ele>
        <time>2012-05-13T08:46:14Z</time>
      </trkpt>
      <trkpt lat="60.0069146" lon="17.5286293">
        <ele>40.5128</ele>
        <time>2012-05-13T08:46:21Z</time>
      </trkpt>
      <trkpt lat="60.0065023" lon="17.5279007">
        <ele>38.1094</ele>
        <time>2012-05-13T08:46:29Z</time>
      </trkpt>
      <trkpt lat="60.0062446" lon="17.5272504">
        <ele>37.6287</ele>
        <time>2012-05-13T08:46:35Z</time>
      </trkpt>
      <trkpt lat="60.0059254" lon="17.5261773">
        <ele>31.3801</ele>
        <time>2012-05-13T08:46:44Z</time>
      </trkpt>
      <trkpt lat="60.0054928" lon="17.5246448">
        <ele>27.0543</ele>
        <time>2012-05-13T08:46:57Z</time>
      </trkpt>
      <trkpt lat="60.0051819" lon="17.5235175">
        <ele>23.209</ele>
        <time>2012-05-13T08:47:06Z</time>
      </trkpt>
      <trkpt lat="60.0049091" lon="17.5225267">
        <ele>20.8057</ele>
        <time>2012-05-13T08:47:14Z</time>
      </trkpt>
      <trkpt lat="60.0046232" lon="17.5215052">
        <ele>21.767</ele>
        <time>2012-05-13T08:47:23Z</time>
      </trkpt>
      <trkpt lat="60.0042729" lon="17.5202827">
        <ele>25.1317</ele>
        <time>2012-05-13T08:47:34Z</time>
      </trkpt>
      <trkpt lat="60.0039368" lon="17.5193103">
        <ele>25.1317</ele>
        <time>2012-05-13T08:47:43Z</time>
      </trkpt>
      <trkpt lat="60.0035906" lon="17.518543">
        <ele>23.6896</ele>
        <time>2012-05-13T08:47:51Z</time>
      </trkpt>
      <trkpt lat="60.0031484" lon="17.5177437">
        <ele>30.8995</ele>
        <time>2012-05-13T08:48:01Z</time>
      </trkpt>
      <trkpt lat="60.0028153" lon="17.5171781">
        <ele>32.8223</ele>
        <time>2012-05-13T08:48:09Z</time>
      </trkpt>
      <trkpt lat="60.0024492" lon="17.5165756">
        <ele>35.7061</ele>
        <time>2012-05-13T08:48:19Z</time>
      </trkpt>
      <trkpt lat="60.0022816" lon="17.5163055">
        <ele>36.1868</ele>
        <time>2012-05-13T08:48:24Z</time>
      </trkpt>
      <trkpt lat="60.0021507" lon="17.5161175">
        <ele>36.6675</ele>
        <time>2012-05-13T08:48:28Z</time>
      </trkpt>
      <trkpt lat="60.0018309" lon="17.5158195">
        <ele>36.1868</ele>
        <time>2012-05-13T08:48:35Z</time>
      </trkpt>
      <trkpt lat="60.0016612" lon="17.5156803">
        <ele>37.1481</ele>
        <time>2012-05-13T08:48:38Z</time>
      </trkpt>
      <trkpt lat="60.0015394" lon="17.5156531">
        <ele>36.6675</ele>
        <time>2012-05-13T08:48:40Z</time>
      </trkpt>
      <trkpt lat="60.0013466" lon="17.5155325">
        <ele>37.6287</ele>
        <time>2012-05-13T08:48:43Z</time>
      </trkpt>
      <trkpt lat="60.0010251" lon="17.5153916">
        <ele>38.1094</ele>
        <time>2012-05-13T08:48:49Z</time>
      </trkpt>
      <trkpt lat="60.0006579" lon="17.5152304">
        <ele>37.6287</ele>
        <time>2012-05-13T08:48:55Z</time>
      </trkpt>
      <trkpt lat="60.0005319" lon="17.5151785">
        <ele>38.1094</ele>
        <time>2012-05-13T08:48:57Z</time>
      </trkpt>
      <trkpt lat="60.0002242" lon="17.5152723">
        <ele>38.1094</ele>
        <time>2012-05-13T08:49:02Z</time>
      </trkpt>
      <trkpt lat="60.000162" lon="17.5153267">
        <ele>37.6287</ele>
        <time>2012-05-13T08:49:03Z</time>
      </trkpt>
      <trkpt lat="59.9999663" lon="17.5154871">
        <ele>37.1481</ele>
        <time>2012-05-13T08:49:06Z</time>
      </trkpt>
      <trkpt lat="59.9996363" lon="17.5155212">
        <ele>36.6675</ele>
        <time>2012-05-13T08:49:11Z</time>
      </trkpt>
      <trkpt lat="59.9994506" lon="17.515389">
        <ele>37.1481</ele>
        <time>2012-05-13T08:49:14Z</time>
      </trkpt>
      <trkpt lat="59.99911" lon="17.5149898">
        <ele>38.5901</ele>
        <time>2012-05-13T08:49:20Z</time>
      </trkpt>
      <trkpt lat="59.9988888" lon="17.5144169">
        <ele>39.0707</ele>
        <time>2012-05-13T08:49:26Z</time>
      </trkpt>
      <trkpt lat="59.998793" lon="17.5141344">
        <ele>39.0707</ele>
        <time>2012-05-13T08:49:29Z</time>
      </trkpt>
      <trkpt lat="59.9985068" lon="17.5137484">
        <ele>35.2255</ele>
        <time>2012-05-13T08:49:34Z</time>
      </trkpt>
      <trkpt lat="59.9984481" lon="17.5136875">
        <ele>34.2642</ele>
        <time>2012-05-13T08:49:35Z</time>
      </trkpt>
      <trkpt lat="59.9980382" lon="17.5134334">
        <ele>34.2642</ele>
        <time>2012-05-13T08:49:41Z</time>
      </trkpt>
      <trkpt lat="59.9974488" lon="17.5132718">
        <ele>33.7834</ele>
        <time>2012-05-13T08:49:49Z</time>
      </trkpt>
      <trkpt lat="59.9965634" lon="17.5130258">
        <ele>33.3029</ele>
        <time>2012-05-13T08:50:01Z</time>
      </trkpt>
      <trkpt lat="59.9957399" lon="17.5127931">
        <ele>34.7449</ele>
        <time>2012-05-13T08:50:13Z</time>
      </trkpt>
      <trkpt lat="59.9956101" lon="17.5127364">
        <ele>34.2642</ele>
        <time>2012-05-13T08:50:15Z</time>
      </trkpt>
      <trkpt lat="59.9953269" lon="17.5124022">
        <ele>34.2642</ele>
        <time>2012-05-13T08:50:20Z</time>
      </trkpt>
      <trkpt lat="59.9951892" lon="17.5119286">
        <ele>34.7449</ele>
        <time>2012-05-13T08:50:24Z</time>
      </trkpt>
      <trkpt lat="59.9951496" lon="17.5113543">
        <ele>31.8607</ele>
        <time>2012-05-13T08:50:28Z</time>
      </trkpt>
      <trkpt lat="59.9952354" lon="17.509892">
        <ele>29.4575</ele>
        <time>2012-05-13T08:50:38Z</time>
      </trkpt>
      <trkpt lat="59.9953922" lon="17.5086989">
        <ele>32.8223</ele>
        <time>2012-05-13T08:50:47Z</time>
      </trkpt>
      <trkpt lat="59.9956029" lon="17.5073582">
        <ele>30.4188</ele>
        <time>2012-05-13T08:50:58Z</time>
      </trkpt>
      <trkpt lat="59.9957919" lon="17.5065757">
        <ele>29.9381</ele>
        <time>2012-05-13T08:51:05Z</time>
      </trkpt>
      <trkpt lat="59.9960756" lon="17.505694">
        <ele>29.9381</ele>
        <time>2012-05-13T08:51:14Z</time>
      </trkpt>
      <trkpt lat="59.9963524" lon="17.5047896">
        <ele>30.8995</ele>
        <time>2012-05-13T08:51:23Z</time>
      </trkpt>
      <trkpt lat="59.9963526" lon="17.5043181">
        <ele>30.8995</ele>
        <time>2012-05-13T08:51:27Z</time>
      </trkpt>
      <trkpt lat="59.9962012" lon="17.5040807">
        <ele>30.8995</ele>
        <time>2012-05-13T08:51:30Z</time>
      </trkpt>
      <trkpt lat="59.9957712" lon="17.5037068">
        <ele>30.8995</ele>
        <time>2012-05-13T08:51:36Z</time>
      </trkpt>
      <trkpt lat="59.9956182" lon="17.5031806">
        <ele>28.9769</ele>
        <time>2012-05-13T08:51:40Z</time>
      </trkpt>
      <trkpt lat="59.995693" lon="17.5028064">
        <ele>29.4575</ele>
        <time>2012-05-13T08:51:43Z</time>
      </trkpt>
      <trkpt lat="59.9957014" lon="17.502272">
        <ele>29.4575</ele>
        <time>2012-05-13T08:51:47Z</time>
      </trkpt>
      <trkpt lat="59.9956129" lon="17.5018757">
        <ele>28.9769</ele>
        <time>2012-05-13T08:51:50Z</time>
      </trkpt>
      <trkpt lat="59.9954445" lon="17.5016068">
        <ele>27.5349</ele>
        <time>2012-05-13T08:51:53Z</time>
      </trkpt>
      <trkpt lat="59.9952778" lon="17.501584">
        <ele>27.0543</ele>
        <time>2012-05-13T08:51:55Z</time>
      </trkpt>
      <trkpt lat="59.9951503" lon="17.5015279">
        <ele>28.0155</ele>
        <time>2012-05-13T08:51:57Z</time>
      </trkpt>
      <trkpt lat="59.9948379" lon="17.5012251">
        <ele>30.4188</ele>
        <time>2012-05-13T08:52:03Z</time>
      </trkpt>
      <trkpt lat="59.9945344" lon="17.5007802">
        <ele>28.4962</ele>
        <time>2012-05-13T08:52:09Z</time>
      </trkpt>
      <trkpt lat="59.994456" lon="17.5002531">
        <ele>25.1317</ele>
        <time>2012-05-13T08:52:13Z</time>
      </trkpt>
      <trkpt lat="59.9945386" lon="17.5000704">
        <ele>25.1317</ele>
        <time>2012-05-13T08:52:15Z</time>
      </trkpt>
      <trkpt lat="59.9948991" lon="17.4993903">
        <ele>28.0155</ele>
        <time>2012-05-13T08:52:23Z</time>
      </trkpt>
      <trkpt lat="59.9952068" lon="17.4986365">
        <ele>30.4188</ele>
        <time>2012-05-13T08:52:31Z</time>
      </trkpt>
      <trkpt lat="59.9954189" lon="17.4978358">
        <ele>31.8607</ele>
        <time>2012-05-13T08:52:38Z</time>
      </trkpt>
      <trkpt lat="59.995665" lon="17.4967785">
        <ele>33.3029</ele>
        <time>2012-05-13T08:52:47Z</time>
      </trkpt>
      <trkpt lat="59.9959189" lon="17.4958342">
        <ele>34.2642</ele>
        <time>2012-05-13T08:52:55Z</time>
      </trkpt>
      <trkpt lat="59.9961563" lon="17.4951696">
        <ele>34.2642</ele>
        <time>2012-05-13T08:53:02Z</time>
      </trkpt>
      <trkpt lat="59.9965478" lon="17.4940207">
        <ele>33.7834</ele>
        <time>2012-05-13T08:53:14Z</time>
      </trkpt>
      <trkpt lat="59.9969217" lon="17.4927732">
        <ele>32.8223</ele>
        <time>2012-05-13T08:53:26Z</time>
      </trkpt>
      <trkpt lat="59.997245" lon="17.4918443">
        <ele>32.8223</ele>
        <time>2012-05-13T08:53:35Z</time>
      </trkpt>
      <trkpt lat="59.9975684" lon="17.4909167">
        <ele>33.7834</ele>
        <time>2012-05-13T08:53:44Z</time>
      </trkpt>
      <trkpt lat="59.9978595" lon="17.4899062">
        <ele>34.7449</ele>
        <time>2012-05-13T08:53:53Z</time>
      </trkpt>
      <trkpt lat="59.9980492" lon="17.4892493">
        <ele>36.1868</ele>
        <time>2012-05-13T08:53:59Z</time>
      </trkpt>
      <trkpt lat="59.998348" lon="17.4881529">
        <ele>37.6287</ele>
        <time>2012-05-13T08:54:09Z</time>
      </trkpt>
      <trkpt lat="59.9984361" lon="17.4874492">
        <ele>39.5513</ele>
        <time>2012-05-13T08:54:15Z</time>
      </trkpt>
      <trkpt lat="59.9985096" lon="17.4862676">
        <ele>40.5128</ele>
        <time>2012-05-13T08:54:24Z</time>
      </trkpt>
      <trkpt lat="59.9985969" lon="17.4850441">
        <ele>41.474</ele>
        <time>2012-05-13T08:54:33Z</time>
      </trkpt>
      <trkpt lat="59.998713" lon="17.4834433">
        <ele>43.8773</ele>
        <time>2012-05-13T08:54:45Z</time>
      </trkpt>
      <trkpt lat="59.9988379" lon="17.482153">
        <ele>46.2806</ele>
        <time>2012-05-13T08:54:55Z</time>
      </trkpt>
      <trkpt lat="59.9989562" lon="17.4806357">
        <ele>47.7225</ele>
        <time>2012-05-13T08:55:07Z</time>
      </trkpt>
      <trkpt lat="59.9990125" lon="17.4796218">
        <ele>49.1646</ele>
        <time>2012-05-13T08:55:15Z</time>
      </trkpt>
      <trkpt lat="59.9991234" lon="17.4779466">
        <ele>50.126</ele>
        <time>2012-05-13T08:55:28Z</time>
      </trkpt>
      <trkpt lat="59.9991802" lon="17.4769477">
        <ele>50.6066</ele>
        <time>2012-05-13T08:55:36Z</time>
      </trkpt>
      <trkpt lat="59.9992237" lon="17.4759352">
        <ele>46.2806</ele>
        <time>2012-05-13T08:55:44Z</time>
      </trkpt>
      <trkpt lat="59.9992467" lon="17.4752586">
        <ele>41.474</ele>
        <time>2012-05-13T08:55:49Z</time>
      </trkpt>
      <trkpt lat="59.9993508" lon="17.4746036">
        <ele>37.6287</ele>
        <time>2012-05-13T08:55:55Z</time>
      </trkpt>
      <trkpt lat="59.9993866" lon="17.4745202">
        <ele>37.1481</ele>
        <time>2012-05-13T08:55:56Z</time>
      </trkpt>
      <trkpt lat="59.9994603" lon="17.4743666">
        <ele>36.1868</ele>
        <time>2012-05-13T08:55:58Z</time>
      </trkpt>
      <trkpt lat="59.9997" lon="17.474029">
        <ele>37.6287</ele>
        <time>2012-05-13T08:56:04Z</time>
      </trkpt>
      <trkpt lat="59.9998902" lon="17.4737684">
        <ele>38.5901</ele>
        <time>2012-05-13T08:56:09Z</time>
      </trkpt>
      <trkpt lat="60.0001202" lon="17.4731249">
        <ele>33.3029</ele>
        <time>2012-05-13T08:56:16Z</time>
      </trkpt>
      <trkpt lat="60.0002422" lon="17.4726341">
        <ele>27.0543</ele>
        <time>2012-05-13T08:56:21Z</time>
      </trkpt>
      <trkpt lat="60.0003972" lon="17.4718388">
        <ele>17.4412</ele>
        <time>2012-05-13T08:56:28Z</time>
      </trkpt>
      <trkpt lat="60.0005858" lon="17.4708013">
        <ele>21.2864</ele>
        <time>2012-05-13T08:56:36Z</time>
      </trkpt>
      <trkpt lat="60.0007679" lon="17.4695712">
        <ele>24.651</ele>
        <time>2012-05-13T08:56:45Z</time>
      </trkpt>
      <trkpt lat="60.0009203" lon="17.468316">
        <ele>28.0155</ele>
        <time>2012-05-13T08:56:55Z</time>
      </trkpt>
      <trkpt lat="60.0009912" lon="17.4675773">
        <ele>29.4575</ele>
        <time>2012-05-13T08:57:01Z</time>
      </trkpt>
      <trkpt lat="60.0010992" lon="17.4665117">
        <ele>34.2642</ele>
        <time>2012-05-13T08:57:10Z</time>
      </trkpt>
      <trkpt lat="60.0012167" lon="17.4655312">
        <ele>38.5901</ele>
        <time>2012-05-13T08:57:19Z</time>
      </trkpt>
      <trkpt lat="60.0013825" lon="17.4646271">
        <ele>39.5513</ele>
        <time>2012-05-13T08:57:28Z</time>
      </trkpt>
      <trkpt lat="60.001413" lon="17.4645288">
        <ele>39.5513</ele>
        <time>2012-05-13T08:57:29Z</time>
      </trkpt>
      <trkpt lat="60.0016402" lon="17.4641366">
        <ele>37.6287</ele>
        <time>2012-05-13T08:57:34Z</time>
      </trkpt>
      <trkpt lat="60.0018337" lon="17.4640463">
        <ele>36.6675</ele>
        <time>2012-05-13T08:57:37Z</time>
      </trkpt>
      <trkpt lat="60.0023433" lon="17.463861">
        <ele>33.7834</ele>
        <time>2012-05-13T08:57:45Z</time>
      </trkpt>
      <trkpt lat="60.0024575" lon="17.463742">
        <ele>33.3029</ele>
        <time>2012-05-13T08:57:47Z</time>
      </trkpt>
      <trkpt lat="60.0028375" lon="17.4630777">
        <ele>31.3801</ele>
        <time>2012-05-13T08:57:55Z</time>
      </trkpt>
      <trkpt lat="60.0031825" lon="17.4622624">
        <ele>31.8607</ele>
        <time>2012-05-13T08:58:04Z</time>
      </trkpt>
      <trkpt lat="60.0033464" lon="17.4616647">
        <ele>35.2255</ele>
        <time>2012-05-13T08:58:10Z</time>
      </trkpt>
      <trkpt lat="60.0033664" lon="17.4615562">
        <ele>35.2255</ele>
        <time>2012-05-13T08:58:11Z</time>
      </trkpt>
      <trkpt lat="60.0034173" lon="17.4607147">
        <ele>36.1868</ele>
        <time>2012-05-13T08:58:18Z</time>
      </trkpt>
      <trkpt lat="60.0034274" lon="17.4595812">
        <ele>36.6675</ele>
        <time>2012-05-13T08:58:27Z</time>
      </trkpt>
      <trkpt lat="60.0034888" lon="17.4585981">
        <ele>36.1868</ele>
        <time>2012-05-13T08:58:35Z</time>
      </trkpt>
      <trkpt lat="60.0036172" lon="17.4575829">
        <ele>38.5901</ele>
        <time>2012-05-13T08:58:44Z</time>
      </trkpt>
      <trkpt lat="60.0036352" lon="17.4567341">
        <ele>40.0321</ele>
        <time>2012-05-13T08:58:51Z</time>
      </trkpt>
      <trkpt lat="60.0036582" lon="17.455963">
        <ele>40.9934</ele>
        <time>2012-05-13T08:58:58Z</time>
      </trkpt>
      <trkpt lat="60.0036633" lon="17.455863">
        <ele>40.9934</ele>
        <time>2012-05-13T08:58:59Z</time>
      </trkpt>
      <trkpt lat="60.0037444" lon="17.4551828">
        <ele>40.9934</ele>
        <time>2012-05-13T08:59:07Z</time>
      </trkpt>
      <trkpt lat="60.0038789" lon="17.4547827">
        <ele>41.474</ele>
        <time>2012-05-13T08:59:12Z</time>
      </trkpt>
      <trkpt lat="60.0039855" lon="17.4545416">
        <ele>42.4354</ele>
        <time>2012-05-13T08:59:15Z</time>
      </trkpt>
      <trkpt lat="60.0042771" lon="17.4539603">
        <ele>40.5128</ele>
        <time>2012-05-13T08:59:22Z</time>
      </trkpt>
      <trkpt lat="60.0044171" lon="17.4537112">
        <ele>39.0707</ele>
        <time>2012-05-13T08:59:25Z</time>
      </trkpt>
      <trkpt lat="60.0047547" lon="17.4529787">
        <ele>40.0321</ele>
        <time>2012-05-13T08:59:33Z</time>
      </trkpt>
      <trkpt lat="60.0050184" lon="17.4523507">
        <ele>40.5128</ele>
        <time>2012-05-13T08:59:40Z</time>
      </trkpt>
      <trkpt lat="60.0052624" lon="17.4517343">
        <ele>34.2642</ele>
        <time>2012-05-13T08:59:47Z</time>
      </trkpt>
      <trkpt lat="60.0053814" lon="17.4513631">
        <ele>29.9381</ele>
        <time>2012-05-13T08:59:51Z</time>
      </trkpt>
      <trkpt lat="60.0054339" lon="17.4511644">
        <ele>28.9769</ele>
        <time>2012-05-13T08:59:53Z</time>
      </trkpt>
      <trkpt lat="60.0055232" lon="17.4507252">
        <ele>32.3416</ele>
        <time>2012-05-13T08:59:57Z</time>
      </trkpt>
      <trkpt lat="60.0055784" lon="17.44971">
        <ele>38.1094</ele>
        <time>2012-05-13T09:00:05Z</time>
      </trkpt>
      <trkpt lat="60.0055877" lon="17.4488456">
        <ele>39.0707</ele>
        <time>2012-05-13T09:00:12Z</time>
      </trkpt>
      <trkpt lat="60.0056246" lon="17.4478438">
        <ele>43.3966</ele>
        <time>2012-05-13T09:00:21Z</time>
      </trkpt>
      <trkpt lat="60.0056838" lon="17.4468922">
        <ele>41.9547</ele>
        <time>2012-05-13T09:00:30Z</time>
      </trkpt>
      <trkpt lat="60.0057483" lon="17.4464279">
        <ele>40.5128</ele>
        <time>2012-05-13T09:00:34Z</time>
      </trkpt>
      <trkpt lat="60.0059979" lon="17.4457064">
        <ele>35.7061</ele>
        <time>2012-05-13T09:00:41Z</time>
      </trkpt>
      <trkpt lat="60.0062656" lon="17.4451557">
        <ele>38.1094</ele>
        <time>2012-05-13T09:00:48Z</time>
      </trkpt>
      <trkpt lat="60.0062953" lon="17.4450899">
        <ele>38.5901</ele>
        <time>2012-05-13T09:00:49Z</time>
      </trkpt>
      <trkpt lat="60.0064884" lon="17.4444661">
        <ele>45.7999</ele>
        <time>2012-05-13T09:00:57Z</time>
      </trkpt>
      <trkpt lat="60.006504" lon="17.4442967">
        <ele>45.3192</ele>
        <time>2012-05-13T09:00:59Z</time>
      </trkpt>
      <trkpt lat="60.006548" lon="17.4433544">
        <ele>47.2418</ele>
        <time>2012-05-13T09:01:08Z</time>
      </trkpt>
      <trkpt lat="60.0065558" lon="17.4432339">
        <ele>46.7612</ele>
        <time>2012-05-13T09:01:09Z</time>
      </trkpt>
      <trkpt lat="60.0067045" lon="17.4422154">
        <ele>39.0707</ele>
        <time>2012-05-13T09:01:17Z</time>
      </trkpt>
      <trkpt lat="60.0068511" lon="17.4414799">
        <ele>34.7449</ele>
        <time>2012-05-13T09:01:24Z</time>
      </trkpt>
      <trkpt lat="60.0069585" lon="17.4409415">
        <ele>32.8223</ele>
        <time>2012-05-13T09:01:29Z</time>
      </trkpt>
      <trkpt lat="60.0071306" lon="17.4402456">
        <ele>28.9769</ele>
        <time>2012-05-13T09:01:36Z</time>
      </trkpt>
      <trkpt lat="60.0072586" lon="17.4398409">
        <ele>24.1703</ele>
        <time>2012-05-13T09:01:41Z</time>
      </trkpt>
      <trkpt lat="60.0073492" lon="17.4396446">
        <ele>21.2864</ele>
        <time>2012-05-13T09:01:44Z</time>
      </trkpt>
      <trkpt lat="60.0075008" lon="17.439285">
        <ele>22.7283</ele>
        <time>2012-05-13T09:01:49Z</time>
      </trkpt>
      <trkpt lat="60.0076111" lon="17.4390086">
        <ele>13.5958</ele>
        <time>2012-05-13T09:01:53Z</time>
      </trkpt>
      <trkpt lat="60.0078937" lon="17.4384977">
        <ele>0</ele>
        <time>2012-05-13T09:02:00Z</time>
      </trkpt>
      <trkpt lat="60.0080804" lon="17.4381983">
        <ele>0</ele>
        <time>2012-05-13T09:02:03Z</time>
      </trkpt>
      <trkpt lat="60.0085603" lon="17.4376912">
        <ele>3.50195</ele>
        <time>2012-05-13T09:02:09Z</time>
      </trkpt>
      <trkpt lat="60.0092173" lon="17.4372518">
        <ele>15.5184</ele>
        <time>2012-05-13T09:02:17Z</time>
      </trkpt>
      <trkpt lat="60.0098202" lon="17.4368822">
        <ele>25.1317</ele>
        <time>2012-05-13T09:02:25Z</time>
      </trkpt>
      <trkpt lat="60.0102499" lon="17.4366079">
        <ele>31.3801</ele>
        <time>2012-05-13T09:02:31Z</time>
      </trkpt>
      <trkpt lat="60.0105138" lon="17.4363559">
        <ele>35.2255</ele>
        <time>2012-05-13T09:02:35Z</time>
      </trkpt>
      <trkpt lat="60.0107217" lon="17.4359942">
        <ele>36.1868</ele>
        <time>2012-05-13T09:02:39Z</time>
      </trkpt>
      <trkpt lat="60.0109137" lon="17.4351867">
        <ele>35.2255</ele>
        <time>2012-05-13T09:02:45Z</time>
      </trkpt>
      <trkpt lat="60.0110753" lon="17.4342149">
        <ele>37.6287</ele>
        <time>2012-05-13T09:02:53Z</time>
      </trkpt>
      <trkpt lat="60.0111998" lon="17.433183">
        <ele>35.7061</ele>
        <time>2012-05-13T09:03:01Z</time>
      </trkpt>
      <trkpt lat="60.0113926" lon="17.4322765">
        <ele>33.7834</ele>
        <time>2012-05-13T09:03:09Z</time>
      </trkpt>
      <trkpt lat="60.0114935" lon="17.4316786">
        <ele>32.8223</ele>
        <time>2012-05-13T09:03:14Z</time>
      </trkpt>
      <trkpt lat="60.0116244" lon="17.4310026">
        <ele>37.1481</ele>
        <time>2012-05-13T09:03:20Z</time>
      </trkpt>
      <trkpt lat="60.0118649" lon="17.4302738">
        <ele>37.1481</ele>
        <time>2012-05-13T09:03:27Z</time>
      </trkpt>
      <trkpt lat="60.0119477" lon="17.4299904">
        <ele>34.2642</ele>
        <time>2012-05-13T09:03:29Z</time>
      </trkpt>
      <trkpt lat="60.0121866" lon="17.4294137">
        <ele>32.8223</ele>
        <time>2012-05-13T09:03:35Z</time>
      </trkpt>
      <trkpt lat="60.0123031" lon="17.4289229">
        <ele>33.3029</ele>
        <time>2012-05-13T09:03:39Z</time>
      </trkpt>
      <trkpt lat="60.0123908" lon="17.4284139">
        <ele>31.8607</ele>
        <time>2012-05-13T09:03:43Z</time>
      </trkpt>
      <trkpt lat="60.0124596" lon="17.4276542">
        <ele>21.767</ele>
        <time>2012-05-13T09:03:49Z</time>
      </trkpt>
      <trkpt lat="60.0125228" lon="17.4270082">
        <ele>18.4023</ele>
        <time>2012-05-13T09:03:54Z</time>
      </trkpt>
      <trkpt lat="60.0126381" lon="17.4262085">
        <ele>17.4412</ele>
        <time>2012-05-13T09:04:00Z</time>
      </trkpt>
      <trkpt lat="60.012786" lon="17.4252023">
        <ele>10.2312</ele>
        <time>2012-05-13T09:04:08Z</time>
      </trkpt>
      <trkpt lat="60.01298" lon="17.4243123">
        <ele>18.4023</ele>
        <time>2012-05-13T09:04:15Z</time>
      </trkpt>
      <trkpt lat="60.0131069" lon="17.4235309">
        <ele>15.999</ele>
        <time>2012-05-13T09:04:21Z</time>
      </trkpt>
      <trkpt lat="60.0133516" lon="17.4228274">
        <ele>19.3638</ele>
        <time>2012-05-13T09:04:27Z</time>
      </trkpt>
      <trkpt lat="60.0135992" lon="17.422274">
        <ele>26.0929</ele>
        <time>2012-05-13T09:04:33Z</time>
      </trkpt>
      <trkpt lat="60.0137149" lon="17.4219495">
        <ele>27.5349</ele>
        <time>2012-05-13T09:04:36Z</time>
      </trkpt>
      <trkpt lat="60.0138765" lon="17.4209311">
        <ele>34.2642</ele>
        <time>2012-05-13T09:04:44Z</time>
      </trkpt>
      <trkpt lat="60.0140064" lon="17.4200094">
        <ele>36.6675</ele>
        <time>2012-05-13T09:04:52Z</time>
      </trkpt>
      <trkpt lat="60.0139969" lon="17.4192956">
        <ele>38.5901</ele>
        <time>2012-05-13T09:04:58Z</time>
      </trkpt>
      <trkpt lat="60.0139829" lon="17.4185445">
        <ele>38.5901</ele>
        <time>2012-05-13T09:05:04Z</time>
      </trkpt>
      <trkpt lat="60.014059" lon="17.4178001">
        <ele>39.0707</ele>
        <time>2012-05-13T09:05:10Z</time>
      </trkpt>
      <trkpt lat="60.0142098" lon="17.4168968">
        <ele>38.5901</ele>
        <time>2012-05-13T09:05:17Z</time>
      </trkpt>
      <trkpt lat="60.0143493" lon="17.4160077">
        <ele>39.0707</ele>
        <time>2012-05-13T09:05:24Z</time>
      </trkpt>
      <trkpt lat="60.014438" lon="17.4153121">
        <ele>40.5128</ele>
        <time>2012-05-13T09:05:30Z</time>
      </trkpt>
      <trkpt lat="60.0145467" lon="17.4145361">
        <ele>41.9547</ele>
        <time>2012-05-13T09:05:37Z</time>
      </trkpt>
      <trkpt lat="60.0146627" lon="17.4139549">
        <ele>41.474</ele>
        <time>2012-05-13T09:05:43Z</time>
      </trkpt>
      <trkpt lat="60.0147389" lon="17.413686">
        <ele>40.9934</ele>
        <time>2012-05-13T09:05:46Z</time>
      </trkpt>
      <trkpt lat="60.0148506" lon="17.4133737">
        <ele>40.0321</ele>
        <time>2012-05-13T09:05:50Z</time>
      </trkpt>
      <trkpt lat="60.0149542" lon="17.4130245">
        <ele>37.6287</ele>
        <time>2012-05-13T09:05:54Z</time>
      </trkpt>
      <trkpt lat="60.015281" lon="17.4120977">
        <ele>37.6287</ele>
        <time>2012-05-13T09:06:04Z</time>
      </trkpt>
      <trkpt lat="60.0153582" lon="17.4119327">
        <ele>37.6287</ele>
        <time>2012-05-13T09:06:06Z</time>
      </trkpt>
      <trkpt lat="60.0157013" lon="17.4114149">
        <ele>35.2255</ele>
        <time>2012-05-13T09:06:14Z</time>
      </trkpt>
      <trkpt lat="60.0160788" lon="17.4109019">
        <ele>37.6287</ele>
        <time>2012-05-13T09:06:22Z</time>
      </trkpt>
      <trkpt lat="60.0164333" lon="17.4104256">
        <ele>41.474</ele>
        <time>2012-05-13T09:06:30Z</time>
      </trkpt>
      <trkpt lat="60.0166525" lon="17.4100182">
        <ele>39.5513</ele>
        <time>2012-05-13T09:06:37Z</time>
      </trkpt>
      <trkpt lat="60.0168352" lon="17.409475">
        <ele>41.9547</ele>
        <time>2012-05-13T09:06:45Z</time>
      </trkpt>
      <trkpt lat="60.0169456" lon="17.409007">
        <ele>43.8773</ele>
        <time>2012-05-13T09:06:51Z</time>
      </trkpt>
      <trkpt lat="60.0170093" lon="17.4086371">
        <ele>44.358</ele>
        <time>2012-05-13T09:06:55Z</time>
      </trkpt>
      <trkpt lat="60.0171036" lon="17.4078233">
        <ele>39.0707</ele>
        <time>2012-05-13T09:07:02Z</time>
      </trkpt>
      <trkpt lat="60.0172697" lon="17.4070624">
        <ele>39.0707</ele>
        <time>2012-05-13T09:07:08Z</time>
      </trkpt>
      <trkpt lat="60.0173018" lon="17.4069441">
        <ele>38.5901</ele>
        <time>2012-05-13T09:07:09Z</time>
      </trkpt>
      <trkpt lat="60.0174987" lon="17.4063785">
        <ele>36.6675</ele>
        <time>2012-05-13T09:07:14Z</time>
      </trkpt>
      <trkpt lat="60.0175355" lon="17.4062801">
        <ele>36.6675</ele>
        <time>2012-05-13T09:07:15Z</time>
      </trkpt>
      <trkpt lat="60.0176494" lon="17.4060041">
        <ele>35.2255</ele>
        <time>2012-05-13T09:07:18Z</time>
      </trkpt>
      <trkpt lat="60.0179749" lon="17.4052306">
        <ele>35.7061</ele>
        <time>2012-05-13T09:07:25Z</time>
      </trkpt>
      <trkpt lat="60.0182307" lon="17.4046375">
        <ele>36.1868</ele>
        <time>2012-05-13T09:07:31Z</time>
      </trkpt>
      <trkpt lat="60.0183484" lon="17.4042335">
        <ele>36.6675</ele>
        <time>2012-05-13T09:07:35Z</time>
      </trkpt>
      <trkpt lat="60.0184551" lon="17.4034456">
        <ele>38.5901</ele>
        <time>2012-05-13T09:07:42Z</time>
      </trkpt>
      <trkpt lat="60.0185566" lon="17.4027307">
        <ele>39.5513</ele>
        <time>2012-05-13T09:07:48Z</time>
      </trkpt>
      <trkpt lat="60.0185845" lon="17.4023786">
        <ele>40.5128</ele>
        <time>2012-05-13T09:07:51Z</time>
      </trkpt>
      <trkpt lat="60.0186255" lon="17.4020784">
        <ele>40.0321</ele>
        <time>2012-05-13T09:07:54Z</time>
      </trkpt>
      <trkpt lat="60.0186175" lon="17.4015391">
        <ele>39.5513</ele>
        <time>2012-05-13T09:07:58Z</time>
      </trkpt>
      <trkpt lat="60.0184514" lon="17.4006673">
        <ele>39.5513</ele>
        <time>2012-05-13T09:08:05Z</time>
      </trkpt>
      <trkpt lat="60.0183659" lon="17.3999037">
        <ele>41.474</ele>
        <time>2012-05-13T09:08:10Z</time>
      </trkpt>
      <trkpt lat="60.0182468" lon="17.3991428">
        <ele>42.4354</ele>
        <time>2012-05-13T09:08:18Z</time>
      </trkpt>
      <trkpt lat="60.0182396" lon="17.3990197">
        <ele>44.8386</ele>
        <time>2012-05-13T09:08:20Z</time>
      </trkpt>
      <trkpt lat="60.0181845" lon="17.3985913">
        <ele>45.7999</ele>
        <time>2012-05-13T09:08:26Z</time>
      </trkpt>
      <trkpt lat="60.0180836" lon="17.3980404">
        <ele>50.126</ele>
        <time>2012-05-13T09:08:32Z</time>
      </trkpt>
      <trkpt lat="60.0178842" lon="17.3974043">
        <ele>52.5292</ele>
        <time>2012-05-13T09:08:38Z</time>
      </trkpt>
      <trkpt lat="60.01777" lon="17.3970521">
        <ele>53.0098</ele>
        <time>2012-05-13T09:08:41Z</time>
      </trkpt>
      <trkpt lat="60.017593" lon="17.3964339">
        <ele>51.5679</ele>
        <time>2012-05-13T09:08:46Z</time>
      </trkpt>
      <trkpt lat="60.0175303" lon="17.3961321">
        <ele>51.0872</ele>
        <time>2012-05-13T09:08:48Z</time>
      </trkpt>
      <trkpt lat="60.0175495" lon="17.3954628">
        <ele>47.2418</ele>
        <time>2012-05-13T09:08:52Z</time>
      </trkpt>
      <trkpt lat="60.0176747" lon="17.3950272">
        <ele>40.0321</ele>
        <time>2012-05-13T09:08:55Z</time>
      </trkpt>
      <trkpt lat="60.0178952" lon="17.3947084">
        <ele>35.2255</ele>
        <time>2012-05-13T09:08:59Z</time>
      </trkpt>
      <trkpt lat="60.018057" lon="17.3945548">
        <ele>34.2642</ele>
        <time>2012-05-13T09:09:02Z</time>
      </trkpt>
      <trkpt lat="60.0181686" lon="17.3944585">
        <ele>32.8223</ele>
        <time>2012-05-13T09:09:04Z</time>
      </trkpt>
      <trkpt lat="60.0185223" lon="17.3940302">
        <ele>32.8223</ele>
        <time>2012-05-13T09:09:10Z</time>
      </trkpt>
      <trkpt lat="60.0185777" lon="17.3939717">
        <ele>31.8607</ele>
        <time>2012-05-13T09:09:11Z</time>
      </trkpt>
      <trkpt lat="60.0188257" lon="17.3935929">
        <ele>28.9769</ele>
        <time>2012-05-13T09:09:17Z</time>
      </trkpt>
      <trkpt lat="60.0191049" lon="17.3932097">
        <ele>34.7449</ele>
        <time>2012-05-13T09:09:24Z</time>
      </trkpt>
      <trkpt lat="60.0193858" lon="17.3926891">
        <ele>32.3416</ele>
        <time>2012-05-13T09:09:32Z</time>
      </trkpt>
      <trkpt lat="60.0196672" lon="17.3922514">
        <ele>30.8995</ele>
        <time>2012-05-13T09:09:38Z</time>
      </trkpt>
      <trkpt lat="60.0199729" lon="17.3917561">
        <ele>29.9381</ele>
        <time>2012-05-13T09:09:44Z</time>
      </trkpt>
      <trkpt lat="60.0202546" lon="17.3909558">
        <ele>30.8995</ele>
        <time>2012-05-13T09:09:50Z</time>
      </trkpt>
      <trkpt lat="60.0204727" lon="17.3904528">
        <ele>34.2642</ele>
        <time>2012-05-13T09:09:55Z</time>
      </trkpt>
      <trkpt lat="60.0206415" lon="17.3900769">
        <ele>38.5901</ele>
        <time>2012-05-13T09:10:00Z</time>
      </trkpt>
      <trkpt lat="60.020788" lon="17.3896404">
        <ele>37.1481</ele>
        <time>2012-05-13T09:10:05Z</time>
      </trkpt>
      <trkpt lat="60.020841" lon="17.3890734">
        <ele>38.5901</ele>
        <time>2012-05-13T09:10:10Z</time>
      </trkpt>
      <trkpt lat="60.0209291" lon="17.3886378">
        <ele>42.916</ele>
        <time>2012-05-13T09:10:15Z</time>
      </trkpt>
      <trkpt lat="60.0209323" lon="17.3884065">
        <ele>44.358</ele>
        <time>2012-05-13T09:10:17Z</time>
      </trkpt>
      <trkpt lat="60.0210529" lon="17.3879135">
        <ele>39.5513</ele>
        <time>2012-05-13T09:10:22Z</time>
      </trkpt>
      <trkpt lat="60.0210906" lon="17.3878031">
        <ele>40.0321</ele>
        <time>2012-05-13T09:10:23Z</time>
      </trkpt>
      <trkpt lat="60.0213542" lon="17.3873856">
        <ele>37.6287</ele>
        <time>2012-05-13T09:10:28Z</time>
      </trkpt>
      <trkpt lat="60.0214212" lon="17.3873545">
        <ele>37.6287</ele>
        <time>2012-05-13T09:10:29Z</time>
      </trkpt>
      <trkpt lat="60.0216175" lon="17.3872895">
        <ele>36.6675</ele>
        <time>2012-05-13T09:10:32Z</time>
      </trkpt>
      <trkpt lat="60.0220494" lon="17.3870998">
        <ele>36.6675</ele>
        <time>2012-05-13T09:10:39Z</time>
      </trkpt>
      <trkpt lat="60.0221925" lon="17.3869873">
        <ele>34.2642</ele>
        <time>2012-05-13T09:10:41Z</time>
      </trkpt>
      <trkpt lat="60.0227186" lon="17.3868361">
        <ele>34.2642</ele>
        <time>2012-05-13T09:10:48Z</time>
      </trkpt>
      <trkpt lat="60.0228008" lon="17.3868179">
        <ele>35.2255</ele>
        <time>2012-05-13T09:10:49Z</time>
      </trkpt>
      <trkpt lat="60.0230774" lon="17.3866176">
        <ele>36.1868</ele>
        <time>2012-05-13T09:10:53Z</time>
      </trkpt>
      <trkpt lat="60.0235107" lon="17.3858768">
        <ele>37.1481</ele>
        <time>2012-05-13T09:11:01Z</time>
      </trkpt>
      <trkpt lat="60.0238134" lon="17.3852976">
        <ele>38.1094</ele>
        <time>2012-05-13T09:11:07Z</time>
      </trkpt>
      <trkpt lat="60.0238618" lon="17.3851949">
        <ele>39.0707</ele>
        <time>2012-05-13T09:11:08Z</time>
      </trkpt>
      <trkpt lat="60.0239601" lon="17.3850163">
        <ele>39.5513</ele>
        <time>2012-05-13T09:11:10Z</time>
      </trkpt>
      <trkpt lat="60.0242131" lon="17.3846896">
        <ele>40.5128</ele>
        <time>2012-05-13T09:11:15Z</time>
      </trkpt>
      <trkpt lat="60.0243335" lon="17.3840922">
        <ele>42.916</ele>
        <time>2012-05-13T09:11:20Z</time>
      </trkpt>
      <trkpt lat="60.0243196" lon="17.3832846">
        <ele>44.358</ele>
        <time>2012-05-13T09:11:27Z</time>
      </trkpt>
      <trkpt lat="60.0243251" lon="17.3823123">
        <ele>41.9547</ele>
        <time>2012-05-13T09:11:35Z</time>
      </trkpt>
      <trkpt lat="60.0243483" lon="17.3815786">
        <ele>40.0321</ele>
        <time>2012-05-13T09:11:41Z</time>
      </trkpt>
      <trkpt lat="60.0243587" lon="17.3808664">
        <ele>39.5513</ele>
        <time>2012-05-13T09:11:47Z</time>
      </trkpt>
      <trkpt lat="60.0243583" lon="17.3807504">
        <ele>39.5513</ele>
        <time>2012-05-13T09:11:48Z</time>
      </trkpt>
      <trkpt lat="60.0244407" lon="17.3798253">
        <ele>38.1094</ele>
        <time>2012-05-13T09:11:56Z</time>
      </trkpt>
      <trkpt lat="60.0244086" lon="17.379107">
        <ele>34.2642</ele>
        <time>2012-05-13T09:12:01Z</time>
      </trkpt>
      <trkpt lat="60.0243516" lon="17.378421">
        <ele>29.4575</ele>
        <time>2012-05-13T09:12:06Z</time>
      </trkpt>
      <trkpt lat="60.0243933" lon="17.3781935">
        <ele>41.9547</ele>
        <time>2012-05-13T09:12:09Z</time>
      </trkpt>
      <trkpt lat="60.0243073" lon="17.3779791">
        <ele>46.7612</ele>
        <time>2012-05-13T09:12:11Z</time>
      </trkpt>
      <trkpt lat="60.0241831" lon="17.3776298">
        <ele>50.6066</ele>
        <time>2012-05-13T09:12:14Z</time>
      </trkpt>
      <trkpt lat="60.0241044" lon="17.3774549">
        <ele>51.0872</ele>
        <time>2012-05-13T09:12:16Z</time>
      </trkpt>
      <trkpt lat="60.0240039" lon="17.3768663">
        <ele>45.3192</ele>
        <time>2012-05-13T09:12:21Z</time>
      </trkpt>
      <trkpt lat="60.0239968" lon="17.3765386">
        <ele>41.474</ele>
        <time>2012-05-13T09:12:23Z</time>
      </trkpt>
      <trkpt lat="60.0239991" lon="17.3758558">
        <ele>40.9934</ele>
        <time>2012-05-13T09:12:28Z</time>
      </trkpt>
      <trkpt lat="60.0239711" lon="17.3757304">
        <ele>41.474</ele>
        <time>2012-05-13T09:12:29Z</time>
      </trkpt>
      <trkpt lat="60.0239276" lon="17.3749895">
        <ele>40.0321</ele>
        <time>2012-05-13T09:12:34Z</time>
      </trkpt>
      <trkpt lat="60.024032" lon="17.3745265">
        <ele>38.1094</ele>
        <time>2012-05-13T09:12:37Z</time>
      </trkpt>
      <trkpt lat="60.0242899" lon="17.3738851">
        <ele>38.1094</ele>
        <time>2012-05-13T09:12:44Z</time>
      </trkpt>
      <trkpt lat="60.0243801" lon="17.3736028">
        <ele>38.1094</ele>
        <time>2012-05-13T09:12:47Z</time>
      </trkpt>
      <trkpt lat="60.024447" lon="17.3733119">
        <ele>35.7061</ele>
        <time>2012-05-13T09:12:50Z</time>
      </trkpt>
      <trkpt lat="60.0244858" lon="17.3726918">
        <ele>35.2255</ele>
        <time>2012-05-13T09:12:55Z</time>
      </trkpt>
      <trkpt lat="60.0245161" lon="17.3721805">
        <ele>34.7449</ele>
        <time>2012-05-13T09:12:58Z</time>
      </trkpt>
      <trkpt lat="60.0245193" lon="17.3717664">
        <ele>30.8995</ele>
        <time>2012-05-13T09:13:02Z</time>
      </trkpt>
      <trkpt lat="60.0245063" lon="17.3713855">
        <ele>32.3416</ele>
        <time>2012-05-13T09:13:06Z</time>
      </trkpt>
      <trkpt lat="60.0244866" lon="17.3709529">
        <ele>32.3416</ele>
        <time>2012-05-13T09:13:10Z</time>
      </trkpt>
      <trkpt lat="60.0244542" lon="17.3706341">
        <ele>33.3029</ele>
        <time>2012-05-13T09:13:13Z</time>
      </trkpt>
      <trkpt lat="60.0243945" lon="17.3702857">
        <ele>30.8995</ele>
        <time>2012-05-13T09:13:16Z</time>
      </trkpt>
      <trkpt lat="60.0243474" lon="17.3694914">
        <ele>30.8995</ele>
        <time>2012-05-13T09:13:21Z</time>
      </trkpt>
      <trkpt lat="60.0243423" lon="17.3693021">
        <ele>30.8995</ele>
        <time>2012-05-13T09:13:22Z</time>
      </trkpt>
      <trkpt lat="60.0242907" lon="17.3683851">
        <ele>29.4575</ele>
        <time>2012-05-13T09:13:28Z</time>
      </trkpt>
      <trkpt lat="60.0241324" lon="17.367793">
        <ele>30.4188</ele>
        <time>2012-05-13T09:13:33Z</time>
      </trkpt>
      <trkpt lat="60.0239506" lon="17.3678244">
        <ele>33.3029</ele>
        <time>2012-05-13T09:13:36Z</time>
      </trkpt>
      <trkpt lat="60.0237683" lon="17.3680075">
        <ele>35.2255</ele>
        <time>2012-05-13T09:13:39Z</time>
      </trkpt>
      <trkpt lat="60.0232058" lon="17.3683126">
        <ele>37.6287</ele>
        <time>2012-05-13T09:13:47Z</time>
      </trkpt>
      <trkpt lat="60.0227137" lon="17.3687622">
        <ele>39.5513</ele>
        <time>2012-05-13T09:13:54Z</time>
      </trkpt>
      <trkpt lat="60.0220329" lon="17.3694202">
        <ele>41.9547</ele>
        <time>2012-05-13T09:14:04Z</time>
      </trkpt>
      <trkpt lat="60.0215437" lon="17.369903">
        <ele>42.916</ele>
        <time>2012-05-13T09:14:12Z</time>
      </trkpt>
      <trkpt lat="60.021225" lon="17.3701861">
        <ele>43.8773</ele>
        <time>2012-05-13T09:14:18Z</time>
      </trkpt>
      <trkpt lat="60.020881" lon="17.370566">
        <ele>44.358</ele>
        <time>2012-05-13T09:14:25Z</time>
      </trkpt>
      <trkpt lat="60.0205266" lon="17.3708664">
        <ele>44.358</ele>
        <time>2012-05-13T09:14:32Z</time>
      </trkpt>
      <trkpt lat="60.0202218" lon="17.3711818">
        <ele>42.4354</ele>
        <time>2012-05-13T09:14:38Z</time>
      </trkpt>
      <trkpt lat="60.0196994" lon="17.3716176">
        <ele>40.9934</ele>
        <time>2012-05-13T09:14:47Z</time>
      </trkpt>
      <trkpt lat="60.0193061" lon="17.3717623">
        <ele>40.9934</ele>
        <time>2012-05-13T09:14:53Z</time>
      </trkpt>
      <trkpt lat="60.018622" lon="17.3718289">
        <ele>40.0321</ele>
        <time>2012-05-13T09:15:03Z</time>
      </trkpt>
      <trkpt lat="60.0180618" lon="17.371855">
        <ele>40.0321</ele>
        <time>2012-05-13T09:15:12Z</time>
      </trkpt>
      <trkpt lat="60.0178271" lon="17.3718645">
        <ele>39.0707</ele>
        <time>2012-05-13T09:15:17Z</time>
      </trkpt>
      <trkpt lat="60.0175523" lon="17.3718631">
        <ele>37.1481</ele>
        <time>2012-05-13T09:15:23Z</time>
      </trkpt>
      <trkpt lat="60.0172051" lon="17.3718844">
        <ele>37.1481</ele>
        <time>2012-05-13T09:15:29Z</time>
      </trkpt>
      <trkpt lat="60.0167579" lon="17.3718885">
        <ele>38.5901</ele>
        <time>2012-05-13T09:15:36Z</time>
      </trkpt>
      <trkpt lat="60.0162474" lon="17.3719464">
        <ele>41.9547</ele>
        <time>2012-05-13T09:15:44Z</time>
      </trkpt>
      <trkpt lat="60.0158298" lon="17.3720063">
        <ele>43.3966</ele>
        <time>2012-05-13T09:15:51Z</time>
      </trkpt>
      <trkpt lat="60.0153562" lon="17.3720802">
        <ele>45.3192</ele>
        <time>2012-05-13T09:15:59Z</time>
      </trkpt>
      <trkpt lat="60.0148528" lon="17.3721423">
        <ele>44.8386</ele>
        <time>2012-05-13T09:16:07Z</time>
      </trkpt>
      <trkpt lat="60.0144437" lon="17.3721712">
        <ele>47.2418</ele>
        <time>2012-05-13T09:16:13Z</time>
      </trkpt>
      <trkpt lat="60.0140514" lon="17.3722123">
        <ele>48.684</ele>
        <time>2012-05-13T09:16:19Z</time>
      </trkpt>
      <trkpt lat="60.0135069" lon="17.3722822">
        <ele>46.7612</ele>
        <time>2012-05-13T09:16:27Z</time>
      </trkpt>
      <trkpt lat="60.0128824" lon="17.3723026">
        <ele>50.126</ele>
        <time>2012-05-13T09:16:35Z</time>
      </trkpt>
      <trkpt lat="60.0124753" lon="17.3723059">
        <ele>50.6066</ele>
        <time>2012-05-13T09:16:41Z</time>
      </trkpt>
      <trkpt lat="60.0120028" lon="17.3723379">
        <ele>49.1646</ele>
        <time>2012-05-13T09:16:49Z</time>
      </trkpt>
      <trkpt lat="60.0117718" lon="17.3723412">
        <ele>47.7225</ele>
        <time>2012-05-13T09:16:52Z</time>
      </trkpt>
      <trkpt lat="60.0114061" lon="17.3721514">
        <ele>45.7999</ele>
        <time>2012-05-13T09:16:57Z</time>
      </trkpt>
      <trkpt lat="60.0112806" lon="17.3719407">
        <ele>44.358</ele>
        <time>2012-05-13T09:16:59Z</time>
      </trkpt>
      <trkpt lat="60.0109777" lon="17.371499">
        <ele>44.8386</ele>
        <time>2012-05-13T09:17:04Z</time>
      </trkpt>
      <trkpt lat="60.0107186" lon="17.3706533">
        <ele>43.8773</ele>
        <time>2012-05-13T09:17:11Z</time>
      </trkpt>
      <trkpt lat="60.0103586" lon="17.3693952">
        <ele>43.8773</ele>
        <time>2012-05-13T09:17:21Z</time>
      </trkpt>
      <trkpt lat="60.0102638" lon="17.3692045">
        <ele>44.8386</ele>
        <time>2012-05-13T09:17:23Z</time>
      </trkpt>
      <trkpt lat="60.0099457" lon="17.36864">
        <ele>46.2806</ele>
        <time>2012-05-13T09:17:29Z</time>
      </trkpt>
      <trkpt lat="60.0096831" lon="17.3681613">
        <ele>43.8773</ele>
        <time>2012-05-13T09:17:34Z</time>
      </trkpt>
      <trkpt lat="60.0096298" lon="17.3680603">
        <ele>43.8773</ele>
        <time>2012-05-13T09:17:35Z</time>
      </trkpt>
      <trkpt lat="60.0094184" lon="17.3676821">
        <ele>43.3966</ele>
        <time>2012-05-13T09:17:40Z</time>
      </trkpt>
      <trkpt lat="60.00926" lon="17.3672197">
        <ele>45.3192</ele>
        <time>2012-05-13T09:17:44Z</time>
      </trkpt>
      <trkpt lat="60.009033" lon="17.3666762">
        <ele>46.7612</ele>
        <time>2012-05-13T09:17:50Z</time>
      </trkpt>
      <trkpt lat="60.0087947" lon="17.3660737">
        <ele>45.3192</ele>
        <time>2012-05-13T09:17:56Z</time>
      </trkpt>
      <trkpt lat="60.0085598" lon="17.3655804">
        <ele>44.358</ele>
        <time>2012-05-13T09:18:01Z</time>
      </trkpt>
      <trkpt lat="60.0084098" lon="17.3653997">
        <ele>44.8386</ele>
        <time>2012-05-13T09:18:04Z</time>
      </trkpt>
      <trkpt lat="60.0079688" lon="17.3650724">
        <ele>44.8386</ele>
        <time>2012-05-13T09:18:11Z</time>
      </trkpt>
      <trkpt lat="60.0076643" lon="17.3648516">
        <ele>43.3966</ele>
        <time>2012-05-13T09:18:16Z</time>
      </trkpt>
      <trkpt lat="60.0071789" lon="17.3644827">
        <ele>40.9934</ele>
        <time>2012-05-13T09:18:24Z</time>
      </trkpt>
      <trkpt lat="60.0067853" lon="17.3642911">
        <ele>40.0321</ele>
        <time>2012-05-13T09:18:30Z</time>
      </trkpt>
      <trkpt lat="60.0063471" lon="17.3641543">
        <ele>40.5128</ele>
        <time>2012-05-13T09:18:37Z</time>
      </trkpt>
      <trkpt lat="60.0058038" lon="17.3640182">
        <ele>40.9934</ele>
        <time>2012-05-13T09:18:46Z</time>
      </trkpt>
      <trkpt lat="60.0052613" lon="17.3639971">
        <ele>41.9547</ele>
        <time>2012-05-13T09:18:54Z</time>
      </trkpt>
      <trkpt lat="60.0046815" lon="17.3639768">
        <ele>42.4354</ele>
        <time>2012-05-13T09:19:03Z</time>
      </trkpt>
      <trkpt lat="60.0040994" lon="17.363989">
        <ele>42.916</ele>
        <time>2012-05-13T09:19:13Z</time>
      </trkpt>
      <trkpt lat="60.0036535" lon="17.3639955">
        <ele>43.8773</ele>
        <time>2012-05-13T09:19:21Z</time>
      </trkpt>
      <trkpt lat="60.0031528" lon="17.3639846">
        <ele>42.4354</ele>
        <time>2012-05-13T09:19:29Z</time>
      </trkpt>
      <trkpt lat="60.0027084" lon="17.3639258">
        <ele>40.5128</ele>
        <time>2012-05-13T09:19:36Z</time>
      </trkpt>
      <trkpt lat="60.002318" lon="17.3638333">
        <ele>40.0321</ele>
        <time>2012-05-13T09:19:42Z</time>
      </trkpt>
      <trkpt lat="60.0018352" lon="17.3635765">
        <ele>42.4354</ele>
        <time>2012-05-13T09:19:49Z</time>
      </trkpt>
      <trkpt lat="60.0016455" lon="17.3634496">
        <ele>43.3966</ele>
        <time>2012-05-13T09:19:52Z</time>
      </trkpt>
      <trkpt lat="60.0014729" lon="17.363077">
        <ele>41.474</ele>
        <time>2012-05-13T09:19:56Z</time>
      </trkpt>
      <trkpt lat="60.0014296" lon="17.3626941">
        <ele>39.0707</ele>
        <time>2012-05-13T09:19:59Z</time>
      </trkpt>
      <trkpt lat="60.0013597" lon="17.3616252">
        <ele>40.0321</ele>
        <time>2012-05-13T09:20:07Z</time>
      </trkpt>
      <trkpt lat="60.0012851" lon="17.3607761">
        <ele>40.9934</ele>
        <time>2012-05-13T09:20:14Z</time>
      </trkpt>
      <trkpt lat="60.001168" lon="17.3603621">
        <ele>40.5128</ele>
        <time>2012-05-13T09:20:18Z</time>
      </trkpt>
      <trkpt lat="60.0009302" lon="17.3601456">
        <ele>42.4354</ele>
        <time>2012-05-13T09:20:22Z</time>
      </trkpt>
      <trkpt lat="60.0003597" lon="17.3598732">
        <ele>46.2806</ele>
        <time>2012-05-13T09:20:31Z</time>
      </trkpt>
      <trkpt lat="59.9999653" lon="17.3599168">
        <ele>47.2418</ele>
        <time>2012-05-13T09:20:37Z</time>
      </trkpt>
      <trkpt lat="59.9993898" lon="17.3601734">
        <ele>49.6453</ele>
        <time>2012-05-13T09:20:46Z</time>
      </trkpt>
      <trkpt lat="59.9990849" lon="17.3604005">
        <ele>49.1646</ele>
        <time>2012-05-13T09:20:51Z</time>
      </trkpt>
      <trkpt lat="59.9985918" lon="17.3608024">
        <ele>46.2806</ele>
        <time>2012-05-13T09:20:58Z</time>
      </trkpt>
      <trkpt lat="59.9980377" lon="17.3612353">
        <ele>42.4354</ele>
        <time>2012-05-13T09:21:06Z</time>
      </trkpt>
      <trkpt lat="59.9978502" lon="17.3613971">
        <ele>42.4354</ele>
        <time>2012-05-13T09:21:09Z</time>
      </trkpt>
      <trkpt lat="59.9976809" lon="17.3617758">
        <ele>41.9547</ele>
        <time>2012-05-13T09:21:13Z</time>
      </trkpt>
      <trkpt lat="59.9975196" lon="17.3624278">
        <ele>42.4354</ele>
        <time>2012-05-13T09:21:19Z</time>
      </trkpt>
      <trkpt lat="59.9971602" lon="17.3631409">
        <ele>42.916</ele>
        <time>2012-05-13T09:21:27Z</time>
      </trkpt>
      <trkpt lat="59.9969707" lon="17.3635178">
        <ele>43.8773</ele>
        <time>2012-05-13T09:21:32Z</time>
      </trkpt>
      <trkpt lat="59.9969017" lon="17.3636665">
        <ele>44.358</ele>
        <time>2012-05-13T09:21:34Z</time>
      </trkpt>
      <trkpt lat="59.9968407" lon="17.3638272">
        <ele>45.3192</ele>
        <time>2012-05-13T09:21:36Z</time>
      </trkpt>
      <trkpt lat="59.996582" lon="17.3643555">
        <ele>44.358</ele>
        <time>2012-05-13T09:21:43Z</time>
      </trkpt>
      <trkpt lat="59.9964607" lon="17.3646013">
        <ele>44.8386</ele>
        <time>2012-05-13T09:21:46Z</time>
      </trkpt>
      <trkpt lat="59.9961127" lon="17.3652893">
        <ele>43.8773</ele>
        <time>2012-05-13T09:21:54Z</time>
      </trkpt>
      <trkpt lat="59.9957725" lon="17.3658747">
        <ele>43.3966</ele>
        <time>2012-05-13T09:22:02Z</time>
      </trkpt>
      <trkpt lat="59.9954807" lon="17.3663622">
        <ele>44.358</ele>
        <time>2012-05-13T09:22:09Z</time>
      </trkpt>
      <trkpt lat="59.9952625" lon="17.3666808">
        <ele>45.7999</ele>
        <time>2012-05-13T09:22:14Z</time>
      </trkpt>
      <trkpt lat="59.9950229" lon="17.3669351">
        <ele>45.3192</ele>
        <time>2012-05-13T09:22:19Z</time>
      </trkpt>
      <trkpt lat="59.9949783" lon="17.366991">
        <ele>44.358</ele>
        <time>2012-05-13T09:22:20Z</time>
      </trkpt>
      <trkpt lat="59.9946002" lon="17.36742">
        <ele>43.3966</ele>
        <time>2012-05-13T09:22:28Z</time>
      </trkpt>
      <trkpt lat="59.9942242" lon="17.3678439">
        <ele>43.8773</ele>
        <time>2012-05-13T09:22:35Z</time>
      </trkpt>
      <trkpt lat="59.9939003" lon="17.3679589">
        <ele>42.916</ele>
        <time>2012-05-13T09:22:40Z</time>
      </trkpt>
      <trkpt lat="59.9936319" lon="17.3679062">
        <ele>45.3192</ele>
        <time>2012-05-13T09:22:44Z</time>
      </trkpt>
      <trkpt lat="59.9933041" lon="17.3678857">
        <ele>46.7612</ele>
        <time>2012-05-13T09:22:49Z</time>
      </trkpt>
      <trkpt lat="59.9930659" lon="17.3680458">
        <ele>47.2418</ele>
        <time>2012-05-13T09:22:53Z</time>
      </trkpt>
      <trkpt lat="59.9929045" lon="17.3682618">
        <ele>49.1646</ele>
        <time>2012-05-13T09:22:56Z</time>
      </trkpt>
      <trkpt lat="59.992638" lon="17.3688077">
        <ele>52.0486</ele>
        <time>2012-05-13T09:23:02Z</time>
      </trkpt>
      <trkpt lat="59.9923784" lon="17.3695458">
        <ele>51.0872</ele>
        <time>2012-05-13T09:23:08Z</time>
      </trkpt>
      <trkpt lat="59.992161" lon="17.3701606">
        <ele>49.6453</ele>
        <time>2012-05-13T09:23:13Z</time>
      </trkpt>
      <trkpt lat="59.9919201" lon="17.3707954">
        <ele>49.1646</ele>
        <time>2012-05-13T09:23:19Z</time>
      </trkpt>
      <trkpt lat="59.9917169" lon="17.3713522">
        <ele>48.684</ele>
        <time>2012-05-13T09:23:24Z</time>
      </trkpt>
      <trkpt lat="59.991371" lon="17.3721889">
        <ele>48.2034</ele>
        <time>2012-05-13T09:23:32Z</time>
      </trkpt>
      <trkpt lat="59.9913185" lon="17.3722794">
        <ele>48.2034</ele>
        <time>2012-05-13T09:23:33Z</time>
      </trkpt>
      <trkpt lat="59.9908716" lon="17.3727958">
        <ele>46.7612</ele>
        <time>2012-05-13T09:23:40Z</time>
      </trkpt>
      <trkpt lat="59.9903453" lon="17.3734511">
        <ele>44.8386</ele>
        <time>2012-05-13T09:23:48Z</time>
      </trkpt>
      <trkpt lat="59.9898226" lon="17.3740003">
        <ele>44.8386</ele>
        <time>2012-05-13T09:23:56Z</time>
      </trkpt>
      <trkpt lat="59.989172" lon="17.3746345">
        <ele>46.7612</ele>
        <time>2012-05-13T09:24:06Z</time>
      </trkpt>
      <trkpt lat="59.9886734" lon="17.3751253">
        <ele>47.7225</ele>
        <time>2012-05-13T09:24:14Z</time>
      </trkpt>
      <trkpt lat="59.9886249" lon="17.3751874">
        <ele>47.7225</ele>
        <time>2012-05-13T09:24:15Z</time>
      </trkpt>
      <trkpt lat="59.9884228" lon="17.3755196">
        <ele>49.6453</ele>
        <time>2012-05-13T09:24:20Z</time>
      </trkpt>
      <trkpt lat="59.9882002" lon="17.3761832">
        <ele>48.684</ele>
        <time>2012-05-13T09:24:27Z</time>
      </trkpt>
      <trkpt lat="59.9879339" lon="17.3770162">
        <ele>46.7612</ele>
        <time>2012-05-13T09:24:34Z</time>
      </trkpt>
      <trkpt lat="59.9875656" lon="17.3781395">
        <ele>46.7612</ele>
        <time>2012-05-13T09:24:43Z</time>
      </trkpt>
      <trkpt lat="59.9872126" lon="17.3792074">
        <ele>46.7612</ele>
        <time>2012-05-13T09:24:52Z</time>
      </trkpt>
      <trkpt lat="59.9869034" lon="17.3801491">
        <ele>47.7225</ele>
        <time>2012-05-13T09:25:00Z</time>
      </trkpt>
      <trkpt lat="59.9866171" lon="17.3811101">
        <ele>46.7612</ele>
        <time>2012-05-13T09:25:08Z</time>
      </trkpt>
      <trkpt lat="59.9863312" lon="17.3823024">
        <ele>46.7612</ele>
        <time>2012-05-13T09:25:16Z</time>
      </trkpt>
      <trkpt lat="59.9860467" lon="17.3835616">
        <ele>47.7225</ele>
        <time>2012-05-13T09:25:25Z</time>
      </trkpt>
      <trkpt lat="59.985979" lon="17.3842108">
        <ele>48.684</ele>
        <time>2012-05-13T09:25:30Z</time>
      </trkpt>
      <trkpt lat="59.9859106" lon="17.3851292">
        <ele>48.2034</ele>
        <time>2012-05-13T09:25:37Z</time>
      </trkpt>
      <trkpt lat="59.9857361" lon="17.3862624">
        <ele>48.684</ele>
        <time>2012-05-13T09:25:46Z</time>
      </trkpt>
      <trkpt lat="59.9856831" lon="17.3864833">
        <ele>49.1646</ele>
        <time>2012-05-13T09:25:48Z</time>
      </trkpt>
      <trkpt lat="59.9854512" lon="17.3870151">
        <ele>49.1646</ele>
        <time>2012-05-13T09:25:54Z</time>
      </trkpt>
      <trkpt lat="59.9850513" lon="17.3876134">
        <ele>50.6066</ele>
        <time>2012-05-13T09:26:03Z</time>
      </trkpt>
      <trkpt lat="59.9847367" lon="17.3877507">
        <ele>50.6066</ele>
        <time>2012-05-13T09:26:08Z</time>
      </trkpt>
      <trkpt lat="59.9843621" lon="17.3877141">
        <ele>48.2034</ele>
        <time>2012-05-13T09:26:13Z</time>
      </trkpt>
      <trkpt lat="59.9839975" lon="17.3874116">
        <ele>46.2806</ele>
        <time>2012-05-13T09:26:18Z</time>
      </trkpt>
      <trkpt lat="59.9834018" lon="17.3867599">
        <ele>43.8773</ele>
        <time>2012-05-13T09:26:27Z</time>
      </trkpt>
      <trkpt lat="59.9830054" lon="17.3863496">
        <ele>46.7612</ele>
        <time>2012-05-13T09:26:34Z</time>
      </trkpt>
      <trkpt lat="59.9826558" lon="17.3859574">
        <ele>48.2034</ele>
        <time>2012-05-13T09:26:41Z</time>
      </trkpt>
      <trkpt lat="59.9822886" lon="17.3855617">
        <ele>45.3192</ele>
        <time>2012-05-13T09:26:48Z</time>
      </trkpt>
      <trkpt lat="59.9818539" lon="17.3852301">
        <ele>44.358</ele>
        <time>2012-05-13T09:26:55Z</time>
      </trkpt>
      <trkpt lat="59.9813692" lon="17.3850123">
        <ele>44.8386</ele>
        <time>2012-05-13T09:27:03Z</time>
      </trkpt>
      <trkpt lat="59.9810531" lon="17.3848428">
        <ele>44.8386</ele>
        <time>2012-05-13T09:27:09Z</time>
      </trkpt>
      <trkpt lat="59.9807398" lon="17.3844868">
        <ele>44.8386</ele>
        <time>2012-05-13T09:27:16Z</time>
      </trkpt>
      <trkpt lat="59.9805181" lon="17.38426">
        <ele>43.3966</ele>
        <time>2012-05-13T09:27:21Z</time>
      </trkpt>
      <trkpt lat="59.9802403" lon="17.3839279">
        <ele>42.916</ele>
        <time>2012-05-13T09:27:27Z</time>
      </trkpt>
      <trkpt lat="59.9801922" lon="17.3838751">
        <ele>42.916</ele>
        <time>2012-05-13T09:27:28Z</time>
      </trkpt>
      <trkpt lat="59.9797929" lon="17.3834217">
        <ele>42.4354</ele>
        <time>2012-05-13T09:27:36Z</time>
      </trkpt>
      <trkpt lat="59.9796479" lon="17.3832367">
        <ele>43.3966</ele>
        <time>2012-05-13T09:27:39Z</time>
      </trkpt>
      <trkpt lat="59.979297" lon="17.382809">
        <ele>45.7999</ele>
        <time>2012-05-13T09:27:46Z</time>
      </trkpt>
      <trkpt lat="59.9788749" lon="17.3823056">
        <ele>46.7612</ele>
        <time>2012-05-13T09:27:54Z</time>
      </trkpt>
      <trkpt lat="59.9787133" lon="17.3821072">
        <ele>46.7612</ele>
        <time>2012-05-13T09:27:57Z</time>
      </trkpt>
      <trkpt lat="59.9782772" lon="17.3815642">
        <ele>46.7612</ele>
        <time>2012-05-13T09:28:05Z</time>
      </trkpt>
      <trkpt lat="59.9778945" lon="17.3810178">
        <ele>44.358</ele>
        <time>2012-05-13T09:28:12Z</time>
      </trkpt>
      <trkpt lat="59.9775165" lon="17.3804082">
        <ele>45.3192</ele>
        <time>2012-05-13T09:28:18Z</time>
      </trkpt>
      <trkpt lat="59.9770297" lon="17.3796761">
        <ele>46.7612</ele>
        <time>2012-05-13T09:28:26Z</time>
      </trkpt>
      <trkpt lat="59.9766734" lon="17.3791452">
        <ele>44.8386</ele>
        <time>2012-05-13T09:28:32Z</time>
      </trkpt>
      <trkpt lat="59.9765178" lon="17.3788131">
        <ele>44.8386</ele>
        <time>2012-05-13T09:28:35Z</time>
      </trkpt>
      <trkpt lat="59.9763158" lon="17.3780672">
        <ele>44.358</ele>
        <time>2012-05-13T09:28:41Z</time>
      </trkpt>
      <trkpt lat="59.9760549" lon="17.3772664">
        <ele>43.3966</ele>
        <time>2012-05-13T09:28:48Z</time>
      </trkpt>
      <trkpt lat="59.975815" lon="17.3768017">
        <ele>42.916</ele>
        <time>2012-05-13T09:28:53Z</time>
      </trkpt>
      <trkpt lat="59.9754639" lon="17.3763821">
        <ele>42.916</ele>
        <time>2012-05-13T09:28:59Z</time>
      </trkpt>
      <trkpt lat="59.9750623" lon="17.3759593">
        <ele>43.8773</ele>
        <time>2012-05-13T09:29:06Z</time>
      </trkpt>
      <trkpt lat="59.9747488" lon="17.3758905">
        <ele>45.3192</ele>
        <time>2012-05-13T09:29:11Z</time>
      </trkpt>
      <trkpt lat="59.9746879" lon="17.3759158">
        <ele>45.3192</ele>
        <time>2012-05-13T09:29:12Z</time>
      </trkpt>
      <trkpt lat="59.974259" lon="17.3760911">
        <ele>45.7999</ele>
        <time>2012-05-13T09:29:19Z</time>
      </trkpt>
      <trkpt lat="59.9739526" lon="17.3759797">
        <ele>45.3192</ele>
        <time>2012-05-13T09:29:24Z</time>
      </trkpt>
      <trkpt lat="59.9738149" lon="17.3757085">
        <ele>45.7999</ele>
        <time>2012-05-13T09:29:27Z</time>
      </trkpt>
      <trkpt lat="59.9737675" lon="17.3754657">
        <ele>46.2806</ele>
        <time>2012-05-13T09:29:29Z</time>
      </trkpt>
      <trkpt lat="59.9736402" lon="17.3743531">
        <ele>44.358</ele>
        <time>2012-05-13T09:29:38Z</time>
      </trkpt>
      <trkpt lat="59.9735181" lon="17.3737206">
        <ele>43.8773</ele>
        <time>2012-05-13T09:29:44Z</time>
      </trkpt>
      <trkpt lat="59.9733135" lon="17.3732793">
        <ele>42.916</ele>
        <time>2012-05-13T09:29:49Z</time>
      </trkpt>
      <trkpt lat="59.9728116" lon="17.3727561">
        <ele>42.4354</ele>
        <time>2012-05-13T09:29:57Z</time>
      </trkpt>
      <trkpt lat="59.9724998" lon="17.3724345">
        <ele>42.4354</ele>
        <time>2012-05-13T09:30:02Z</time>
      </trkpt>
      <trkpt lat="59.9720427" lon="17.3722127">
        <ele>45.7999</ele>
        <time>2012-05-13T09:30:09Z</time>
      </trkpt>
      <trkpt lat="59.9715463" lon="17.3721013">
        <ele>45.3192</ele>
        <time>2012-05-13T09:30:16Z</time>
      </trkpt>
      <trkpt lat="59.9709769" lon="17.3719789">
        <ele>44.358</ele>
        <time>2012-05-13T09:30:24Z</time>
      </trkpt>
      <trkpt lat="59.9706" lon="17.3718552">
        <ele>44.8386</ele>
        <time>2012-05-13T09:30:30Z</time>
      </trkpt>
      <trkpt lat="59.9702466" lon="17.3717655">
        <ele>42.916</ele>
        <time>2012-05-13T09:30:36Z</time>
      </trkpt>
      <trkpt lat="59.970134" lon="17.3717168">
        <ele>40.9934</ele>
        <time>2012-05-13T09:30:38Z</time>
      </trkpt>
      <trkpt lat="59.9699507" lon="17.371589">
        <ele>40.5128</ele>
        <time>2012-05-13T09:30:42Z</time>
      </trkpt>
      <trkpt lat="59.9698247" lon="17.3716238">
        <ele>39.5513</ele>
        <time>2012-05-13T09:30:47Z</time>
      </trkpt>
      <trkpt lat="59.969683" lon="17.3718367">
        <ele>38.5901</ele>
        <time>2012-05-13T09:30:51Z</time>
      </trkpt>
      <trkpt lat="59.9694659" lon="17.372512">
        <ele>38.5901</ele>
        <time>2012-05-13T09:30:58Z</time>
      </trkpt>
      <trkpt lat="59.9691809" lon="17.373426">
        <ele>39.0707</ele>
        <time>2012-05-13T09:31:06Z</time>
      </trkpt>
      <trkpt lat="59.9688281" lon="17.3745277">
        <ele>40.9934</ele>
        <time>2012-05-13T09:31:15Z</time>
      </trkpt>
      <trkpt lat="59.9683824" lon="17.3758688">
        <ele>42.4354</ele>
        <time>2012-05-13T09:31:26Z</time>
      </trkpt>
      <trkpt lat="59.9680302" lon="17.3768782">
        <ele>38.5901</ele>
        <time>2012-05-13T09:31:35Z</time>
      </trkpt>
      <trkpt lat="59.9676497" lon="17.3779446">
        <ele>33.7834</ele>
        <time>2012-05-13T09:31:45Z</time>
      </trkpt>
      <trkpt lat="59.9673452" lon="17.3788079">
        <ele>30.8995</ele>
        <time>2012-05-13T09:31:53Z</time>
      </trkpt>
      <trkpt lat="59.9670213" lon="17.3796803">
        <ele>28.9769</ele>
        <time>2012-05-13T09:32:01Z</time>
      </trkpt>
      <trkpt lat="59.9665821" lon="17.3808768">
        <ele>28.9769</ele>
        <time>2012-05-13T09:32:12Z</time>
      </trkpt>
      <trkpt lat="59.9661278" lon="17.3820375">
        <ele>30.4188</ele>
        <time>2012-05-13T09:32:23Z</time>
      </trkpt>
      <trkpt lat="59.9657434" lon="17.3830111">
        <ele>30.8995</ele>
        <time>2012-05-13T09:32:32Z</time>
      </trkpt>
      <trkpt lat="59.9653476" lon="17.3839824">
        <ele>31.3801</ele>
        <time>2012-05-13T09:32:41Z</time>
      </trkpt>
      <trkpt lat="59.9649372" lon="17.3849836">
        <ele>34.7449</ele>
        <time>2012-05-13T09:32:50Z</time>
      </trkpt>
      <trkpt lat="59.9645999" lon="17.385754">
        <ele>34.7449</ele>
        <time>2012-05-13T09:32:57Z</time>
      </trkpt>
      <trkpt lat="59.9640959" lon="17.3868936">
        <ele>35.2255</ele>
        <time>2012-05-13T09:33:07Z</time>
      </trkpt>
      <trkpt lat="59.9635724" lon="17.3880732">
        <ele>36.6675</ele>
        <time>2012-05-13T09:33:17Z</time>
      </trkpt>
      <trkpt lat="59.9630347" lon="17.389237">
        <ele>36.1868</ele>
        <time>2012-05-13T09:33:27Z</time>
      </trkpt>
      <trkpt lat="59.9626492" lon="17.3900432">
        <ele>36.1868</ele>
        <time>2012-05-13T09:33:34Z</time>
      </trkpt>
      <trkpt lat="59.9622273" lon="17.3908968">
        <ele>35.2255</ele>
        <time>2012-05-13T09:33:42Z</time>
      </trkpt>
      <trkpt lat="59.9617903" lon="17.3917563">
        <ele>34.7449</ele>
        <time>2012-05-13T09:33:50Z</time>
      </trkpt>
      <trkpt lat="59.9613228" lon="17.3927301">
        <ele>35.2255</ele>
        <time>2012-05-13T09:33:59Z</time>
      </trkpt>
      <trkpt lat="59.9608725" lon="17.3935701">
        <ele>36.1868</ele>
        <time>2012-05-13T09:34:07Z</time>
      </trkpt>
      <trkpt lat="59.9605501" lon="17.3941727">
        <ele>36.1868</ele>
        <time>2012-05-13T09:34:13Z</time>
      </trkpt>
      <trkpt lat="59.9601167" lon="17.3949339">
        <ele>36.1868</ele>
        <time>2012-05-13T09:34:21Z</time>
      </trkpt>
      <trkpt lat="59.9595599" lon="17.3959218">
        <ele>34.7449</ele>
        <time>2012-05-13T09:34:31Z</time>
      </trkpt>
      <trkpt lat="59.9591779" lon="17.3966071">
        <ele>33.3029</ele>
        <time>2012-05-13T09:34:38Z</time>
      </trkpt>
      <trkpt lat="59.9587451" lon="17.3973769">
        <ele>30.4188</ele>
        <time>2012-05-13T09:34:46Z</time>
      </trkpt>
      <trkpt lat="59.958115" lon="17.3984608">
        <ele>28.4962</ele>
        <time>2012-05-13T09:34:57Z</time>
      </trkpt>
      <trkpt lat="59.9575443" lon="17.399407">
        <ele>28.0155</ele>
        <time>2012-05-13T09:35:07Z</time>
      </trkpt>
      <trkpt lat="59.9569145" lon="17.4004064">
        <ele>27.5349</ele>
        <time>2012-05-13T09:35:18Z</time>
      </trkpt>
      <trkpt lat="59.9563498" lon="17.4012671">
        <ele>27.0543</ele>
        <time>2012-05-13T09:35:28Z</time>
      </trkpt>
      <trkpt lat="59.9558924" lon="17.4019623">
        <ele>26.0929</ele>
        <time>2012-05-13T09:35:36Z</time>
      </trkpt>
      <trkpt lat="59.9553055" lon="17.4028576">
        <ele>26.0929</ele>
        <time>2012-05-13T09:35:46Z</time>
      </trkpt>
      <trkpt lat="59.9546408" lon="17.4038929">
        <ele>30.4188</ele>
        <time>2012-05-13T09:35:57Z</time>
      </trkpt>
      <trkpt lat="59.9540986" lon="17.4047494">
        <ele>34.2642</ele>
        <time>2012-05-13T09:36:06Z</time>
      </trkpt>
      <trkpt lat="59.9535194" lon="17.4056746">
        <ele>38.5901</ele>
        <time>2012-05-13T09:36:16Z</time>
      </trkpt>
      <trkpt lat="59.9529776" lon="17.4064738">
        <ele>39.0707</ele>
        <time>2012-05-13T09:36:25Z</time>
      </trkpt>
      <trkpt lat="59.9524476" lon="17.4073079">
        <ele>39.5513</ele>
        <time>2012-05-13T09:36:34Z</time>
      </trkpt>
      <trkpt lat="59.9520255" lon="17.4079446">
        <ele>40.0321</ele>
        <time>2012-05-13T09:36:41Z</time>
      </trkpt>
      <trkpt lat="59.9516991" lon="17.408463">
        <ele>37.6287</ele>
        <time>2012-05-13T09:36:47Z</time>
      </trkpt>
      <trkpt lat="59.9513094" lon="17.4090873">
        <ele>36.6675</ele>
        <time>2012-05-13T09:36:54Z</time>
      </trkpt>
      <trkpt lat="59.9509184" lon="17.4097767">
        <ele>36.1868</ele>
        <time>2012-05-13T09:37:01Z</time>
      </trkpt>
      <trkpt lat="59.950465" lon="17.4105427">
        <ele>37.1481</ele>
        <time>2012-05-13T09:37:09Z</time>
      </trkpt>
      <trkpt lat="59.9499394" lon="17.4114528">
        <ele>37.6287</ele>
        <time>2012-05-13T09:37:18Z</time>
      </trkpt>
      <trkpt lat="59.9493317" lon="17.412691">
        <ele>37.1481</ele>
        <time>2012-05-13T09:37:29Z</time>
      </trkpt>
      <trkpt lat="59.9486162" lon="17.4142839">
        <ele>36.1868</ele>
        <time>2012-05-13T09:37:42Z</time>
      </trkpt>
      <trkpt lat="59.9481049" lon="17.4155404">
        <ele>35.7061</ele>
        <time>2012-05-13T09:37:52Z</time>
      </trkpt>
      <trkpt lat="59.9475182" lon="17.4171102">
        <ele>35.2255</ele>
        <time>2012-05-13T09:38:05Z</time>
      </trkpt>
      <trkpt lat="59.9470567" lon="17.4184974">
        <ele>32.8223</ele>
        <time>2012-05-13T09:38:16Z</time>
      </trkpt>
      <trkpt lat="59.9467525" lon="17.4194779">
        <ele>31.3801</ele>
        <time>2012-05-13T09:38:24Z</time>
      </trkpt>
      <trkpt lat="59.9463532" lon="17.420901">
        <ele>29.9381</ele>
        <time>2012-05-13T09:38:35Z</time>
      </trkpt>
      <trkpt lat="59.9459822" lon="17.422338">
        <ele>28.9769</ele>
        <time>2012-05-13T09:38:45Z</time>
      </trkpt>
      <trkpt lat="59.9456678" lon="17.4236967">
        <ele>24.651</ele>
        <time>2012-05-13T09:38:54Z</time>
      </trkpt>
      <trkpt lat="59.9454099" lon="17.4248777">
        <ele>22.2476</ele>
        <time>2012-05-13T09:39:02Z</time>
      </trkpt>
      <trkpt lat="59.9450896" lon="17.4262587">
        <ele>24.1703</ele>
        <time>2012-05-13T09:39:11Z</time>
      </trkpt>
      <trkpt lat="59.9446723" lon="17.4280635">
        <ele>25.1317</ele>
        <time>2012-05-13T09:39:23Z</time>
      </trkpt>
      <trkpt lat="59.9444652" lon="17.4289884">
        <ele>25.6123</ele>
        <time>2012-05-13T09:39:30Z</time>
      </trkpt>
      <trkpt lat="59.9441565" lon="17.4302566">
        <ele>26.0929</ele>
        <time>2012-05-13T09:39:40Z</time>
      </trkpt>
      <trkpt lat="59.9438973" lon="17.4312932">
        <ele>26.5736</ele>
        <time>2012-05-13T09:39:48Z</time>
      </trkpt>
      <trkpt lat="59.9435941" lon="17.4324344">
        <ele>27.0543</ele>
        <time>2012-05-13T09:39:57Z</time>
      </trkpt>
      <trkpt lat="59.9433016" lon="17.4334979">
        <ele>27.0543</ele>
        <time>2012-05-13T09:40:06Z</time>
      </trkpt>
      <trkpt lat="59.9430368" lon="17.4344162">
        <ele>28.4962</ele>
        <time>2012-05-13T09:40:14Z</time>
      </trkpt>
      <trkpt lat="59.9426158" lon="17.4357823">
        <ele>29.9381</ele>
        <time>2012-05-13T09:40:27Z</time>
      </trkpt>
      <trkpt lat="59.9422703" lon="17.43684">
        <ele>32.3416</ele>
        <time>2012-05-13T09:40:37Z</time>
      </trkpt>
      <trkpt lat="59.9419414" lon="17.4378321">
        <ele>33.7834</ele>
        <time>2012-05-13T09:40:47Z</time>
      </trkpt>
      <trkpt lat="59.9416593" lon="17.4387071">
        <ele>32.8223</ele>
        <time>2012-05-13T09:40:56Z</time>
      </trkpt>
      <trkpt lat="59.9413367" lon="17.4396836">
        <ele>32.3416</ele>
        <time>2012-05-13T09:41:06Z</time>
      </trkpt>
      <trkpt lat="59.9411172" lon="17.4403682">
        <ele>30.8995</ele>
        <time>2012-05-13T09:41:13Z</time>
      </trkpt>
      <trkpt lat="59.9407162" lon="17.4416426">
        <ele>29.4575</ele>
        <time>2012-05-13T09:41:26Z</time>
      </trkpt>
      <trkpt lat="59.9403748" lon="17.4427568">
        <ele>30.4188</ele>
        <time>2012-05-13T09:41:37Z</time>
      </trkpt>
      <trkpt lat="59.9400101" lon="17.4439762">
        <ele>31.8607</ele>
        <time>2012-05-13T09:41:48Z</time>
      </trkpt>
      <trkpt lat="59.9396766" lon="17.4451412">
        <ele>32.8223</ele>
        <time>2012-05-13T09:41:58Z</time>
      </trkpt>
      <trkpt lat="59.9393117" lon="17.4464422">
        <ele>33.7834</ele>
        <time>2012-05-13T09:42:09Z</time>
      </trkpt>
      <trkpt lat="59.9388535" lon="17.4481349">
        <ele>34.7449</ele>
        <time>2012-05-13T09:42:23Z</time>
      </trkpt>
      <trkpt lat="59.9384985" lon="17.4494853">
        <ele>34.7449</ele>
        <time>2012-05-13T09:42:34Z</time>
      </trkpt>
      <trkpt lat="59.9381529" lon="17.4508467">
        <ele>34.2642</ele>
        <time>2012-05-13T09:42:45Z</time>
      </trkpt>
      <trkpt lat="59.9379246" lon="17.4517852">
        <ele>34.2642</ele>
        <time>2012-05-13T09:42:53Z</time>
      </trkpt>
      <trkpt lat="59.9376257" lon="17.4530517">
        <ele>34.7449</ele>
        <time>2012-05-13T09:43:04Z</time>
      </trkpt>
      <trkpt lat="59.9373455" lon="17.4542862">
        <ele>33.7834</ele>
        <time>2012-05-13T09:43:14Z</time>
      </trkpt>
      <trkpt lat="59.9370525" lon="17.4556253">
        <ele>32.8223</ele>
        <time>2012-05-13T09:43:24Z</time>
      </trkpt>
      <trkpt lat="59.9368204" lon="17.4567232">
        <ele>32.3416</ele>
        <time>2012-05-13T09:43:32Z</time>
      </trkpt>
      <trkpt lat="59.9366798" lon="17.4574085">
        <ele>32.3416</ele>
        <time>2012-05-13T09:43:37Z</time>
      </trkpt>
      <trkpt lat="59.9366856" lon="17.457945">
        <ele>31.8607</ele>
        <time>2012-05-13T09:43:41Z</time>
      </trkpt>
      <trkpt lat="59.9368504" lon="17.4582328">
        <ele>31.8607</ele>
        <time>2012-05-13T09:43:44Z</time>
      </trkpt>
      <trkpt lat="59.9369183" lon="17.4582954">
        <ele>31.8607</ele>
        <time>2012-05-13T09:43:45Z</time>
      </trkpt>
      <trkpt lat="59.9376481" lon="17.4589232">
        <ele>31.3801</ele>
        <time>2012-05-13T09:43:55Z</time>
      </trkpt>
      <trkpt lat="59.9382874" lon="17.4596622">
        <ele>32.8223</ele>
        <time>2012-05-13T09:44:04Z</time>
      </trkpt>
      <trkpt lat="59.9388443" lon="17.4603121">
        <ele>32.3416</ele>
        <time>2012-05-13T09:44:12Z</time>
      </trkpt>
      <trkpt lat="59.9393378" lon="17.4609188">
        <ele>32.8223</ele>
        <time>2012-05-13T09:44:20Z</time>
      </trkpt>
      <trkpt lat="59.9399936" lon="17.4616969">
        <ele>35.7061</ele>
        <time>2012-05-13T09:44:31Z</time>
      </trkpt>
      <trkpt lat="59.9402122" lon="17.4619713">
        <ele>37.6287</ele>
        <time>2012-05-13T09:44:35Z</time>
      </trkpt>
      <trkpt lat="59.9405418" lon="17.4626334">
        <ele>37.6287</ele>
        <time>2012-05-13T09:44:42Z</time>
      </trkpt>
      <trkpt lat="59.9407666" lon="17.4630783">
        <ele>36.6675</ele>
        <time>2012-05-13T09:44:47Z</time>
      </trkpt>
      <trkpt lat="59.9409862" lon="17.4633015">
        <ele>37.1481</ele>
        <time>2012-05-13T09:44:51Z</time>
      </trkpt>
      <trkpt lat="59.9414929" lon="17.4634985">
        <ele>36.1868</ele>
        <time>2012-05-13T09:44:59Z</time>
      </trkpt>
      <trkpt lat="59.9416923" lon="17.4635674">
        <ele>37.1481</ele>
        <time>2012-05-13T09:45:02Z</time>
      </trkpt>
      <trkpt lat="59.9418213" lon="17.4636606">
        <ele>37.6287</ele>
        <time>2012-05-13T09:45:04Z</time>
      </trkpt>
      <trkpt lat="59.942044" lon="17.4640315">
        <ele>34.2642</ele>
        <time>2012-05-13T09:45:08Z</time>
      </trkpt>
      <trkpt lat="59.942085" lon="17.4641719">
        <ele>34.2642</ele>
        <time>2012-05-13T09:45:09Z</time>
      </trkpt>
      <trkpt lat="59.9424428" lon="17.4655595">
        <ele>31.8607</ele>
        <time>2012-05-13T09:45:19Z</time>
      </trkpt>
      <trkpt lat="59.942794" lon="17.4667691">
        <ele>30.8995</ele>
        <time>2012-05-13T09:45:28Z</time>
      </trkpt>
      <trkpt lat="59.9428501" lon="17.4674079">
        <ele>30.8995</ele>
        <time>2012-05-13T09:45:32Z</time>
      </trkpt>
      <trkpt lat="59.9428131" lon="17.4689631">
        <ele>29.9381</ele>
        <time>2012-05-13T09:45:42Z</time>
      </trkpt>
      <trkpt lat="59.942813" lon="17.4698451">
        <ele>28.4962</ele>
        <time>2012-05-13T09:45:48Z</time>
      </trkpt>
      <trkpt lat="59.9428065" lon="17.4704929">
        <ele>28.0155</ele>
        <time>2012-05-13T09:45:53Z</time>
      </trkpt>
      <trkpt lat="59.9428934" lon="17.471113">
        <ele>28.4962</ele>
        <time>2012-05-13T09:45:58Z</time>
      </trkpt>
      <trkpt lat="59.9430798" lon="17.4714556">
        <ele>29.4575</ele>
        <time>2012-05-13T09:46:02Z</time>
      </trkpt>
      <trkpt lat="59.9432001" lon="17.4715342">
        <ele>29.4575</ele>
        <time>2012-05-13T09:46:04Z</time>
      </trkpt>
      <trkpt lat="59.9437663" lon="17.4717204">
        <ele>30.8995</ele>
        <time>2012-05-13T09:46:13Z</time>
      </trkpt>
      <trkpt lat="59.944202" lon="17.471727">
        <ele>30.8995</ele>
        <time>2012-05-13T09:46:21Z</time>
      </trkpt>
      <trkpt lat="59.9446033" lon="17.4716385">
        <ele>30.4188</ele>
        <time>2012-05-13T09:46:28Z</time>
      </trkpt>
      <trkpt lat="59.9451235" lon="17.4716859">
        <ele>34.2642</ele>
        <time>2012-05-13T09:46:37Z</time>
      </trkpt>
      <trkpt lat="59.9452297" lon="17.4717374">
        <ele>35.7061</ele>
        <time>2012-05-13T09:46:39Z</time>
      </trkpt>
      <trkpt lat="59.9454429" lon="17.4720001">
        <ele>37.6287</ele>
        <time>2012-05-13T09:46:44Z</time>
      </trkpt>
      <trkpt lat="59.9455245" lon="17.4723474">
        <ele>37.6287</ele>
        <time>2012-05-13T09:46:48Z</time>
      </trkpt>
      <trkpt lat="59.9455336" lon="17.4724415">
        <ele>37.6287</ele>
        <time>2012-05-13T09:46:49Z</time>
      </trkpt>
      <trkpt lat="59.9456011" lon="17.4734049">
        <ele>37.1481</ele>
        <time>2012-05-13T09:46:59Z</time>
      </trkpt>
      <trkpt lat="59.9456989" lon="17.4740679">
        <ele>35.2255</ele>
        <time>2012-05-13T09:47:05Z</time>
      </trkpt>
      <trkpt lat="59.9458611" lon="17.4749158">
        <ele>32.3416</ele>
        <time>2012-05-13T09:47:12Z</time>
      </trkpt>
      <trkpt lat="59.9460802" lon="17.475457">
        <ele>31.3801</ele>
        <time>2012-05-13T09:47:17Z</time>
      </trkpt>
      <trkpt lat="59.946358" lon="17.4760406">
        <ele>31.3801</ele>
        <time>2012-05-13T09:47:22Z</time>
      </trkpt>
      <trkpt lat="59.946451" lon="17.4763056">
        <ele>31.8607</ele>
        <time>2012-05-13T09:47:24Z</time>
      </trkpt>
      <trkpt lat="59.9466141" lon="17.4771278">
        <ele>32.3416</ele>
        <time>2012-05-13T09:47:30Z</time>
      </trkpt>
      <trkpt lat="59.9468459" lon="17.4784643">
        <ele>33.3029</ele>
        <time>2012-05-13T09:47:40Z</time>
      </trkpt>
      <trkpt lat="59.9469812" lon="17.4793027">
        <ele>33.7834</ele>
        <time>2012-05-13T09:47:47Z</time>
      </trkpt>
      <trkpt lat="59.9471172" lon="17.4800458">
        <ele>34.2642</ele>
        <time>2012-05-13T09:47:54Z</time>
      </trkpt>
      <trkpt lat="59.9471743" lon="17.4802282">
        <ele>34.2642</ele>
        <time>2012-05-13T09:47:56Z</time>
      </trkpt>
      <trkpt lat="59.947496" lon="17.4808726">
        <ele>33.3029</ele>
        <time>2012-05-13T09:48:04Z</time>
      </trkpt>
      <trkpt lat="59.9477607" lon="17.4814931">
        <ele>34.7449</ele>
        <time>2012-05-13T09:48:11Z</time>
      </trkpt>
      <trkpt lat="59.9478499" lon="17.481924">
        <ele>35.2255</ele>
        <time>2012-05-13T09:48:15Z</time>
      </trkpt>
      <trkpt lat="59.9478933" lon="17.4827824">
        <ele>33.3029</ele>
        <time>2012-05-13T09:48:22Z</time>
      </trkpt>
      <trkpt lat="59.947906" lon="17.4830342">
        <ele>32.8223</ele>
        <time>2012-05-13T09:48:24Z</time>
      </trkpt>
      <trkpt lat="59.9480363" lon="17.4840686">
        <ele>34.2642</ele>
        <time>2012-05-13T09:48:32Z</time>
      </trkpt>
      <trkpt lat="59.9480626" lon="17.4844499">
        <ele>33.7834</ele>
        <time>2012-05-13T09:48:35Z</time>
      </trkpt>
      <trkpt lat="59.9480151" lon="17.4853734">
        <ele>32.3416</ele>
        <time>2012-05-13T09:48:42Z</time>
      </trkpt>
      <trkpt lat="59.9479858" lon="17.4862943">
        <ele>32.8223</ele>
        <time>2012-05-13T09:48:49Z</time>
      </trkpt>
      <trkpt lat="59.9479968" lon="17.4866835">
        <ele>32.8223</ele>
        <time>2012-05-13T09:48:52Z</time>
      </trkpt>
      <trkpt lat="59.9481109" lon="17.4872568">
        <ele>32.3416</ele>
        <time>2012-05-13T09:48:57Z</time>
      </trkpt>
      <trkpt lat="59.9481532" lon="17.4873475">
        <ele>32.3416</ele>
        <time>2012-05-13T09:48:58Z</time>
      </trkpt>
      <trkpt lat="59.948615" lon="17.4881842">
        <ele>31.3801</ele>
        <time>2012-05-13T09:49:07Z</time>
      </trkpt>
      <trkpt lat="59.9490971" lon="17.4890507">
        <ele>30.4188</ele>
        <time>2012-05-13T09:49:16Z</time>
      </trkpt>
      <trkpt lat="59.9495994" lon="17.4899501">
        <ele>30.4188</ele>
        <time>2012-05-13T09:49:25Z</time>
      </trkpt>
      <trkpt lat="59.9501899" lon="17.4910394">
        <ele>30.4188</ele>
        <time>2012-05-13T09:49:36Z</time>
      </trkpt>
      <trkpt lat="59.9508577" lon="17.4922423">
        <ele>27.0543</ele>
        <time>2012-05-13T09:49:49Z</time>
      </trkpt>
      <trkpt lat="59.9514152" lon="17.4932386">
        <ele>26.5736</ele>
        <time>2012-05-13T09:50:00Z</time>
      </trkpt>
      <trkpt lat="59.9517411" lon="17.4938586">
        <ele>29.4575</ele>
        <time>2012-05-13T09:50:07Z</time>
      </trkpt>
      <trkpt lat="59.9518582" lon="17.4942076">
        <ele>30.4188</ele>
        <time>2012-05-13T09:50:11Z</time>
      </trkpt>
      <trkpt lat="59.952032" lon="17.4949019">
        <ele>32.3416</ele>
        <time>2012-05-13T09:50:17Z</time>
      </trkpt>
      <trkpt lat="59.9522606" lon="17.4954274">
        <ele>30.8995</ele>
        <time>2012-05-13T09:50:22Z</time>
      </trkpt>
      <trkpt lat="59.9525536" lon="17.4959367">
        <ele>29.9381</ele>
        <time>2012-05-13T09:50:27Z</time>
      </trkpt>
      <trkpt lat="59.9526529" lon="17.4964578">
        <ele>27.5349</ele>
        <time>2012-05-13T09:50:31Z</time>
      </trkpt>
      <trkpt lat="59.9526051" lon="17.4967299">
        <ele>27.5349</ele>
        <time>2012-05-13T09:50:33Z</time>
      </trkpt>
      <trkpt lat="59.9523005" lon="17.4979886">
        <ele>27.0543</ele>
        <time>2012-05-13T09:50:42Z</time>
      </trkpt>
      <trkpt lat="59.9520354" lon="17.4989908">
        <ele>26.0929</ele>
        <time>2012-05-13T09:50:49Z</time>
      </trkpt>
      <trkpt lat="59.9517727" lon="17.5001456">
        <ele>22.7283</ele>
        <time>2012-05-13T09:50:57Z</time>
      </trkpt>
      <trkpt lat="59.9516618" lon="17.5010832">
        <ele>21.767</ele>
        <time>2012-05-13T09:51:03Z</time>
      </trkpt>
      <trkpt lat="59.9516129" lon="17.5023703">
        <ele>21.2864</ele>
        <time>2012-05-13T09:51:11Z</time>
      </trkpt>
      <trkpt lat="59.9516091" lon="17.5039614">
        <ele>18.8831</ele>
        <time>2012-05-13T09:51:21Z</time>
      </trkpt>
      <trkpt lat="59.9515997" lon="17.5052827">
        <ele>19.3638</ele>
        <time>2012-05-13T09:51:30Z</time>
      </trkpt>
      <trkpt lat="59.9515463" lon="17.5065403">
        <ele>23.6896</ele>
        <time>2012-05-13T09:51:39Z</time>
      </trkpt>
      <trkpt lat="59.9514038" lon="17.5075705">
        <ele>22.7283</ele>
        <time>2012-05-13T09:51:47Z</time>
      </trkpt>
      <trkpt lat="59.9511604" lon="17.5083841">
        <ele>19.8444</ele>
        <time>2012-05-13T09:51:54Z</time>
      </trkpt>
      <trkpt lat="59.9508069" lon="17.5096167">
        <ele>20.325</ele>
        <time>2012-05-13T09:52:05Z</time>
      </trkpt>
      <trkpt lat="59.9504813" lon="17.51087">
        <ele>23.6896</ele>
        <time>2012-05-13T09:52:16Z</time>
      </trkpt>
      <trkpt lat="59.9503488" lon="17.5116573">
        <ele>24.651</ele>
        <time>2012-05-13T09:52:22Z</time>
      </trkpt>
      <trkpt lat="59.9502036" lon="17.5126581">
        <ele>23.6896</ele>
        <time>2012-05-13T09:52:30Z</time>
      </trkpt>
      <trkpt lat="59.9500395" lon="17.5138403">
        <ele>22.7283</ele>
        <time>2012-05-13T09:52:39Z</time>
      </trkpt>
      <trkpt lat="59.9498712" lon="17.5145919">
        <ele>23.6896</ele>
        <time>2012-05-13T09:52:45Z</time>
      </trkpt>
      <trkpt lat="59.9496084" lon="17.5155061">
        <ele>23.6896</ele>
        <time>2012-05-13T09:52:53Z</time>
      </trkpt>
      <trkpt lat="59.9493441" lon="17.5162516">
        <ele>26.0929</ele>
        <time>2012-05-13T09:53:00Z</time>
      </trkpt>
      <trkpt lat="59.9490376" lon="17.517082">
        <ele>25.6123</ele>
        <time>2012-05-13T09:53:08Z</time>
      </trkpt>
      <trkpt lat="59.948767" lon="17.5180162">
        <ele>24.651</ele>
        <time>2012-05-13T09:53:16Z</time>
      </trkpt>
      <trkpt lat="59.948395" lon="17.5193264">
        <ele>23.6896</ele>
        <time>2012-05-13T09:53:27Z</time>
      </trkpt>
      <trkpt lat="59.9480433" lon="17.5205599">
        <ele>23.6896</ele>
        <time>2012-05-13T09:53:37Z</time>
      </trkpt>
      <trkpt lat="59.9476996" lon="17.5216974">
        <ele>23.6896</ele>
        <time>2012-05-13T09:53:46Z</time>
      </trkpt>
      <trkpt lat="59.94734" lon="17.5224678">
        <ele>24.1703</ele>
        <time>2012-05-13T09:53:53Z</time>
      </trkpt>
      <trkpt lat="59.946995" lon="17.5230104">
        <ele>23.6896</ele>
        <time>2012-05-13T09:53:59Z</time>
      </trkpt>
      <trkpt lat="59.9465491" lon="17.5237161">
        <ele>23.6896</ele>
        <time>2012-05-13T09:54:07Z</time>
      </trkpt>
      <trkpt lat="59.9462548" lon="17.524246">
        <ele>24.1703</ele>
        <time>2012-05-13T09:54:13Z</time>
      </trkpt>
      <trkpt lat="59.9461168" lon="17.5245504">
        <ele>24.651</ele>
        <time>2012-05-13T09:54:16Z</time>
      </trkpt>
      <trkpt lat="59.946062" lon="17.524924">
        <ele>24.1703</ele>
        <time>2012-05-13T09:54:19Z</time>
      </trkpt>
      <trkpt lat="59.9461612" lon="17.5253127">
        <ele>25.1317</ele>
        <time>2012-05-13T09:54:22Z</time>
      </trkpt>
      <trkpt lat="59.9461967" lon="17.5258903">
        <ele>24.651</ele>
        <time>2012-05-13T09:54:26Z</time>
      </trkpt>
      <trkpt lat="59.9461635" lon="17.5262112">
        <ele>24.1703</ele>
        <time>2012-05-13T09:54:28Z</time>
      </trkpt>
      <trkpt lat="59.9460559" lon="17.5269747">
        <ele>22.7283</ele>
        <time>2012-05-13T09:54:33Z</time>
      </trkpt>
      <trkpt lat="59.9460879" lon="17.5279095">
        <ele>23.6896</ele>
        <time>2012-05-13T09:54:39Z</time>
      </trkpt>
      <trkpt lat="59.9461212" lon="17.528245">
        <ele>25.1317</ele>
        <time>2012-05-13T09:54:42Z</time>
      </trkpt>
      <trkpt lat="59.9462662" lon="17.528518">
        <ele>25.1317</ele>
        <time>2012-05-13T09:54:46Z</time>
      </trkpt>
      <trkpt lat="59.9465937" lon="17.5288105">
        <ele>24.1703</ele>
        <time>2012-05-13T09:54:52Z</time>
      </trkpt>
      <trkpt lat="59.946938" lon="17.5291759">
        <ele>23.6896</ele>
        <time>2012-05-13T09:54:58Z</time>
      </trkpt>
      <trkpt lat="59.947253" lon="17.5294924">
        <ele>21.2864</ele>
        <time>2012-05-13T09:55:04Z</time>
      </trkpt>
      <trkpt lat="59.9474377" lon="17.5295903">
        <ele>20.8057</ele>
        <time>2012-05-13T09:55:08Z</time>
      </trkpt>
      <trkpt lat="59.9475835" lon="17.5296623">
        <ele>22.7283</ele>
        <time>2012-05-13T09:55:12Z</time>
      </trkpt>
      <trkpt lat="59.9476769" lon="17.5296259">
        <ele>22.7283</ele>
        <time>2012-05-13T09:55:15Z</time>
      </trkpt>
      <trkpt lat="59.9477059" lon="17.5295497">
        <ele>22.7283</ele>
        <time>2012-05-13T09:55:16Z</time>
      </trkpt>
      <trkpt lat="59.9477574" lon="17.5294095">
        <ele>21.767</ele>
        <time>2012-05-13T09:55:18Z</time>
      </trkpt>
      <trkpt lat="59.947984" lon="17.5292945">
        <ele>23.209</ele>
        <time>2012-05-13T09:55:23Z</time>
      </trkpt>
      <trkpt lat="59.9482042" lon="17.529198">
        <ele>24.651</ele>
        <time>2012-05-13T09:55:27Z</time>
      </trkpt>
      <trkpt lat="59.9484621" lon="17.5289695">
        <ele>26.5736</ele>
        <time>2012-05-13T09:55:32Z</time>
      </trkpt>
      <trkpt lat="59.9486614" lon="17.5290431">
        <ele>27.0543</ele>
        <time>2012-05-13T09:55:36Z</time>
      </trkpt>
      <trkpt lat="59.9488749" lon="17.5291359">
        <ele>26.5736</ele>
        <time>2012-05-13T09:55:41Z</time>
      </trkpt>
      <trkpt lat="59.9489205" lon="17.5290832">
        <ele>26.0929</ele>
        <time>2012-05-13T09:55:42Z</time>
      </trkpt>
      <trkpt lat="59.9493461" lon="17.5287777">
        <ele>27.0543</ele>
        <time>2012-05-13T09:55:50Z</time>
      </trkpt>
      <trkpt lat="59.9494062" lon="17.528768">
        <ele>27.0543</ele>
        <time>2012-05-13T09:55:51Z</time>
      </trkpt>
      <trkpt lat="59.9496934" lon="17.5288169">
        <ele>26.5736</ele>
        <time>2012-05-13T09:55:56Z</time>
      </trkpt>
      <trkpt lat="59.9498643" lon="17.5285904">
        <ele>27.0543</ele>
        <time>2012-05-13T09:56:00Z</time>
      </trkpt>
      <trkpt lat="59.9501813" lon="17.5279777">
        <ele>27.5349</ele>
        <time>2012-05-13T09:56:08Z</time>
      </trkpt>
      <trkpt lat="59.9504108" lon="17.5276292">
        <ele>28.0155</ele>
        <time>2012-05-13T09:56:14Z</time>
      </trkpt>
      <trkpt lat="59.9504942" lon="17.5275302">
        <ele>28.0155</ele>
        <time>2012-05-13T09:56:16Z</time>
      </trkpt>
      <trkpt lat="59.9506784" lon="17.5273379">
        <ele>28.4962</ele>
        <time>2012-05-13T09:56:21Z</time>
      </trkpt>
      <trkpt lat="59.9507708" lon="17.527235">
        <ele>28.0155</ele>
        <time>2012-05-13T09:56:24Z</time>
      </trkpt>
      <trkpt lat="59.9510563" lon="17.5270042">
        <ele>28.9769</ele>
        <time>2012-05-13T09:56:31Z</time>
      </trkpt>
      <trkpt lat="59.9513659" lon="17.5267413">
        <ele>29.9381</ele>
        <time>2012-05-13T09:56:38Z</time>
      </trkpt>
      <trkpt lat="59.95084" lon="17.5255551">
        <ele>29.9381</ele>
        <time>2012-05-13T10:25:05Z</time>
      </trkpt>
      <trkpt lat="59.9507486" lon="17.5256456">
        <ele>28.4962</ele>
        <time>2012-05-13T10:25:10Z</time>
      </trkpt>
      <trkpt lat="59.9507185" lon="17.5256799">
        <ele>28.4962</ele>
        <time>2012-05-13T10:25:11Z</time>
      </trkpt>
      <trkpt lat="59.9504233" lon="17.5258889">
        <ele>27.5349</ele>
        <time>2012-05-13T10:25:17Z</time>
      </trkpt>
      <trkpt lat="59.9500783" lon="17.5261368">
        <ele>27.5349</ele>
        <time>2012-05-13T10:25:23Z</time>
      </trkpt>
      <trkpt lat="59.9496826" lon="17.5264201">
        <ele>25.6123</ele>
        <time>2012-05-13T10:25:30Z</time>
      </trkpt>
      <trkpt lat="59.9493868" lon="17.5265853">
        <ele>26.5736</ele>
        <time>2012-05-13T10:25:36Z</time>
      </trkpt>
      <trkpt lat="59.9493607" lon="17.5267319">
        <ele>25.6123</ele>
        <time>2012-05-13T10:25:40Z</time>
      </trkpt>
      <trkpt lat="59.9494257" lon="17.5266124">
        <ele>26.0929</ele>
        <time>2012-05-13T10:25:42Z</time>
      </trkpt>
      <trkpt lat="59.9495015" lon="17.526503">
        <ele>25.1317</ele>
        <time>2012-05-13T10:25:44Z</time>
      </trkpt>
      <trkpt lat="59.9495995" lon="17.5264071">
        <ele>24.651</ele>
        <time>2012-05-13T10:25:46Z</time>
      </trkpt>
      <trkpt lat="59.9500003" lon="17.5261527">
        <ele>24.1703</ele>
        <time>2012-05-13T10:25:53Z</time>
      </trkpt>
      <trkpt lat="59.9501533" lon="17.5260293">
        <ele>23.6896</ele>
        <time>2012-05-13T10:25:56Z</time>
      </trkpt>
      <trkpt lat="59.9502543" lon="17.5259446">
        <ele>23.6896</ele>
        <time>2012-05-13T10:25:58Z</time>
      </trkpt>
      <trkpt lat="59.9504497" lon="17.5260087">
        <ele>24.1703</ele>
        <time>2012-05-13T10:26:02Z</time>
      </trkpt>
      <trkpt lat="59.9505042" lon="17.5261953">
        <ele>25.1317</ele>
        <time>2012-05-13T10:26:04Z</time>
      </trkpt>
      <trkpt lat="59.9505455" lon="17.5264227">
        <ele>25.6123</ele>
        <time>2012-05-13T10:26:06Z</time>
      </trkpt>
      <trkpt lat="59.950642" lon="17.5269175">
        <ele>26.5736</ele>
        <time>2012-05-13T10:26:10Z</time>
      </trkpt>
      <trkpt lat="59.9506404" lon="17.5273896">
        <ele>28.4962</ele>
        <time>2012-05-13T10:26:14Z</time>
      </trkpt>
      <trkpt lat="59.9504515" lon="17.5275935">
        <ele>27.5349</ele>
        <time>2012-05-13T10:26:17Z</time>
      </trkpt>
      <trkpt lat="59.95001" lon="17.528272">
        <ele>26.0929</ele>
        <time>2012-05-13T10:26:25Z</time>
      </trkpt>
      <trkpt lat="59.9498461" lon="17.5286144">
        <ele>27.0543</ele>
        <time>2012-05-13T10:26:29Z</time>
      </trkpt>
      <trkpt lat="59.9496522" lon="17.5287307">
        <ele>29.9381</ele>
        <time>2012-05-13T10:26:33Z</time>
      </trkpt>
      <trkpt lat="59.9495981" lon="17.5287522">
        <ele>30.8995</ele>
        <time>2012-05-13T10:26:34Z</time>
      </trkpt>
      <trkpt lat="59.9492318" lon="17.5286842">
        <ele>32.3416</ele>
        <time>2012-05-13T10:26:40Z</time>
      </trkpt>
      <trkpt lat="59.9490073" lon="17.5287908">
        <ele>34.2642</ele>
        <time>2012-05-13T10:26:44Z</time>
      </trkpt>
      <trkpt lat="59.9487913" lon="17.5290869">
        <ele>34.2642</ele>
        <time>2012-05-13T10:26:49Z</time>
      </trkpt>
      <trkpt lat="59.948721" lon="17.5292692">
        <ele>33.7834</ele>
        <time>2012-05-13T10:26:51Z</time>
      </trkpt>
      <trkpt lat="59.9485349" lon="17.5300227">
        <ele>31.3801</ele>
        <time>2012-05-13T10:26:58Z</time>
      </trkpt>
      <trkpt lat="59.9483551" lon="17.5307505">
        <ele>30.4188</ele>
        <time>2012-05-13T10:27:05Z</time>
      </trkpt>
      <trkpt lat="59.948256" lon="17.5310357">
        <ele>29.4575</ele>
        <time>2012-05-13T10:27:08Z</time>
      </trkpt>
      <trkpt lat="59.9480865" lon="17.5312884">
        <ele>29.4575</ele>
        <time>2012-05-13T10:27:12Z</time>
      </trkpt>
      <trkpt lat="59.9477414" lon="17.5314703">
        <ele>28.4962</ele>
        <time>2012-05-13T10:27:18Z</time>
      </trkpt>
      <trkpt lat="59.9473541" lon="17.5315392">
        <ele>27.5349</ele>
        <time>2012-05-13T10:27:24Z</time>
      </trkpt>
      <trkpt lat="59.9469008" lon="17.5316459">
        <ele>27.0543</ele>
        <time>2012-05-13T10:27:32Z</time>
      </trkpt>
      <trkpt lat="59.9466895" lon="17.531739">
        <ele>29.4575</ele>
        <time>2012-05-13T10:27:36Z</time>
      </trkpt>
      <trkpt lat="59.9463644" lon="17.5321939">
        <ele>29.9381</ele>
        <time>2012-05-13T10:27:43Z</time>
      </trkpt>
      <trkpt lat="59.9462372" lon="17.5325077">
        <ele>32.3416</ele>
        <time>2012-05-13T10:27:47Z</time>
      </trkpt>
      <trkpt lat="59.9460394" lon="17.5330967">
        <ele>29.4575</ele>
        <time>2012-05-13T10:27:54Z</time>
      </trkpt>
      <trkpt lat="59.9460057" lon="17.5331688">
        <ele>28.4962</ele>
        <time>2012-05-13T10:27:55Z</time>
      </trkpt>
      <trkpt lat="59.9457268" lon="17.5335073">
        <ele>26.5736</ele>
        <time>2012-05-13T10:28:01Z</time>
      </trkpt>
      <trkpt lat="59.9452655" lon="17.5338824">
        <ele>28.0155</ele>
        <time>2012-05-13T10:28:10Z</time>
      </trkpt>
      <trkpt lat="59.9449604" lon="17.5341119">
        <ele>28.4962</ele>
        <time>2012-05-13T10:28:16Z</time>
      </trkpt>
      <trkpt lat="59.9446602" lon="17.5343242">
        <ele>28.4962</ele>
        <time>2012-05-13T10:28:22Z</time>
      </trkpt>
      <trkpt lat="59.9443454" lon="17.5344354">
        <ele>28.4962</ele>
        <time>2012-05-13T10:28:28Z</time>
      </trkpt>
      <trkpt lat="59.9442508" lon="17.5344359">
        <ele>29.4575</ele>
        <time>2012-05-13T10:28:30Z</time>
      </trkpt>
      <trkpt lat="59.9439992" lon="17.5343377">
        <ele>32.3416</ele>
        <time>2012-05-13T10:28:36Z</time>
      </trkpt>
      <trkpt lat="59.9438687" lon="17.5345154">
        <ele>32.3416</ele>
        <time>2012-05-13T10:28:40Z</time>
      </trkpt>
      <trkpt lat="59.9437182" lon="17.5353831">
        <ele>29.9381</ele>
        <time>2012-05-13T10:28:48Z</time>
      </trkpt>
      <trkpt lat="59.9435843" lon="17.5361503">
        <ele>24.1703</ele>
        <time>2012-05-13T10:28:55Z</time>
      </trkpt>
      <trkpt lat="59.943413" lon="17.5371072">
        <ele>22.7283</ele>
        <time>2012-05-13T10:29:03Z</time>
      </trkpt>
      <trkpt lat="59.9431764" lon="17.5380976">
        <ele>22.7283</ele>
        <time>2012-05-13T10:29:12Z</time>
      </trkpt>
      <trkpt lat="59.9431219" lon="17.5383234">
        <ele>22.7283</ele>
        <time>2012-05-13T10:29:14Z</time>
      </trkpt>
      <trkpt lat="59.9429278" lon="17.5389799">
        <ele>22.7283</ele>
        <time>2012-05-13T10:29:20Z</time>
      </trkpt>
      <trkpt lat="59.9426941" lon="17.5396313">
        <ele>23.209</ele>
        <time>2012-05-13T10:29:27Z</time>
      </trkpt>
      <trkpt lat="59.9424842" lon="17.5401861">
        <ele>24.651</ele>
        <time>2012-05-13T10:29:33Z</time>
      </trkpt>
      <trkpt lat="59.9421333" lon="17.5410394">
        <ele>26.0929</ele>
        <time>2012-05-13T10:29:42Z</time>
      </trkpt>
      <trkpt lat="59.9418314" lon="17.5417359">
        <ele>27.5349</ele>
        <time>2012-05-13T10:29:49Z</time>
      </trkpt>
      <trkpt lat="59.9413715" lon="17.5427284">
        <ele>28.9769</ele>
        <time>2012-05-13T10:29:59Z</time>
      </trkpt>
      <trkpt lat="59.9409074" lon="17.5436144">
        <ele>30.8995</ele>
        <time>2012-05-13T10:30:08Z</time>
      </trkpt>
      <trkpt lat="59.9404148" lon="17.5443905">
        <ele>28.4962</ele>
        <time>2012-05-13T10:30:17Z</time>
      </trkpt>
      <trkpt lat="59.939879" lon="17.5450845">
        <ele>26.5736</ele>
        <time>2012-05-13T10:30:26Z</time>
      </trkpt>
      <trkpt lat="59.9393255" lon="17.545702">
        <ele>27.5349</ele>
        <time>2012-05-13T10:30:35Z</time>
      </trkpt>
      <trkpt lat="59.9387611" lon="17.5463312">
        <ele>31.8607</ele>
        <time>2012-05-13T10:30:45Z</time>
      </trkpt>
      <trkpt lat="59.9382567" lon="17.5470173">
        <ele>33.3029</ele>
        <time>2012-05-13T10:30:54Z</time>
      </trkpt>
      <trkpt lat="59.9378981" lon="17.5476229">
        <ele>32.8223</ele>
        <time>2012-05-13T10:31:01Z</time>
      </trkpt>
      <trkpt lat="59.9375881" lon="17.5482935">
        <ele>31.8607</ele>
        <time>2012-05-13T10:31:08Z</time>
      </trkpt>
      <trkpt lat="59.9374966" lon="17.5484576">
        <ele>31.8607</ele>
        <time>2012-05-13T10:31:10Z</time>
      </trkpt>
      <trkpt lat="59.9374341" lon="17.5488561">
        <ele>30.4188</ele>
        <time>2012-05-13T10:31:14Z</time>
      </trkpt>
      <trkpt lat="59.9374" lon="17.5489312">
        <ele>30.4188</ele>
        <time>2012-05-13T10:31:15Z</time>
      </trkpt>
      <trkpt lat="59.9370202" lon="17.5497272">
        <ele>30.8995</ele>
        <time>2012-05-13T10:31:24Z</time>
      </trkpt>
      <trkpt lat="59.9367323" lon="17.5502247">
        <ele>30.4188</ele>
        <time>2012-05-13T10:31:30Z</time>
      </trkpt>
      <trkpt lat="59.9363085" lon="17.5510649">
        <ele>29.4575</ele>
        <time>2012-05-13T10:31:39Z</time>
      </trkpt>
      <trkpt lat="59.9358051" lon="17.5520486">
        <ele>28.9769</ele>
        <time>2012-05-13T10:31:49Z</time>
      </trkpt>
      <trkpt lat="59.9354731" lon="17.5526956">
        <ele>28.4962</ele>
        <time>2012-05-13T10:31:56Z</time>
      </trkpt>
      <trkpt lat="59.9350556" lon="17.5535652">
        <ele>26.5736</ele>
        <time>2012-05-13T10:32:05Z</time>
      </trkpt>
      <trkpt lat="59.9345176" lon="17.5546281">
        <ele>27.0543</ele>
        <time>2012-05-13T10:32:16Z</time>
      </trkpt>
      <trkpt lat="59.9342883" lon="17.5551114">
        <ele>27.5349</ele>
        <time>2012-05-13T10:32:21Z</time>
      </trkpt>
      <trkpt lat="59.934221" lon="17.5554484">
        <ele>26.5736</ele>
        <time>2012-05-13T10:32:24Z</time>
      </trkpt>
      <trkpt lat="59.9340501" lon="17.5557654">
        <ele>26.0929</ele>
        <time>2012-05-13T10:32:28Z</time>
      </trkpt>
      <trkpt lat="59.9337849" lon="17.5560823">
        <ele>28.0155</ele>
        <time>2012-05-13T10:32:33Z</time>
      </trkpt>
      <trkpt lat="59.9333423" lon="17.5569625">
        <ele>28.4962</ele>
        <time>2012-05-13T10:32:43Z</time>
      </trkpt>
      <trkpt lat="59.9329008" lon="17.5578276">
        <ele>27.0543</ele>
        <time>2012-05-13T10:32:53Z</time>
      </trkpt>
      <trkpt lat="59.9325167" lon="17.5585927">
        <ele>27.0543</ele>
        <time>2012-05-13T10:33:02Z</time>
      </trkpt>
      <trkpt lat="59.9320691" lon="17.5594837">
        <ele>27.5349</ele>
        <time>2012-05-13T10:33:13Z</time>
      </trkpt>
      <trkpt lat="59.9318018" lon="17.5600068">
        <ele>28.4962</ele>
        <time>2012-05-13T10:33:20Z</time>
      </trkpt>
      <trkpt lat="59.9314796" lon="17.5606465">
        <ele>28.9769</ele>
        <time>2012-05-13T10:33:28Z</time>
      </trkpt>
      <trkpt lat="59.9311264" lon="17.5613391">
        <ele>29.4575</ele>
        <time>2012-05-13T10:33:36Z</time>
      </trkpt>
      <trkpt lat="59.9307413" lon="17.5621017">
        <ele>29.9381</ele>
        <time>2012-05-13T10:33:45Z</time>
      </trkpt>
      <trkpt lat="59.9304597" lon="17.5626413">
        <ele>30.8995</ele>
        <time>2012-05-13T10:33:51Z</time>
      </trkpt>
      <trkpt lat="59.9299585" lon="17.5636451">
        <ele>30.4188</ele>
        <time>2012-05-13T10:34:01Z</time>
      </trkpt>
      <trkpt lat="59.9295094" lon="17.5645405">
        <ele>30.8995</ele>
        <time>2012-05-13T10:34:10Z</time>
      </trkpt>
      <trkpt lat="59.9289831" lon="17.5655688">
        <ele>29.4575</ele>
        <time>2012-05-13T10:34:20Z</time>
      </trkpt>
      <trkpt lat="59.9284732" lon="17.5665954">
        <ele>28.4962</ele>
        <time>2012-05-13T10:34:30Z</time>
      </trkpt>
      <trkpt lat="59.9282037" lon="17.5671622">
        <ele>27.0543</ele>
        <time>2012-05-13T10:34:36Z</time>
      </trkpt>
      <trkpt lat="59.9281406" lon="17.5673759">
        <ele>26.5736</ele>
        <time>2012-05-13T10:34:38Z</time>
      </trkpt>
      <trkpt lat="59.9280647" lon="17.5675422">
        <ele>26.0929</ele>
        <time>2012-05-13T10:34:40Z</time>
      </trkpt>
      <trkpt lat="59.9280784" lon="17.5679821">
        <ele>25.1317</ele>
        <time>2012-05-13T10:34:44Z</time>
      </trkpt>
      <trkpt lat="59.9281023" lon="17.5680981">
        <ele>24.651</ele>
        <time>2012-05-13T10:34:45Z</time>
      </trkpt>
      <trkpt lat="59.9284082" lon="17.5694521">
        <ele>22.2476</ele>
        <time>2012-05-13T10:34:56Z</time>
      </trkpt>
      <trkpt lat="59.928662" lon="17.5705664">
        <ele>23.209</ele>
        <time>2012-05-13T10:35:06Z</time>
      </trkpt>
      <trkpt lat="59.928908" lon="17.5716447">
        <ele>24.651</ele>
        <time>2012-05-13T10:35:16Z</time>
      </trkpt>
      <trkpt lat="59.9290346" lon="17.5725912">
        <ele>25.6123</ele>
        <time>2012-05-13T10:35:24Z</time>
      </trkpt>
      <trkpt lat="59.9290941" lon="17.5737159">
        <ele>26.5736</ele>
        <time>2012-05-13T10:35:33Z</time>
      </trkpt>
      <trkpt lat="59.9291252" lon="17.5747374">
        <ele>24.1703</ele>
        <time>2012-05-13T10:35:41Z</time>
      </trkpt>
      <trkpt lat="59.9291802" lon="17.5760154">
        <ele>24.651</ele>
        <time>2012-05-13T10:35:51Z</time>
      </trkpt>
      <trkpt lat="59.9292522" lon="17.5775923">
        <ele>27.0543</ele>
        <time>2012-05-13T10:36:03Z</time>
      </trkpt>
      <trkpt lat="59.9293093" lon="17.5788055">
        <ele>27.5349</ele>
        <time>2012-05-13T10:36:12Z</time>
      </trkpt>
      <trkpt lat="59.9293791" lon="17.5801719">
        <ele>26.0929</ele>
        <time>2012-05-13T10:36:22Z</time>
      </trkpt>
      <trkpt lat="59.9294737" lon="17.5811166">
        <ele>23.209</ele>
        <time>2012-05-13T10:36:29Z</time>
      </trkpt>
      <trkpt lat="59.929678" lon="17.5824613">
        <ele>21.2864</ele>
        <time>2012-05-13T10:36:39Z</time>
      </trkpt>
      <trkpt lat="59.9299485" lon="17.5840004">
        <ele>21.767</ele>
        <time>2012-05-13T10:36:50Z</time>
      </trkpt>
      <trkpt lat="59.9301741" lon="17.5851987">
        <ele>23.209</ele>
        <time>2012-05-13T10:36:59Z</time>
      </trkpt>
      <trkpt lat="59.9303996" lon="17.5860176">
        <ele>21.767</ele>
        <time>2012-05-13T10:37:06Z</time>
      </trkpt>
      <trkpt lat="59.9306556" lon="17.5866411">
        <ele>21.2864</ele>
        <time>2012-05-13T10:37:13Z</time>
      </trkpt>
      <trkpt lat="59.9309259" lon="17.5871748">
        <ele>20.325</ele>
        <time>2012-05-13T10:37:20Z</time>
      </trkpt>
      <trkpt lat="59.9311517" lon="17.5875557">
        <ele>18.8831</ele>
        <time>2012-05-13T10:37:26Z</time>
      </trkpt>
      <trkpt lat="59.9312391" lon="17.5876865">
        <ele>21.767</ele>
        <time>2012-05-13T10:37:28Z</time>
      </trkpt>
      <trkpt lat="59.931333" lon="17.5878051">
        <ele>22.7283</ele>
        <time>2012-05-13T10:37:30Z</time>
      </trkpt>
      <trkpt lat="59.931433" lon="17.5879053">
        <ele>25.1317</ele>
        <time>2012-05-13T10:37:32Z</time>
      </trkpt>
      <trkpt lat="59.9316515" lon="17.5882566">
        <ele>21.2864</ele>
        <time>2012-05-13T10:37:37Z</time>
      </trkpt>
      <trkpt lat="59.9320627" lon="17.5890709">
        <ele>16.9604</ele>
        <time>2012-05-13T10:37:46Z</time>
      </trkpt>
      <trkpt lat="59.9322666" lon="17.5897691">
        <ele>15.5184</ele>
        <time>2012-05-13T10:37:52Z</time>
      </trkpt>
      <trkpt lat="59.9324101" lon="17.5905594">
        <ele>15.5184</ele>
        <time>2012-05-13T10:37:58Z</time>
      </trkpt>
      <trkpt lat="59.9325813" lon="17.5920735">
        <ele>15.999</ele>
        <time>2012-05-13T10:38:09Z</time>
      </trkpt>
      <trkpt lat="59.9326701" lon="17.5932209">
        <ele>12.6344</ele>
        <time>2012-05-13T10:38:17Z</time>
      </trkpt>
      <trkpt lat="59.9327664" lon="17.5941285">
        <ele>13.5958</ele>
        <time>2012-05-13T10:38:24Z</time>
      </trkpt>
      <trkpt lat="59.9328856" lon="17.5950752">
        <ele>13.5958</ele>
        <time>2012-05-13T10:38:31Z</time>
      </trkpt>
      <trkpt lat="59.9330176" lon="17.5960945">
        <ele>15.999</ele>
        <time>2012-05-13T10:38:38Z</time>
      </trkpt>
      <trkpt lat="59.9329347" lon="17.5965386">
        <ele>18.4023</ele>
        <time>2012-05-13T10:38:42Z</time>
      </trkpt>
      <trkpt lat="59.93281" lon="17.5965986">
        <ele>18.8831</ele>
        <time>2012-05-13T10:38:44Z</time>
      </trkpt>
      <trkpt lat="59.9322878" lon="17.5968512">
        <ele>17.4412</ele>
        <time>2012-05-13T10:38:52Z</time>
      </trkpt>
      <trkpt lat="59.93154" lon="17.5972028">
        <ele>20.325</ele>
        <time>2012-05-13T10:39:03Z</time>
      </trkpt>
      <trkpt lat="59.9309493" lon="17.5974997">
        <ele>21.2864</ele>
        <time>2012-05-13T10:39:12Z</time>
      </trkpt>
      <trkpt lat="59.9302509" lon="17.597832">
        <ele>21.767</ele>
        <time>2012-05-13T10:39:23Z</time>
      </trkpt>
      <trkpt lat="59.929653" lon="17.5981334">
        <ele>21.2864</ele>
        <time>2012-05-13T10:39:32Z</time>
      </trkpt>
      <trkpt lat="59.9289134" lon="17.5984722">
        <ele>22.2476</ele>
        <time>2012-05-13T10:39:43Z</time>
      </trkpt>
      <trkpt lat="59.9282317" lon="17.5988274">
        <ele>21.2864</ele>
        <time>2012-05-13T10:39:53Z</time>
      </trkpt>
      <trkpt lat="59.9274723" lon="17.5992072">
        <ele>19.8444</ele>
        <time>2012-05-13T10:40:04Z</time>
      </trkpt>
      <trkpt lat="59.9268862" lon="17.5994836">
        <ele>19.8444</ele>
        <time>2012-05-13T10:40:13Z</time>
      </trkpt>
      <trkpt lat="59.9263425" lon="17.5997552">
        <ele>19.3638</ele>
        <time>2012-05-13T10:40:21Z</time>
      </trkpt>
      <trkpt lat="59.9252832" lon="17.6002573">
        <ele>18.4023</ele>
        <time>2012-05-13T10:40:36Z</time>
      </trkpt>
      <trkpt lat="59.9247417" lon="17.6005516">
        <ele>17.4412</ele>
        <time>2012-05-13T10:40:44Z</time>
      </trkpt>
      <trkpt lat="59.9240611" lon="17.6008784">
        <ele>17.9218</ele>
        <time>2012-05-13T10:40:54Z</time>
      </trkpt>
      <trkpt lat="59.9233028" lon="17.6012475">
        <ele>17.9218</ele>
        <time>2012-05-13T10:41:05Z</time>
      </trkpt>
      <trkpt lat="59.9226109" lon="17.6015775">
        <ele>17.9218</ele>
        <time>2012-05-13T10:41:15Z</time>
      </trkpt>
      <trkpt lat="59.9220159" lon="17.6018629">
        <ele>18.4023</ele>
        <time>2012-05-13T10:41:24Z</time>
      </trkpt>
      <trkpt lat="59.9214142" lon="17.6021629">
        <ele>18.4023</ele>
        <time>2012-05-13T10:41:33Z</time>
      </trkpt>
      <trkpt lat="59.9207536" lon="17.60248">
        <ele>19.3638</ele>
        <time>2012-05-13T10:41:43Z</time>
      </trkpt>
      <trkpt lat="59.9201958" lon="17.6027489">
        <ele>19.8444</ele>
        <time>2012-05-13T10:41:52Z</time>
      </trkpt>
      <trkpt lat="59.9195491" lon="17.6030246">
        <ele>12.1538</ele>
        <time>2012-05-13T10:42:02Z</time>
      </trkpt>
      <trkpt lat="59.9189734" lon="17.6033045">
        <ele>10.2312</ele>
        <time>2012-05-13T10:42:11Z</time>
      </trkpt>
      <trkpt lat="59.9182896" lon="17.6036221">
        <ele>6.86646</ele>
        <time>2012-05-13T10:42:21Z</time>
      </trkpt>
      <trkpt lat="59.9176761" lon="17.6038956">
        <ele>6.38586</ele>
        <time>2012-05-13T10:42:30Z</time>
      </trkpt>
      <trkpt lat="59.9170624" lon="17.6041905">
        <ele>5.90527</ele>
        <time>2012-05-13T10:42:39Z</time>
      </trkpt>
      <trkpt lat="59.916401" lon="17.6045164">
        <ele>5.90527</ele>
        <time>2012-05-13T10:42:49Z</time>
      </trkpt>
      <trkpt lat="59.9157995" lon="17.6047991">
        <ele>4.46326</ele>
        <time>2012-05-13T10:42:58Z</time>
      </trkpt>
      <trkpt lat="59.9152002" lon="17.6050778">
        <ele>3.02124</ele>
        <time>2012-05-13T10:43:07Z</time>
      </trkpt>
      <trkpt lat="59.9143558" lon="17.6054849">
        <ele>3.98267</ele>
        <time>2012-05-13T10:43:20Z</time>
      </trkpt>
      <trkpt lat="59.9136445" lon="17.6058203">
        <ele>3.50195</ele>
        <time>2012-05-13T10:43:31Z</time>
      </trkpt>
      <trkpt lat="59.9130522" lon="17.6060994">
        <ele>2.54065</ele>
        <time>2012-05-13T10:43:40Z</time>
      </trkpt>
      <trkpt lat="59.9124814" lon="17.6063785">
        <ele>4.94385</ele>
        <time>2012-05-13T10:43:49Z</time>
      </trkpt>
      <trkpt lat="59.911784" lon="17.6067136">
        <ele>4.46326</ele>
        <time>2012-05-13T10:44:00Z</time>
      </trkpt>
      <trkpt lat="59.9111853" lon="17.6070002">
        <ele>4.94385</ele>
        <time>2012-05-13T10:44:09Z</time>
      </trkpt>
      <trkpt lat="59.9104597" lon="17.6073536">
        <ele>4.46326</ele>
        <time>2012-05-13T10:44:20Z</time>
      </trkpt>
      <trkpt lat="59.9099693" lon="17.6075838">
        <ele>4.46326</ele>
        <time>2012-05-13T10:44:28Z</time>
      </trkpt>
      <trkpt lat="59.9093128" lon="17.6079098">
        <ele>5.90527</ele>
        <time>2012-05-13T10:44:39Z</time>
      </trkpt>
      <trkpt lat="59.9087923" lon="17.6081933">
        <ele>10.2312</ele>
        <time>2012-05-13T10:44:48Z</time>
      </trkpt>
      <trkpt lat="59.9083624" lon="17.6083915">
        <ele>14.0764</ele>
        <time>2012-05-13T10:44:56Z</time>
      </trkpt>
      <trkpt lat="59.9078893" lon="17.6085993">
        <ele>15.999</ele>
        <time>2012-05-13T10:45:05Z</time>
      </trkpt>
      <trkpt lat="59.907378" lon="17.6088379">
        <ele>16.9604</ele>
        <time>2012-05-13T10:45:15Z</time>
      </trkpt>
      <trkpt lat="59.9069587" lon="17.6090318">
        <ele>17.9218</ele>
        <time>2012-05-13T10:45:24Z</time>
      </trkpt>
      <trkpt lat="59.9065877" lon="17.6091893">
        <ele>16.9604</ele>
        <time>2012-05-13T10:45:32Z</time>
      </trkpt>
      <trkpt lat="59.9061878" lon="17.609364">
        <ele>15.999</ele>
        <time>2012-05-13T10:45:40Z</time>
      </trkpt>
      <trkpt lat="59.9057509" lon="17.6095782">
        <ele>15.5184</ele>
        <time>2012-05-13T10:45:48Z</time>
      </trkpt>
      <trkpt lat="59.9056941" lon="17.6096064">
        <ele>15.0377</ele>
        <time>2012-05-13T10:45:49Z</time>
      </trkpt>
      <trkpt lat="59.9053871" lon="17.6098518">
        <ele>14.0764</ele>
        <time>2012-05-13T10:45:55Z</time>
      </trkpt>
      <trkpt lat="59.9049844" lon="17.6100723">
        <ele>12.1538</ele>
        <time>2012-05-13T10:46:02Z</time>
      </trkpt>
      <trkpt lat="59.9046736" lon="17.6102223">
        <ele>11.1925</ele>
        <time>2012-05-13T10:46:07Z</time>
      </trkpt>
      <trkpt lat="59.9045105" lon="17.6106019">
        <ele>11.6732</ele>
        <time>2012-05-13T10:46:11Z</time>
      </trkpt>
      <trkpt lat="59.9043477" lon="17.61124">
        <ele>12.6344</ele>
        <time>2012-05-13T10:46:16Z</time>
      </trkpt>
      <trkpt lat="59.9042925" lon="17.6113198">
        <ele>13.1151</ele>
        <time>2012-05-13T10:46:17Z</time>
      </trkpt>
      <trkpt lat="59.9039726" lon="17.6117558">
        <ele>15.0377</ele>
        <time>2012-05-13T10:46:23Z</time>
      </trkpt>
      <trkpt lat="59.9038152" lon="17.6122269">
        <ele>15.0377</ele>
        <time>2012-05-13T10:46:27Z</time>
      </trkpt>
      <trkpt lat="59.9036019" lon="17.6133573">
        <ele>14.557</ele>
        <time>2012-05-13T10:46:35Z</time>
      </trkpt>
      <trkpt lat="59.9035071" lon="17.6141923">
        <ele>15.999</ele>
        <time>2012-05-13T10:46:41Z</time>
      </trkpt>
      <trkpt lat="59.9034712" lon="17.6151557">
        <ele>14.0764</ele>
        <time>2012-05-13T10:46:48Z</time>
      </trkpt>
      <trkpt lat="59.9033656" lon="17.61584">
        <ele>12.1538</ele>
        <time>2012-05-13T10:46:53Z</time>
      </trkpt>
      <trkpt lat="59.9030917" lon="17.6167973">
        <ele>6.38586</ele>
        <time>2012-05-13T10:47:01Z</time>
      </trkpt>
      <trkpt lat="59.9027407" lon="17.61791">
        <ele>4.46326</ele>
        <time>2012-05-13T10:47:10Z</time>
      </trkpt>
      <trkpt lat="59.9023676" lon="17.6189398">
        <ele>3.98267</ele>
        <time>2012-05-13T10:47:19Z</time>
      </trkpt>
      <trkpt lat="59.9019796" lon="17.6199">
        <ele>4.46326</ele>
        <time>2012-05-13T10:47:28Z</time>
      </trkpt>
      <trkpt lat="59.9016042" lon="17.6208847">
        <ele>6.38586</ele>
        <time>2012-05-13T10:47:37Z</time>
      </trkpt>
      <trkpt lat="59.9013977" lon="17.6216066">
        <ele>7.34717</ele>
        <time>2012-05-13T10:47:44Z</time>
      </trkpt>
      <trkpt lat="59.9011911" lon="17.622527">
        <ele>7.34717</ele>
        <time>2012-05-13T10:47:52Z</time>
      </trkpt>
      <trkpt lat="59.9009693" lon="17.6236039">
        <ele>8.30859</ele>
        <time>2012-05-13T10:48:01Z</time>
      </trkpt>
      <trkpt lat="59.9008448" lon="17.6244214">
        <ele>11.6732</ele>
        <time>2012-05-13T10:48:08Z</time>
      </trkpt>
      <trkpt lat="59.9007721" lon="17.6251062">
        <ele>13.1151</ele>
        <time>2012-05-13T10:48:15Z</time>
      </trkpt>
      <trkpt lat="59.9007333" lon="17.6257517">
        <ele>12.6344</ele>
        <time>2012-05-13T10:48:21Z</time>
      </trkpt>
      <trkpt lat="59.9007222" lon="17.6261008">
        <ele>13.1151</ele>
        <time>2012-05-13T10:48:24Z</time>
      </trkpt>
      <trkpt lat="59.900748" lon="17.6265543">
        <ele>15.0377</ele>
        <time>2012-05-13T10:48:28Z</time>
      </trkpt>
      <trkpt lat="59.9008962" lon="17.627276">
        <ele>17.4412</ele>
        <time>2012-05-13T10:48:34Z</time>
      </trkpt>
      <trkpt lat="59.9012003" lon="17.6285053">
        <ele>17.4412</ele>
        <time>2012-05-13T10:48:44Z</time>
      </trkpt>
      <trkpt lat="59.901279" lon="17.6293787">
        <ele>16.4797</ele>
        <time>2012-05-13T10:48:50Z</time>
      </trkpt>
      <trkpt lat="59.9013562" lon="17.6308339">
        <ele>17.9218</ele>
        <time>2012-05-13T10:49:00Z</time>
      </trkpt>
      <trkpt lat="59.9012563" lon="17.6317202">
        <ele>13.5958</ele>
        <time>2012-05-13T10:49:06Z</time>
      </trkpt>
      <trkpt lat="59.9011682" lon="17.6321168">
        <ele>12.6344</ele>
        <time>2012-05-13T10:49:09Z</time>
      </trkpt>
      <trkpt lat="59.9008672" lon="17.6328016">
        <ele>7.34717</ele>
        <time>2012-05-13T10:49:15Z</time>
      </trkpt>
      <trkpt lat="59.9005389" lon="17.6333279">
        <ele>8.30859</ele>
        <time>2012-05-13T10:49:21Z</time>
      </trkpt>
      <trkpt lat="59.900088" lon="17.6338278">
        <ele>9.2699</ele>
        <time>2012-05-13T10:49:28Z</time>
      </trkpt>
      <trkpt lat="59.899698" lon="17.6340893">
        <ele>12.1538</ele>
        <time>2012-05-13T10:49:34Z</time>
      </trkpt>
      <trkpt lat="59.8994148" lon="17.6341802">
        <ele>16.9604</ele>
        <time>2012-05-13T10:49:39Z</time>
      </trkpt>
      <trkpt lat="59.8990105" lon="17.6344024">
        <ele>16.4797</ele>
        <time>2012-05-13T10:49:46Z</time>
      </trkpt>
      <trkpt lat="59.8989531" lon="17.6344284">
        <ele>16.4797</ele>
        <time>2012-05-13T10:49:47Z</time>
      </trkpt>
      <trkpt lat="59.8985699" lon="17.6343924">
        <ele>21.767</ele>
        <time>2012-05-13T10:49:54Z</time>
      </trkpt>
      <trkpt lat="59.8983326" lon="17.6343581">
        <ele>23.6896</ele>
        <time>2012-05-13T10:49:59Z</time>
      </trkpt>
      <trkpt lat="59.8981068" lon="17.6344888">
        <ele>22.7283</ele>
        <time>2012-05-13T10:50:05Z</time>
      </trkpt>
      <trkpt lat="59.8980212" lon="17.6347394">
        <ele>19.8444</ele>
        <time>2012-05-13T10:50:08Z</time>
      </trkpt>
      <trkpt lat="59.8977815" lon="17.635254">
        <ele>19.3638</ele>
        <time>2012-05-13T10:50:15Z</time>
      </trkpt>
      <trkpt lat="59.8977017" lon="17.6354642">
        <ele>20.8057</ele>
        <time>2012-05-13T10:50:18Z</time>
      </trkpt>
      <trkpt lat="59.8974971" lon="17.6362023">
        <ele>20.8057</ele>
        <time>2012-05-13T10:50:28Z</time>
      </trkpt>
      <trkpt lat="59.8973744" lon="17.6366325">
        <ele>22.2476</ele>
        <time>2012-05-13T10:50:34Z</time>
      </trkpt>
      <trkpt lat="59.8971957" lon="17.6368088">
        <ele>24.1703</ele>
        <time>2012-05-13T10:50:39Z</time>
      </trkpt>
      <trkpt lat="59.8971582" lon="17.6367926">
        <ele>24.651</ele>
        <time>2012-05-13T10:50:40Z</time>
      </trkpt>
      <trkpt lat="59.8968111" lon="17.6366322">
        <ele>28.9769</ele>
        <time>2012-05-13T10:50:48Z</time>
      </trkpt>
      <trkpt lat="59.8964084" lon="17.6364791">
        <ele>31.8607</ele>
        <time>2012-05-13T10:50:56Z</time>
      </trkpt>
      <trkpt lat="59.8960695" lon="17.6363492">
        <ele>31.8607</ele>
        <time>2012-05-13T10:51:02Z</time>
      </trkpt>
      <trkpt lat="59.8957183" lon="17.6363642">
        <ele>31.3801</ele>
        <time>2012-05-13T10:51:08Z</time>
      </trkpt>
      <trkpt lat="59.8953541" lon="17.636559">
        <ele>30.8995</ele>
        <time>2012-05-13T10:51:14Z</time>
      </trkpt>
      <trkpt lat="59.8947791" lon="17.6369405">
        <ele>29.9381</ele>
        <time>2012-05-13T10:51:23Z</time>
      </trkpt>
      <trkpt lat="59.8944062" lon="17.6371573">
        <ele>29.9381</ele>
        <time>2012-05-13T10:51:29Z</time>
      </trkpt>
      <trkpt lat="59.8940441" lon="17.6374053">
        <ele>28.0155</ele>
        <time>2012-05-13T10:51:35Z</time>
      </trkpt>
      <trkpt lat="59.8935784" lon="17.6377952">
        <ele>28.0155</ele>
        <time>2012-05-13T10:51:43Z</time>
      </trkpt>
      <trkpt lat="59.8933023" lon="17.6380208">
        <ele>29.4575</ele>
        <time>2012-05-13T10:51:48Z</time>
      </trkpt>
      <trkpt lat="59.8930272" lon="17.6381429">
        <ele>29.4575</ele>
        <time>2012-05-13T10:51:53Z</time>
      </trkpt>
      <trkpt lat="59.8929087" lon="17.6381959">
        <ele>28.4962</ele>
        <time>2012-05-13T10:51:55Z</time>
      </trkpt>
      <trkpt lat="59.8926497" lon="17.6382449">
        <ele>28.0155</ele>
        <time>2012-05-13T10:51:59Z</time>
      </trkpt>
      <trkpt lat="59.8926005" lon="17.6385558">
        <ele>25.6123</ele>
        <time>2012-05-13T10:52:02Z</time>
      </trkpt>
      <trkpt lat="59.8926237" lon="17.6387526">
        <ele>24.651</ele>
        <time>2012-05-13T10:52:04Z</time>
      </trkpt>
      <trkpt lat="59.8926556" lon="17.6395301">
        <ele>27.0543</ele>
        <time>2012-05-13T10:52:12Z</time>
      </trkpt>
      <trkpt lat="59.8926537" lon="17.6403373">
        <ele>27.5349</ele>
        <time>2012-05-13T10:52:20Z</time>
      </trkpt>
      <trkpt lat="59.8926155" lon="17.6411276">
        <ele>27.0543</ele>
        <time>2012-05-13T10:52:27Z</time>
      </trkpt>
      <trkpt lat="59.8925579" lon="17.6420993">
        <ele>26.0929</ele>
        <time>2012-05-13T10:52:35Z</time>
      </trkpt>
      <trkpt lat="59.8924811" lon="17.6432168">
        <ele>25.1317</ele>
        <time>2012-05-13T10:52:44Z</time>
      </trkpt>
      <trkpt lat="59.8923605" lon="17.6443896">
        <ele>26.0929</ele>
        <time>2012-05-13T10:52:54Z</time>
      </trkpt>
      <trkpt lat="59.8922834" lon="17.6451469">
        <ele>24.651</ele>
        <time>2012-05-13T10:53:01Z</time>
      </trkpt>
      <trkpt lat="59.8921723" lon="17.6460596">
        <ele>21.2864</ele>
        <time>2012-05-13T10:53:09Z</time>
      </trkpt>
      <trkpt lat="59.8920259" lon="17.6472706">
        <ele>22.2476</ele>
        <time>2012-05-13T10:53:19Z</time>
      </trkpt>
      <trkpt lat="59.8919387" lon="17.6479695">
        <ele>23.6896</ele>
        <time>2012-05-13T10:53:25Z</time>
      </trkpt>
      <trkpt lat="59.8918368" lon="17.6487403">
        <ele>25.1317</ele>
        <time>2012-05-13T10:53:32Z</time>
      </trkpt>
      <trkpt lat="59.8916419" lon="17.6496535">
        <ele>25.6123</ele>
        <time>2012-05-13T10:53:40Z</time>
      </trkpt>
      <trkpt lat="59.8913845" lon="17.6505625">
        <ele>22.7283</ele>
        <time>2012-05-13T10:53:48Z</time>
      </trkpt>
      <trkpt lat="59.8910293" lon="17.6515866">
        <ele>19.3638</ele>
        <time>2012-05-13T10:53:57Z</time>
      </trkpt>
      <trkpt lat="59.8906935" lon="17.6524957">
        <ele>11.6732</ele>
        <time>2012-05-13T10:54:05Z</time>
      </trkpt>
      <trkpt lat="59.8903807" lon="17.6533222">
        <ele>7.34717</ele>
        <time>2012-05-13T10:54:13Z</time>
      </trkpt>
      <trkpt lat="59.8900792" lon="17.6541477">
        <ele>2.06006</ele>
        <time>2012-05-13T10:54:21Z</time>
      </trkpt>
      <trkpt lat="59.889739" lon="17.6551337">
        <ele>1.09863</ele>
        <time>2012-05-13T10:54:30Z</time>
      </trkpt>
      <trkpt lat="59.8894175" lon="17.6559752">
        <ele>0</ele>
        <time>2012-05-13T10:54:38Z</time>
      </trkpt>
      <trkpt lat="59.8890571" lon="17.6569686">
        <ele>0</ele>
        <time>2012-05-13T10:54:47Z</time>
      </trkpt>
      <trkpt lat="59.8887657" lon="17.6577813">
        <ele>0.618042</ele>
        <time>2012-05-13T10:54:54Z</time>
      </trkpt>
      <trkpt lat="59.8884255" lon="17.6587108">
        <ele>9.75061</ele>
        <time>2012-05-13T10:55:02Z</time>
      </trkpt>
      <trkpt lat="59.8881354" lon="17.6595083">
        <ele>15.0377</ele>
        <time>2012-05-13T10:55:09Z</time>
      </trkpt>
      <trkpt lat="59.887744" lon="17.6605254">
        <ele>16.4797</ele>
        <time>2012-05-13T10:55:18Z</time>
      </trkpt>
      <trkpt lat="59.8876967" lon="17.6606157">
        <ele>16.4797</ele>
        <time>2012-05-13T10:55:19Z</time>
      </trkpt>
      <trkpt lat="59.8873524" lon="17.6609551">
        <ele>13.5958</ele>
        <time>2012-05-13T10:55:25Z</time>
      </trkpt>
      <trkpt lat="59.8871756" lon="17.6608965">
        <ele>12.1538</ele>
        <time>2012-05-13T10:55:28Z</time>
      </trkpt>
      <trkpt lat="59.8869902" lon="17.6608974">
        <ele>14.0764</ele>
        <time>2012-05-13T10:55:31Z</time>
      </trkpt>
      <trkpt lat="59.8869347" lon="17.6609569">
        <ele>13.5958</ele>
        <time>2012-05-13T10:55:32Z</time>
      </trkpt>
      <trkpt lat="59.8864967" lon="17.6613555">
        <ele>10.7118</ele>
        <time>2012-05-13T10:55:39Z</time>
      </trkpt>
      <trkpt lat="59.8862468" lon="17.6615547">
        <ele>9.75061</ele>
        <time>2012-05-13T10:55:43Z</time>
      </trkpt>
      <trkpt lat="59.8860254" lon="17.661635">
        <ele>10.2312</ele>
        <time>2012-05-13T10:55:47Z</time>
      </trkpt>
      <trkpt lat="59.8858104" lon="17.6616961">
        <ele>12.6344</ele>
        <time>2012-05-13T10:55:51Z</time>
      </trkpt>
      <trkpt lat="59.8856464" lon="17.6614262">
        <ele>14.557</ele>
        <time>2012-05-13T10:55:55Z</time>
      </trkpt>
      <trkpt lat="59.8854934" lon="17.6606817">
        <ele>17.9218</ele>
        <time>2012-05-13T10:56:03Z</time>
      </trkpt>
      <trkpt lat="59.8854547" lon="17.6604779">
        <ele>18.4023</ele>
        <time>2012-05-13T10:56:05Z</time>
      </trkpt>
      <trkpt lat="59.8854343" lon="17.6602822">
        <ele>18.8831</ele>
        <time>2012-05-13T10:56:07Z</time>
      </trkpt>
      <trkpt lat="59.8855165" lon="17.6597665">
        <ele>22.2476</ele>
        <time>2012-05-13T10:56:12Z</time>
      </trkpt>
      <trkpt lat="59.8855477" lon="17.6593037">
        <ele>24.1703</ele>
        <time>2012-05-13T10:56:16Z</time>
      </trkpt>
      <trkpt lat="59.8854545" lon="17.6591067">
        <ele>23.209</ele>
        <time>2012-05-13T10:56:20Z</time>
      </trkpt>
      <trkpt lat="59.8854591" lon="17.6592656">
        <ele>22.7283</ele>
        <time>2012-05-13T10:56:22Z</time>
      </trkpt>
      <trkpt lat="59.8854564" lon="17.659358">
        <ele>22.7283</ele>
        <time>2012-05-13T10:56:23Z</time>
      </trkpt>
      <trkpt lat="59.8854413" lon="17.6596904">
        <ele>25.1317</ele>
        <time>2012-05-13T10:56:26Z</time>
      </trkpt>
      <trkpt lat="59.8853959" lon="17.6600049">
        <ele>26.5736</ele>
        <time>2012-05-13T10:56:29Z</time>
      </trkpt>
      <trkpt lat="59.8851865" lon="17.6603563">
        <ele>20.8057</ele>
        <time>2012-05-13T10:56:33Z</time>
      </trkpt>
      <trkpt lat="59.884623" lon="17.6607959">
        <ele>15.0377</ele>
        <time>2012-05-13T10:56:41Z</time>
      </trkpt>
      <trkpt lat="59.8842543" lon="17.6610913">
        <ele>12.6344</ele>
        <time>2012-05-13T10:56:48Z</time>
      </trkpt>
      <trkpt lat="59.8840564" lon="17.6613755">
        <ele>13.5958</ele>
        <time>2012-05-13T10:56:53Z</time>
      </trkpt>
      <trkpt lat="59.8839885" lon="17.6615301">
        <ele>13.1151</ele>
        <time>2012-05-13T10:56:55Z</time>
      </trkpt>
      <trkpt lat="59.8838373" lon="17.6621164">
        <ele>13.5958</ele>
        <time>2012-05-13T10:57:01Z</time>
      </trkpt>
      <trkpt lat="59.8836916" lon="17.6631203">
        <ele>14.0764</ele>
        <time>2012-05-13T10:57:10Z</time>
      </trkpt>
      <trkpt lat="59.8835228" lon="17.6639052">
        <ele>18.4023</ele>
        <time>2012-05-13T10:57:18Z</time>
      </trkpt>
      <trkpt lat="59.8833524" lon="17.6643838">
        <ele>22.2476</ele>
        <time>2012-05-13T10:57:24Z</time>
      </trkpt>
      <trkpt lat="59.8831203" lon="17.6646328">
        <ele>20.325</ele>
        <time>2012-05-13T10:57:29Z</time>
      </trkpt>
      <trkpt lat="59.8830607" lon="17.6646591">
        <ele>19.3638</ele>
        <time>2012-05-13T10:57:30Z</time>
      </trkpt>
      <trkpt lat="59.8824788" lon="17.6647789">
        <ele>23.209</ele>
        <time>2012-05-13T10:57:40Z</time>
      </trkpt>
      <trkpt lat="59.8822045" lon="17.6648871">
        <ele>24.651</ele>
        <time>2012-05-13T10:57:45Z</time>
      </trkpt>
      <trkpt lat="59.8819693" lon="17.665223">
        <ele>25.6123</ele>
        <time>2012-05-13T10:57:50Z</time>
      </trkpt>
      <trkpt lat="59.8819367" lon="17.6653181">
        <ele>26.0929</ele>
        <time>2012-05-13T10:57:51Z</time>
      </trkpt>
      <trkpt lat="59.8816625" lon="17.6662671">
        <ele>26.5736</ele>
        <time>2012-05-13T10:58:00Z</time>
      </trkpt>
      <trkpt lat="59.8813573" lon="17.6673029">
        <ele>26.0929</ele>
        <time>2012-05-13T10:58:09Z</time>
      </trkpt>
      <trkpt lat="59.8810186" lon="17.6683874">
        <ele>24.1703</ele>
        <time>2012-05-13T10:58:18Z</time>
      </trkpt>
      <trkpt lat="59.8809607" lon="17.6685689">
        <ele>24.1703</ele>
        <time>2012-05-13T10:58:20Z</time>
      </trkpt>
      <trkpt lat="59.8808989" lon="17.6687063">
        <ele>25.1317</ele>
        <time>2012-05-13T10:58:22Z</time>
      </trkpt>
      <trkpt lat="59.8807728" lon="17.6689226">
        <ele>27.0543</ele>
        <time>2012-05-13T10:58:26Z</time>
      </trkpt>
      <trkpt lat="59.8806359" lon="17.6693767">
        <ele>24.1703</ele>
        <time>2012-05-13T10:58:31Z</time>
      </trkpt>
      <trkpt lat="59.8805209" lon="17.6696484">
        <ele>24.651</ele>
        <time>2012-05-13T10:58:34Z</time>
      </trkpt>
      <trkpt lat="59.8802144" lon="17.6701337">
        <ele>27.0543</ele>
        <time>2012-05-13T10:58:40Z</time>
      </trkpt>
      <trkpt lat="59.8799211" lon="17.6705305">
        <ele>28.0155</ele>
        <time>2012-05-13T10:58:45Z</time>
      </trkpt>
      <trkpt lat="59.8798694" lon="17.6706035">
        <ele>28.0155</ele>
        <time>2012-05-13T10:58:46Z</time>
      </trkpt>
      <trkpt lat="59.8797575" lon="17.6708041">
        <ele>26.5736</ele>
        <time>2012-05-13T10:58:49Z</time>
      </trkpt>
      <trkpt lat="59.8795786" lon="17.6710631">
        <ele>25.1317</ele>
        <time>2012-05-13T10:58:54Z</time>
      </trkpt>
      <trkpt lat="59.8793518" lon="17.6713109">
        <ele>27.5349</ele>
        <time>2012-05-13T10:59:00Z</time>
      </trkpt>
      <trkpt lat="59.8791415" lon="17.6712988">
        <ele>28.0155</ele>
        <time>2012-05-13T10:59:04Z</time>
      </trkpt>
      <trkpt lat="59.8788523" lon="17.6713218">
        <ele>26.5736</ele>
        <time>2012-05-13T10:59:09Z</time>
      </trkpt>
      <trkpt lat="59.8787797" lon="17.6715686">
        <ele>25.1317</ele>
        <time>2012-05-13T10:59:12Z</time>
      </trkpt>
      <trkpt lat="59.8787752" lon="17.6719717">
        <ele>25.1317</ele>
        <time>2012-05-13T10:59:16Z</time>
      </trkpt>
      <trkpt lat="59.878771" lon="17.6720669">
        <ele>25.1317</ele>
        <time>2012-05-13T10:59:17Z</time>
      </trkpt>
      <trkpt lat="59.8787518" lon="17.6724424">
        <ele>23.6896</ele>
        <time>2012-05-13T10:59:21Z</time>
      </trkpt>
      <trkpt lat="59.8787839" lon="17.6734086">
        <ele>23.209</ele>
        <time>2012-05-13T10:59:31Z</time>
      </trkpt>
      <trkpt lat="59.8787918" lon="17.6736016">
        <ele>22.7283</ele>
        <time>2012-05-13T10:59:33Z</time>
      </trkpt>
      <trkpt lat="59.8788455" lon="17.6743579">
        <ele>20.8057</ele>
        <time>2012-05-13T10:59:40Z</time>
      </trkpt>
      <trkpt lat="59.8787814" lon="17.6747238">
        <ele>22.2476</ele>
        <time>2012-05-13T10:59:44Z</time>
      </trkpt>
      <trkpt lat="59.8786077" lon="17.6747792">
        <ele>23.6896</ele>
        <time>2012-05-13T10:59:47Z</time>
      </trkpt>
      <trkpt lat="59.8784001" lon="17.6748259">
        <ele>27.5349</ele>
        <time>2012-05-13T10:59:51Z</time>
      </trkpt>
      <trkpt lat="59.8783083" lon="17.6749227">
        <ele>28.9769</ele>
        <time>2012-05-13T10:59:53Z</time>
      </trkpt>
      <trkpt lat="59.8779433" lon="17.675306">
        <ele>32.3416</ele>
        <time>2012-05-13T11:00:01Z</time>
      </trkpt>
      <trkpt lat="59.8777532" lon="17.6754372">
        <ele>28.9769</ele>
        <time>2012-05-13T11:00:05Z</time>
      </trkpt>
      <trkpt lat="59.8777476" lon="17.6758292">
        <ele>27.0543</ele>
        <time>2012-05-13T11:00:09Z</time>
      </trkpt>
      <trkpt lat="59.8779234" lon="17.6765866">
        <ele>26.5736</ele>
        <time>2012-05-13T11:00:15Z</time>
      </trkpt>
      <trkpt lat="59.8780032" lon="17.6768627">
        <ele>25.1317</ele>
        <time>2012-05-13T11:00:18Z</time>
      </trkpt>
      <trkpt lat="59.8781691" lon="17.6772202">
        <ele>26.0929</ele>
        <time>2012-05-13T11:00:22Z</time>
      </trkpt>
      <trkpt lat="59.8782147" lon="17.6775222">
        <ele>25.6123</ele>
        <time>2012-05-13T11:00:27Z</time>
      </trkpt>
      <trkpt lat="59.8781936" lon="17.6776339">
        <ele>27.5349</ele>
        <time>2012-05-13T11:00:29Z</time>
      </trkpt>
      <trkpt lat="59.8781681" lon="17.6779199">
        <ele>26.0929</ele>
        <time>2012-05-13T11:00:34Z</time>
      </trkpt>
      <trkpt lat="59.8782075" lon="17.6780694">
        <ele>25.6123</ele>
        <time>2012-05-13T11:00:37Z</time>
      </trkpt>
      <trkpt lat="59.878168" lon="17.6782849">
        <ele>26.0929</ele>
        <time>2012-05-13T11:00:41Z</time>
      </trkpt>
      <trkpt lat="59.8779897" lon="17.6786511">
        <ele>25.1317</ele>
        <time>2012-05-13T11:00:48Z</time>
      </trkpt>
      <trkpt lat="59.877739" lon="17.6789769">
        <ele>23.209</ele>
        <time>2012-05-13T11:00:55Z</time>
      </trkpt>
      <trkpt lat="59.8776579" lon="17.6790752">
        <ele>22.7283</ele>
        <time>2012-05-13T11:00:57Z</time>
      </trkpt>
      <trkpt lat="59.8776029" lon="17.6793227">
        <ele>20.8057</ele>
        <time>2012-05-13T11:01:00Z</time>
      </trkpt>
      <trkpt lat="59.877573" lon="17.6795122">
        <ele>20.8057</ele>
        <time>2012-05-13T11:01:03Z</time>
      </trkpt>
      <trkpt lat="59.8775491" lon="17.6795693">
        <ele>20.8057</ele>
        <time>2012-05-13T11:01:04Z</time>
      </trkpt>
      <trkpt lat="59.8774325" lon="17.6797173">
        <ele>21.2864</ele>
        <time>2012-05-13T11:01:09Z</time>
      </trkpt>
      <trkpt lat="59.8774157" lon="17.6798826">
        <ele>20.8057</ele>
        <time>2012-05-13T11:01:13Z</time>
      </trkpt>
      <trkpt lat="59.8774621" lon="17.6799886">
        <ele>18.8831</ele>
        <time>2012-05-13T11:01:18Z</time>
      </trkpt>
      <trkpt lat="59.8774189" lon="17.6800484">
        <ele>21.2864</ele>
        <time>2012-05-13T11:01:22Z</time>
      </trkpt>
      <trkpt lat="59.8772371" lon="17.6802462">
        <ele>22.7283</ele>
        <time>2012-05-13T11:01:28Z</time>
      </trkpt>
      <trkpt lat="59.8771123" lon="17.6805312">
        <ele>22.2476</ele>
        <time>2012-05-13T11:01:33Z</time>
      </trkpt>
      <trkpt lat="59.8769229" lon="17.6808984">
        <ele>20.8057</ele>
        <time>2012-05-13T11:01:40Z</time>
      </trkpt>
      <trkpt lat="59.8767387" lon="17.6813351">
        <ele>21.2864</ele>
        <time>2012-05-13T11:01:47Z</time>
      </trkpt>
      <trkpt lat="59.8765608" lon="17.6817986">
        <ele>19.8444</ele>
        <time>2012-05-13T11:01:55Z</time>
      </trkpt>
      <trkpt lat="59.8764482" lon="17.6820053">
        <ele>19.8444</ele>
        <time>2012-05-13T11:01:58Z</time>
      </trkpt>
      <trkpt lat="59.8761768" lon="17.6826128">
        <ele>21.2864</ele>
        <time>2012-05-13T11:02:06Z</time>
      </trkpt>
      <trkpt lat="59.8758517" lon="17.683344">
        <ele>20.8057</ele>
        <time>2012-05-13T11:02:15Z</time>
      </trkpt>
      <trkpt lat="59.87549" lon="17.684136">
        <ele>24.651</ele>
        <time>2012-05-13T11:02:24Z</time>
      </trkpt>
      <trkpt lat="59.8751036" lon="17.684932">
        <ele>22.7283</ele>
        <time>2012-05-13T11:02:33Z</time>
      </trkpt>
      <trkpt lat="59.8747597" lon="17.685648">
        <ele>21.767</ele>
        <time>2012-05-13T11:02:41Z</time>
      </trkpt>
      <trkpt lat="59.8744726" lon="17.6862881">
        <ele>19.3638</ele>
        <time>2012-05-13T11:02:48Z</time>
      </trkpt>
      <trkpt lat="59.8741743" lon="17.6869509">
        <ele>17.4412</ele>
        <time>2012-05-13T11:02:56Z</time>
      </trkpt>
      <trkpt lat="59.8739997" lon="17.6873507">
        <ele>15.999</ele>
        <time>2012-05-13T11:03:01Z</time>
      </trkpt>
      <trkpt lat="59.8739187" lon="17.6878056">
        <ele>15.999</ele>
        <time>2012-05-13T11:03:06Z</time>
      </trkpt>
      <trkpt lat="59.8738283" lon="17.6881609">
        <ele>17.4412</ele>
        <time>2012-05-13T11:03:11Z</time>
      </trkpt>
      <trkpt lat="59.8737417" lon="17.6882345">
        <ele>17.9218</ele>
        <time>2012-05-13T11:03:13Z</time>
      </trkpt>
      <trkpt lat="59.8734235" lon="17.688564">
        <ele>21.2864</ele>
        <time>2012-05-13T11:03:20Z</time>
      </trkpt>
      <trkpt lat="59.8731331" lon="17.6888943">
        <ele>18.8831</ele>
        <time>2012-05-13T11:03:26Z</time>
      </trkpt>
      <trkpt lat="59.8728425" lon="17.6894373">
        <ele>17.9218</ele>
        <time>2012-05-13T11:03:33Z</time>
      </trkpt>
      <trkpt lat="59.8727495" lon="17.6896876">
        <ele>18.4023</ele>
        <time>2012-05-13T11:03:36Z</time>
      </trkpt>
      <trkpt lat="59.8725617" lon="17.6902552">
        <ele>18.8831</ele>
        <time>2012-05-13T11:03:42Z</time>
      </trkpt>
      <trkpt lat="59.8724201" lon="17.6907534">
        <ele>17.9218</ele>
        <time>2012-05-13T11:03:47Z</time>
      </trkpt>
      <trkpt lat="59.872196" lon="17.6913077">
        <ele>16.4797</ele>
        <time>2012-05-13T11:03:54Z</time>
      </trkpt>
      <trkpt lat="59.8720027" lon="17.6917449">
        <ele>17.9218</ele>
        <time>2012-05-13T11:04:00Z</time>
      </trkpt>
      <trkpt lat="59.8718442" lon="17.6920731">
        <ele>17.9218</ele>
        <time>2012-05-13T11:04:04Z</time>
      </trkpt>
      <trkpt lat="59.8715516" lon="17.6926947">
        <ele>15.5184</ele>
        <time>2012-05-13T11:04:11Z</time>
      </trkpt>
      <trkpt lat="59.8713209" lon="17.6931903">
        <ele>15.5184</ele>
        <time>2012-05-13T11:04:16Z</time>
      </trkpt>
      <trkpt lat="59.8710202" lon="17.6937493">
        <ele>15.0377</ele>
        <time>2012-05-13T11:04:22Z</time>
      </trkpt>
      <trkpt lat="59.8706664" lon="17.694188">
        <ele>16.9604</ele>
        <time>2012-05-13T11:04:28Z</time>
      </trkpt>
      <trkpt lat="59.8703211" lon="17.6945817">
        <ele>17.4412</ele>
        <time>2012-05-13T11:04:34Z</time>
      </trkpt>
      <trkpt lat="59.8700099" lon="17.6949303">
        <ele>19.8444</ele>
        <time>2012-05-13T11:04:40Z</time>
      </trkpt>
      <trkpt lat="59.8696896" lon="17.6952898">
        <ele>19.3638</ele>
        <time>2012-05-13T11:04:46Z</time>
      </trkpt>
      <trkpt lat="59.8693236" lon="17.6957696">
        <ele>17.9218</ele>
        <time>2012-05-13T11:04:53Z</time>
      </trkpt>
      <trkpt lat="59.8692222" lon="17.6958858">
        <ele>19.8444</ele>
        <time>2012-05-13T11:04:55Z</time>
      </trkpt>
      <trkpt lat="59.8691195" lon="17.6960343">
        <ele>18.8831</ele>
        <time>2012-05-13T11:04:57Z</time>
      </trkpt>
      <trkpt lat="59.8688668" lon="17.6963516">
        <ele>20.325</ele>
        <time>2012-05-13T11:05:02Z</time>
      </trkpt>
      <trkpt lat="59.8684262" lon="17.6966862">
        <ele>18.8831</ele>
        <time>2012-05-13T11:05:10Z</time>
      </trkpt>
      <trkpt lat="59.8683746" lon="17.6967242">
        <ele>19.3638</ele>
        <time>2012-05-13T11:05:11Z</time>
      </trkpt>
      <trkpt lat="59.8679753" lon="17.6971619">
        <ele>16.4797</ele>
        <time>2012-05-13T11:05:18Z</time>
      </trkpt>
      <trkpt lat="59.8675546" lon="17.6975668">
        <ele>16.9604</ele>
        <time>2012-05-13T11:05:25Z</time>
      </trkpt>
      <trkpt lat="59.8673764" lon="17.6976786">
        <ele>16.4797</ele>
        <time>2012-05-13T11:05:28Z</time>
      </trkpt>
      <trkpt lat="59.8671972" lon="17.6978296">
        <ele>15.5184</ele>
        <time>2012-05-13T11:05:31Z</time>
      </trkpt>
      <trkpt lat="59.8669745" lon="17.6981233">
        <ele>15.999</ele>
        <time>2012-05-13T11:05:35Z</time>
      </trkpt>
      <trkpt lat="59.8668367" lon="17.6983922">
        <ele>16.9604</ele>
        <time>2012-05-13T11:05:38Z</time>
      </trkpt>
      <trkpt lat="59.8664941" lon="17.6988956">
        <ele>21.767</ele>
        <time>2012-05-13T11:05:45Z</time>
      </trkpt>
      <trkpt lat="59.8662689" lon="17.6991614">
        <ele>21.767</ele>
        <time>2012-05-13T11:05:50Z</time>
      </trkpt>
      <trkpt lat="59.8660362" lon="17.699597">
        <ele>21.2864</ele>
        <time>2012-05-13T11:05:56Z</time>
      </trkpt>
      <trkpt lat="59.8659773" lon="17.699769">
        <ele>20.8057</ele>
        <time>2012-05-13T11:05:58Z</time>
      </trkpt>
      <trkpt lat="59.8658958" lon="17.6999306">
        <ele>19.8444</ele>
        <time>2012-05-13T11:06:00Z</time>
      </trkpt>
      <trkpt lat="59.8656759" lon="17.7005595">
        <ele>19.8444</ele>
        <time>2012-05-13T11:06:07Z</time>
      </trkpt>
      <trkpt lat="59.8655994" lon="17.7007522">
        <ele>19.8444</ele>
        <time>2012-05-13T11:06:09Z</time>
      </trkpt>
      <trkpt lat="59.8654832" lon="17.701176">
        <ele>16.9604</ele>
        <time>2012-05-13T11:06:13Z</time>
      </trkpt>
      <trkpt lat="59.865368" lon="17.701505">
        <ele>15.0377</ele>
        <time>2012-05-13T11:06:16Z</time>
      </trkpt>
      <trkpt lat="59.8649188" lon="17.7022368">
        <ele>13.5958</ele>
        <time>2012-05-13T11:06:24Z</time>
      </trkpt>
      <trkpt lat="59.8648138" lon="17.7024151">
        <ele>12.6344</ele>
        <time>2012-05-13T11:06:26Z</time>
      </trkpt>
      <trkpt lat="59.8645279" lon="17.7028253">
        <ele>12.6344</ele>
        <time>2012-05-13T11:06:32Z</time>
      </trkpt>
      <trkpt lat="59.8644451" lon="17.7028733">
        <ele>13.1151</ele>
        <time>2012-05-13T11:06:33Z</time>
      </trkpt>
      <trkpt lat="59.8643025" lon="17.7029993">
        <ele>13.1151</ele>
        <time>2012-05-13T11:06:37Z</time>
      </trkpt>
      <trkpt lat="59.8642557" lon="17.7030406">
        <ele>11.6732</ele>
        <time>2012-05-13T11:06:40Z</time>
      </trkpt>
      <trkpt lat="59.8642141" lon="17.7030567">
        <ele>11.6732</ele>
        <time>2012-05-13T11:06:44Z</time>
      </trkpt>
      <trkpt lat="59.8641972" lon="17.7030776">
        <ele>11.1925</ele>
        <time>2012-05-13T11:06:45Z</time>
      </trkpt>
      <trkpt lat="59.8640332" lon="17.7032924">
        <ele>10.7118</ele>
        <time>2012-05-13T11:06:50Z</time>
      </trkpt>
      <trkpt lat="59.863783" lon="17.7035705">
        <ele>9.75061</ele>
        <time>2012-05-13T11:06:55Z</time>
      </trkpt>
      <trkpt lat="59.8633642" lon="17.7041971">
        <ele>13.1151</ele>
        <time>2012-05-13T11:07:03Z</time>
      </trkpt>
      <trkpt lat="59.8630814" lon="17.704442">
        <ele>14.557</ele>
        <time>2012-05-13T11:07:08Z</time>
      </trkpt>
      <trkpt lat="59.8628294" lon="17.7044491">
        <ele>15.0377</ele>
        <time>2012-05-13T11:07:12Z</time>
      </trkpt>
      <trkpt lat="59.8621757" lon="17.7041633">
        <ele>15.5184</ele>
        <time>2012-05-13T11:07:22Z</time>
      </trkpt>
      <trkpt lat="59.8616846" lon="17.7039575">
        <ele>15.999</ele>
        <time>2012-05-13T11:07:29Z</time>
      </trkpt>
      <trkpt lat="59.8611581" lon="17.7037489">
        <ele>18.4023</ele>
        <time>2012-05-13T11:07:37Z</time>
      </trkpt>
      <trkpt lat="59.8608918" lon="17.703695">
        <ele>19.3638</ele>
        <time>2012-05-13T11:07:41Z</time>
      </trkpt>
      <trkpt lat="59.8605196" lon="17.7038806">
        <ele>20.325</ele>
        <time>2012-05-13T11:07:47Z</time>
      </trkpt>
      <trkpt lat="59.860135" lon="17.704107">
        <ele>24.1703</ele>
        <time>2012-05-13T11:07:53Z</time>
      </trkpt>
      <trkpt lat="59.8597409" lon="17.7043232">
        <ele>24.1703</ele>
        <time>2012-05-13T11:07:59Z</time>
      </trkpt>
      <trkpt lat="59.8592785" lon="17.7045089">
        <ele>22.2476</ele>
        <time>2012-05-13T11:08:06Z</time>
      </trkpt>
      <trkpt lat="59.8591716" lon="17.7045801">
        <ele>21.767</ele>
        <time>2012-05-13T11:08:08Z</time>
      </trkpt>
      <trkpt lat="59.8590104" lon="17.7047821">
        <ele>22.2476</ele>
        <time>2012-05-13T11:08:12Z</time>
      </trkpt>
      <trkpt lat="59.8588855" lon="17.7050698">
        <ele>20.8057</ele>
        <time>2012-05-13T11:08:17Z</time>
      </trkpt>
      <trkpt lat="59.8587561" lon="17.7051784">
        <ele>19.8444</ele>
        <time>2012-05-13T11:08:22Z</time>
      </trkpt>
      <trkpt lat="59.8586935" lon="17.705031">
        <ele>19.3638</ele>
        <time>2012-05-13T11:08:25Z</time>
      </trkpt>
      <trkpt lat="59.8586177" lon="17.7047075">
        <ele>20.8057</ele>
        <time>2012-05-13T11:08:30Z</time>
      </trkpt>
      <trkpt lat="59.8586068" lon="17.7046601">
        <ele>20.325</ele>
        <time>2012-05-13T11:08:31Z</time>
      </trkpt>
      <trkpt lat="59.8585419" lon="17.7046198">
        <ele>20.325</ele>
        <time>2012-05-13T11:08:35Z</time>
      </trkpt>
      <trkpt lat="59.8585258" lon="17.7046227">
        <ele>21.2864</ele>
        <time>2012-05-13T11:08:42Z</time>
      </trkpt>
      <trkpt lat="59.8584905" lon="17.7046249">
        <ele>23.6896</ele>
        <time>2012-05-13T11:08:50Z</time>
      </trkpt>
      <trkpt lat="59.8584374" lon="17.7046864">
        <ele>24.651</ele>
        <time>2012-05-13T11:08:55Z</time>
      </trkpt>
      <trkpt lat="59.858405" lon="17.7047137">
        <ele>25.1317</ele>
        <time>2012-05-13T11:08:57Z</time>
      </trkpt>
      <trkpt lat="59.8583132" lon="17.7046172">
        <ele>23.209</ele>
        <time>2012-05-13T11:09:02Z</time>
      </trkpt>
      <trkpt lat="59.8582742" lon="17.7045081">
        <ele>22.2476</ele>
        <time>2012-05-13T11:09:07Z</time>
      </trkpt>
      <trkpt lat="59.8582631" lon="17.7044913">
        <ele>21.2864</ele>
        <time>2012-05-13T11:09:09Z</time>
      </trkpt>
      <trkpt lat="59.8581433" lon="17.7049112">
        <ele>23.209</ele>
        <time>2012-05-13T11:19:20Z</time>
      </trkpt>
      <trkpt lat="59.8579947" lon="17.7050481">
        <ele>23.6896</ele>
        <time>2012-05-13T11:19:23Z</time>
      </trkpt>
      <trkpt lat="59.8578892" lon="17.7049251">
        <ele>22.2476</ele>
        <time>2012-05-13T11:19:27Z</time>
      </trkpt>
      <trkpt lat="59.857822" lon="17.7046192">
        <ele>20.8057</ele>
        <time>2012-05-13T11:19:31Z</time>
      </trkpt>
      <trkpt lat="59.8578383" lon="17.7042684">
        <ele>19.8444</ele>
        <time>2012-05-13T11:19:35Z</time>
      </trkpt>
      <trkpt lat="59.857975" lon="17.7040904">
        <ele>19.8444</ele>
        <time>2012-05-13T11:19:38Z</time>
      </trkpt>
      <trkpt lat="59.8580323" lon="17.7040512">
        <ele>19.8444</ele>
        <time>2012-05-13T11:19:39Z</time>
      </trkpt>
      <trkpt lat="59.8582894" lon="17.7038267">
        <ele>20.325</ele>
        <time>2012-05-13T11:19:44Z</time>
      </trkpt>
      <trkpt lat="59.8583431" lon="17.7036026">
        <ele>22.2476</ele>
        <time>2012-05-13T11:19:47Z</time>
      </trkpt>
      <trkpt lat="59.8583036" lon="17.7033873">
        <ele>22.7283</ele>
        <time>2012-05-13T11:19:49Z</time>
      </trkpt>
      <trkpt lat="59.8581398" lon="17.7023788">
        <ele>24.651</ele>
        <time>2012-05-13T11:19:58Z</time>
      </trkpt>
      <trkpt lat="59.857971" lon="17.7016723">
        <ele>25.1317</ele>
        <time>2012-05-13T11:20:06Z</time>
      </trkpt>
      <trkpt lat="59.8578199" lon="17.7010447">
        <ele>23.6896</ele>
        <time>2012-05-13T11:20:12Z</time>
      </trkpt>
      <trkpt lat="59.8576394" lon="17.7002752">
        <ele>21.2864</ele>
        <time>2012-05-13T11:20:20Z</time>
      </trkpt>
      <trkpt lat="59.8574678" lon="17.6994307">
        <ele>18.4023</ele>
        <time>2012-05-13T11:20:28Z</time>
      </trkpt>
      <trkpt lat="59.8573385" lon="17.69875">
        <ele>15.5184</ele>
        <time>2012-05-13T11:20:35Z</time>
      </trkpt>
      <trkpt lat="59.8571875" lon="17.6977566">
        <ele>15.0377</ele>
        <time>2012-05-13T11:20:45Z</time>
      </trkpt>
      <trkpt lat="59.8570473" lon="17.6970001">
        <ele>14.557</ele>
        <time>2012-05-13T11:20:52Z</time>
      </trkpt>
      <trkpt lat="59.8568796" lon="17.6960999">
        <ele>12.6344</ele>
        <time>2012-05-13T11:21:00Z</time>
      </trkpt>
      <trkpt lat="59.8567327" lon="17.6953239">
        <ele>11.6732</ele>
        <time>2012-05-13T11:21:07Z</time>
      </trkpt>
      <trkpt lat="59.8565692" lon="17.6944599">
        <ele>12.1538</ele>
        <time>2012-05-13T11:21:15Z</time>
      </trkpt>
      <trkpt lat="59.8564343" lon="17.6936682">
        <ele>10.7118</ele>
        <time>2012-05-13T11:21:23Z</time>
      </trkpt>
      <trkpt lat="59.8563536" lon="17.6932719">
        <ele>10.7118</ele>
        <time>2012-05-13T11:21:27Z</time>
      </trkpt>
      <trkpt lat="59.8563122" lon="17.692766">
        <ele>10.2312</ele>
        <time>2012-05-13T11:21:32Z</time>
      </trkpt>
      <trkpt lat="59.8562323" lon="17.6921413">
        <ele>11.1925</ele>
        <time>2012-05-13T11:21:38Z</time>
      </trkpt>
      <trkpt lat="59.8561233" lon="17.6915305">
        <ele>12.1538</ele>
        <time>2012-05-13T11:21:44Z</time>
      </trkpt>
      <trkpt lat="59.8561343" lon="17.6912041">
        <ele>13.5958</ele>
        <time>2012-05-13T11:21:48Z</time>
      </trkpt>
      <trkpt lat="59.8561777" lon="17.6910064">
        <ele>15.0377</ele>
        <time>2012-05-13T11:21:51Z</time>
      </trkpt>
      <trkpt lat="59.8562247" lon="17.6909145">
        <ele>15.5184</ele>
        <time>2012-05-13T11:21:53Z</time>
      </trkpt>
      <trkpt lat="59.8562205" lon="17.6907277">
        <ele>15.999</ele>
        <time>2012-05-13T11:21:57Z</time>
      </trkpt>
      <trkpt lat="59.8561801" lon="17.6905648">
        <ele>16.4797</ele>
        <time>2012-05-13T11:22:01Z</time>
      </trkpt>
      <trkpt lat="59.8560682" lon="17.6905344">
        <ele>17.4412</ele>
        <time>2012-05-13T11:22:04Z</time>
      </trkpt>
      <trkpt lat="59.8559754" lon="17.6903485">
        <ele>16.4797</ele>
        <time>2012-05-13T11:22:07Z</time>
      </trkpt>
      <trkpt lat="59.8559489" lon="17.6902625">
        <ele>16.4797</ele>
        <time>2012-05-13T11:22:08Z</time>
      </trkpt>
      <trkpt lat="59.8557858" lon="17.6895858">
        <ele>16.4797</ele>
        <time>2012-05-13T11:22:15Z</time>
      </trkpt>
      <trkpt lat="59.8557161" lon="17.6892757">
        <ele>16.9604</ele>
        <time>2012-05-13T11:22:18Z</time>
      </trkpt>
      <trkpt lat="59.8556745" lon="17.6888319">
        <ele>17.9218</ele>
        <time>2012-05-13T11:22:22Z</time>
      </trkpt>
      <trkpt lat="59.8556522" lon="17.6886159">
        <ele>17.4412</ele>
        <time>2012-05-13T11:22:24Z</time>
      </trkpt>
      <trkpt lat="59.85552" lon="17.6879154">
        <ele>17.4412</ele>
        <time>2012-05-13T11:22:31Z</time>
      </trkpt>
      <trkpt lat="59.8553157" lon="17.6867441">
        <ele>16.4797</ele>
        <time>2012-05-13T11:22:42Z</time>
      </trkpt>
      <trkpt lat="59.8552715" lon="17.6865319">
        <ele>17.9218</ele>
        <time>2012-05-13T11:22:44Z</time>
      </trkpt>
      <trkpt lat="59.855277" lon="17.6861343">
        <ele>18.4023</ele>
        <time>2012-05-13T11:22:48Z</time>
      </trkpt>
      <trkpt lat="59.8553088" lon="17.6859533">
        <ele>17.9218</ele>
        <time>2012-05-13T11:22:50Z</time>
      </trkpt>
      <trkpt lat="59.8552565" lon="17.6856516">
        <ele>16.9604</ele>
        <time>2012-05-13T11:22:54Z</time>
      </trkpt>
      <trkpt lat="59.8552732" lon="17.6855187">
        <ele>17.9218</ele>
        <time>2012-05-13T11:22:56Z</time>
      </trkpt>
      <trkpt lat="59.8553055" lon="17.6854786">
        <ele>17.9218</ele>
        <time>2012-05-13T11:22:57Z</time>
      </trkpt>
      <trkpt lat="59.8553771" lon="17.6854061">
        <ele>18.4023</ele>
        <time>2012-05-13T11:22:59Z</time>
      </trkpt>
      <trkpt lat="59.8554285" lon="17.6852021">
        <ele>18.4023</ele>
        <time>2012-05-13T11:23:02Z</time>
      </trkpt>
      <trkpt lat="59.855359" lon="17.6849622">
        <ele>17.9218</ele>
        <time>2012-05-13T11:23:05Z</time>
      </trkpt>
      <trkpt lat="59.8552403" lon="17.6847647">
        <ele>17.4412</ele>
        <time>2012-05-13T11:23:08Z</time>
      </trkpt>
      <trkpt lat="59.8549312" lon="17.6842674">
        <ele>23.209</ele>
        <time>2012-05-13T11:23:13Z</time>
      </trkpt>
      <trkpt lat="59.8547307" lon="17.6843676">
        <ele>26.0929</ele>
        <time>2012-05-13T11:23:17Z</time>
      </trkpt>
      <trkpt lat="59.8545894" lon="17.6844692">
        <ele>27.5349</ele>
        <time>2012-05-13T11:23:20Z</time>
      </trkpt>
      <trkpt lat="59.8543304" lon="17.684428">
        <ele>29.9381</ele>
        <time>2012-05-13T11:23:26Z</time>
      </trkpt>
      <trkpt lat="59.8542583" lon="17.6843545">
        <ele>30.4188</ele>
        <time>2012-05-13T11:23:28Z</time>
      </trkpt>
      <trkpt lat="59.8538078" lon="17.6838857">
        <ele>29.9381</ele>
        <time>2012-05-13T11:23:41Z</time>
      </trkpt>
      <trkpt lat="59.8536976" lon="17.6837615">
        <ele>29.9381</ele>
        <time>2012-05-13T11:23:44Z</time>
      </trkpt>
      <trkpt lat="59.8536139" lon="17.6834687">
        <ele>28.9769</ele>
        <time>2012-05-13T11:23:48Z</time>
      </trkpt>
      <trkpt lat="59.8535982" lon="17.6831994">
        <ele>28.4962</ele>
        <time>2012-05-13T11:23:51Z</time>
      </trkpt>
      <trkpt lat="59.8536626" lon="17.6830172">
        <ele>27.5349</ele>
        <time>2012-05-13T11:23:54Z</time>
      </trkpt>
      <trkpt lat="59.8537013" lon="17.683033">
        <ele>27.5349</ele>
        <time>2012-05-13T11:23:55Z</time>
      </trkpt>
      <trkpt lat="59.8538802" lon="17.6831661">
        <ele>26.5736</ele>
        <time>2012-05-13T11:24:00Z</time>
      </trkpt>
      <trkpt lat="59.8540973" lon="17.683161">
        <ele>27.0543</ele>
        <time>2012-05-13T11:24:06Z</time>
      </trkpt>
      <trkpt lat="59.8543034" lon="17.6830917">
        <ele>26.0929</ele>
        <time>2012-05-13T11:24:13Z</time>
      </trkpt>
      <trkpt lat="59.8543237" lon="17.6830761">
        <ele>23.6896</ele>
        <time>2012-05-13T11:24:19Z</time>
      </trkpt>
      <trkpt lat="59.854334" lon="17.6830477">
        <ele>20.325</ele>
        <time>2012-05-13T11:24:25Z</time>
      </trkpt>
      <trkpt lat="59.8540031" lon="17.6829701">
        <ele>27.5349</ele>
        <time>2012-05-13T11:33:00Z</time>
      </trkpt>
      <trkpt lat="59.8539364" lon="17.6830637">
        <ele>25.1317</ele>
        <time>2012-05-13T11:33:02Z</time>
      </trkpt>
      <trkpt lat="59.853778" lon="17.6830542">
        <ele>22.2476</ele>
        <time>2012-05-13T11:33:06Z</time>
      </trkpt>
      <trkpt lat="59.8536533" lon="17.6829768">
        <ele>21.767</ele>
        <time>2012-05-13T11:33:09Z</time>
      </trkpt>
      <trkpt lat="59.8535802" lon="17.683145">
        <ele>21.2864</ele>
        <time>2012-05-13T11:33:12Z</time>
      </trkpt>
      <trkpt lat="59.8535756" lon="17.6832462">
        <ele>21.2864</ele>
        <time>2012-05-13T11:33:13Z</time>
      </trkpt>
      <trkpt lat="59.8536636" lon="17.6837724">
        <ele>22.2476</ele>
        <time>2012-05-13T11:33:19Z</time>
      </trkpt>
      <trkpt lat="59.8537484" lon="17.6839051">
        <ele>22.7283</ele>
        <time>2012-05-13T11:33:21Z</time>
      </trkpt>
      <trkpt lat="59.8541496" lon="17.6843348">
        <ele>22.7283</ele>
        <time>2012-05-13T11:33:29Z</time>
      </trkpt>
      <trkpt lat="59.8543082" lon="17.6845178">
        <ele>22.2476</ele>
        <time>2012-05-13T11:33:32Z</time>
      </trkpt>
      <trkpt lat="59.8545632" lon="17.6845856">
        <ele>21.2864</ele>
        <time>2012-05-13T11:33:36Z</time>
      </trkpt>
      <trkpt lat="59.8546306" lon="17.6845521">
        <ele>21.2864</ele>
        <time>2012-05-13T11:33:37Z</time>
      </trkpt>
      <trkpt lat="59.8547691" lon="17.6844842">
        <ele>20.8057</ele>
        <time>2012-05-13T11:33:39Z</time>
      </trkpt>
      <trkpt lat="59.8550467" lon="17.6844003">
        <ele>20.8057</ele>
        <time>2012-05-13T11:33:43Z</time>
      </trkpt>
      <trkpt lat="59.8551779" lon="17.6844055">
        <ele>20.8057</ele>
        <time>2012-05-13T11:33:44Z</time>
      </trkpt>
      <trkpt lat="59.8552897" lon="17.6845119">
        <ele>20.8057</ele>
        <time>2012-05-13T11:33:46Z</time>
      </trkpt>
      <trkpt lat="59.8553315" lon="17.6849809">
        <ele>20.8057</ele>
        <time>2012-05-13T11:33:49Z</time>
      </trkpt>
      <trkpt lat="59.855381" lon="17.685431">
        <ele>23.209</ele>
        <time>2012-05-13T11:33:53Z</time>
      </trkpt>
      <trkpt lat="59.8553402" lon="17.685636">
        <ele>22.7283</ele>
        <time>2012-05-13T11:33:55Z</time>
      </trkpt>
      <trkpt lat="59.855215" lon="17.6861622">
        <ele>22.2476</ele>
        <time>2012-05-13T11:34:00Z</time>
      </trkpt>
      <trkpt lat="59.8552067" lon="17.6866111">
        <ele>21.767</ele>
        <time>2012-05-13T11:34:04Z</time>
      </trkpt>
      <trkpt lat="59.8552328" lon="17.6867276">
        <ele>21.2864</ele>
        <time>2012-05-13T11:34:05Z</time>
      </trkpt>
      <trkpt lat="59.8554352" lon="17.6877639">
        <ele>21.2864</ele>
        <time>2012-05-13T11:34:14Z</time>
      </trkpt>
      <trkpt lat="59.8555679" lon="17.6884938">
        <ele>21.2864</ele>
        <time>2012-05-13T11:34:21Z</time>
      </trkpt>
      <trkpt lat="59.855588" lon="17.6889199">
        <ele>20.8057</ele>
        <time>2012-05-13T11:34:25Z</time>
      </trkpt>
      <trkpt lat="59.8555797" lon="17.6891291">
        <ele>20.8057</ele>
        <time>2012-05-13T11:34:27Z</time>
      </trkpt>
      <trkpt lat="59.8556299" lon="17.689573">
        <ele>20.8057</ele>
        <time>2012-05-13T11:34:31Z</time>
      </trkpt>
      <trkpt lat="59.8557863" lon="17.6904695">
        <ele>19.8444</ele>
        <time>2012-05-13T11:34:39Z</time>
      </trkpt>
      <trkpt lat="59.8558052" lon="17.6910792">
        <ele>19.3638</ele>
        <time>2012-05-13T11:34:44Z</time>
      </trkpt>
      <trkpt lat="59.8559305" lon="17.6915006">
        <ele>19.8444</ele>
        <time>2012-05-13T11:34:48Z</time>
      </trkpt>
      <trkpt lat="59.8561359" lon="17.6924277">
        <ele>19.8444</ele>
        <time>2012-05-13T11:34:56Z</time>
      </trkpt>
      <trkpt lat="59.8562019" lon="17.6927987">
        <ele>19.3638</ele>
        <time>2012-05-13T11:34:59Z</time>
      </trkpt>
      <trkpt lat="59.8562325" lon="17.6930502">
        <ele>19.3638</ele>
        <time>2012-05-13T11:35:01Z</time>
      </trkpt>
      <trkpt lat="59.8563289" lon="17.6935192">
        <ele>19.3638</ele>
        <time>2012-05-13T11:35:05Z</time>
      </trkpt>
      <trkpt lat="59.8564998" lon="17.6944574">
        <ele>19.3638</ele>
        <time>2012-05-13T11:35:12Z</time>
      </trkpt>
      <trkpt lat="59.8566814" lon="17.6954074">
        <ele>18.8831</ele>
        <time>2012-05-13T11:35:19Z</time>
      </trkpt>
      <trkpt lat="59.8568153" lon="17.6962032">
        <ele>18.8831</ele>
        <time>2012-05-13T11:35:26Z</time>
      </trkpt>
      <trkpt lat="59.8569271" lon="17.6968335">
        <ele>19.3638</ele>
        <time>2012-05-13T11:35:32Z</time>
      </trkpt>
      <trkpt lat="59.8570973" lon="17.6977441">
        <ele>19.3638</ele>
        <time>2012-05-13T11:35:40Z</time>
      </trkpt>
      <trkpt lat="59.8572918" lon="17.6987734">
        <ele>19.8444</ele>
        <time>2012-05-13T11:35:49Z</time>
      </trkpt>
      <trkpt lat="59.8575148" lon="17.6999165">
        <ele>19.3638</ele>
        <time>2012-05-13T11:35:59Z</time>
      </trkpt>
      <trkpt lat="59.8577617" lon="17.701098">
        <ele>19.3638</ele>
        <time>2012-05-13T11:36:09Z</time>
      </trkpt>
      <trkpt lat="59.8579334" lon="17.7018525">
        <ele>19.8444</ele>
        <time>2012-05-13T11:36:16Z</time>
      </trkpt>
      <trkpt lat="59.8580784" lon="17.7024679">
        <ele>20.325</ele>
        <time>2012-05-13T11:36:22Z</time>
      </trkpt>
      <trkpt lat="59.8582458" lon="17.7031615">
        <ele>20.325</ele>
        <time>2012-05-13T11:36:29Z</time>
      </trkpt>
      <trkpt lat="59.8583616" lon="17.7036991">
        <ele>20.325</ele>
        <time>2012-05-13T11:36:35Z</time>
      </trkpt>
      <trkpt lat="59.858408" lon="17.7039254">
        <ele>20.325</ele>
        <time>2012-05-13T11:36:38Z</time>
      </trkpt>
      <trkpt lat="59.8583577" lon="17.7041277">
        <ele>20.8057</ele>
        <time>2012-05-13T11:36:42Z</time>
      </trkpt>
      <trkpt lat="59.8581346" lon="17.7042639">
        <ele>21.2864</ele>
        <time>2012-05-13T11:36:48Z</time>
      </trkpt>
      <trkpt lat="59.8578702" lon="17.7044539">
        <ele>22.2476</ele>
        <time>2012-05-13T11:36:54Z</time>
      </trkpt>
      <trkpt lat="59.8578107" lon="17.704702">
        <ele>21.767</ele>
        <time>2012-05-13T11:36:58Z</time>
      </trkpt>
      <trkpt lat="59.8578495" lon="17.704859">
        <ele>21.767</ele>
        <time>2012-05-13T11:37:00Z</time>
      </trkpt>
      <trkpt lat="59.8579427" lon="17.7050631">
        <ele>21.2864</ele>
        <time>2012-05-13T11:37:04Z</time>
      </trkpt>
      <trkpt lat="59.8579735" lon="17.7050382">
        <ele>21.2864</ele>
        <time>2012-05-13T11:37:05Z</time>
      </trkpt>
      <trkpt lat="59.8582359" lon="17.7050123">
        <ele>28.9769</ele>
        <time>2012-05-13T11:44:36Z</time>
      </trkpt>
      <trkpt lat="59.8582195" lon="17.7050246">
        <ele>28.9769</ele>
        <time>2012-05-13T11:44:37Z</time>
      </trkpt>
      <trkpt lat="59.8582023" lon="17.7050455">
        <ele>28.9769</ele>
        <time>2012-05-13T11:44:38Z</time>
      </trkpt>
      <trkpt lat="59.8579885" lon="17.7052962">
        <ele>26.0929</ele>
        <time>2012-05-13T11:44:45Z</time>
      </trkpt>
      <trkpt lat="59.857886" lon="17.7051608">
        <ele>24.651</ele>
        <time>2012-05-13T11:44:49Z</time>
      </trkpt>
      <trkpt lat="59.8577716" lon="17.7045988">
        <ele>22.7283</ele>
        <time>2012-05-13T11:44:56Z</time>
      </trkpt>
      <trkpt lat="59.8577689" lon="17.7045187">
        <ele>22.2476</ele>
        <time>2012-05-13T11:44:57Z</time>
      </trkpt>
      <trkpt lat="59.8578824" lon="17.7042912">
        <ele>21.2864</ele>
        <time>2012-05-13T11:45:01Z</time>
      </trkpt>
      <trkpt lat="59.8579263" lon="17.7042629">
        <ele>21.767</ele>
        <time>2012-05-13T11:45:02Z</time>
      </trkpt>
      <trkpt lat="59.8581605" lon="17.7041004">
        <ele>24.1703</ele>
        <time>2012-05-13T11:45:07Z</time>
      </trkpt>
      <trkpt lat="59.8583093" lon="17.7039213">
        <ele>24.651</ele>
        <time>2012-05-13T11:45:11Z</time>
      </trkpt>
      <trkpt lat="59.8584672" lon="17.7039052">
        <ele>25.1317</ele>
        <time>2012-05-13T11:45:15Z</time>
      </trkpt>
      <trkpt lat="59.8585267" lon="17.7040294">
        <ele>24.651</ele>
        <time>2012-05-13T11:45:17Z</time>
      </trkpt>
      <trkpt lat="59.8586708" lon="17.7045368">
        <ele>23.6896</ele>
        <time>2012-05-13T11:45:23Z</time>
      </trkpt>
      <trkpt lat="59.8587572" lon="17.7047506">
        <ele>22.7283</ele>
        <time>2012-05-13T11:45:26Z</time>
      </trkpt>
      <trkpt lat="59.8588298" lon="17.7049601">
        <ele>21.767</ele>
        <time>2012-05-13T11:45:29Z</time>
      </trkpt>
      <trkpt lat="59.858933" lon="17.7049708">
        <ele>20.8057</ele>
        <time>2012-05-13T11:45:33Z</time>
      </trkpt>
      <trkpt lat="59.858954" lon="17.7049153">
        <ele>20.8057</ele>
        <time>2012-05-13T11:45:34Z</time>
      </trkpt>
      <trkpt lat="59.859082" lon="17.7046622">
        <ele>20.325</ele>
        <time>2012-05-13T11:45:40Z</time>
      </trkpt>
      <trkpt lat="59.8592508" lon="17.704506">
        <ele>19.8444</ele>
        <time>2012-05-13T11:45:45Z</time>
      </trkpt>
      <trkpt lat="59.8595193" lon="17.7043576">
        <ele>18.8831</ele>
        <time>2012-05-13T11:45:52Z</time>
      </trkpt>
      <trkpt lat="59.859772" lon="17.7042501">
        <ele>18.4023</ele>
        <time>2012-05-13T11:45:59Z</time>
      </trkpt>
      <trkpt lat="59.8600559" lon="17.7041436">
        <ele>17.9218</ele>
        <time>2012-05-13T11:46:05Z</time>
      </trkpt>
      <trkpt lat="59.8604107" lon="17.7039706">
        <ele>17.4412</ele>
        <time>2012-05-13T11:46:12Z</time>
      </trkpt>
      <trkpt lat="59.860501" lon="17.7039145">
        <ele>17.4412</ele>
        <time>2012-05-13T11:46:14Z</time>
      </trkpt>
      <trkpt lat="59.8608245" lon="17.7037875">
        <ele>17.9218</ele>
        <time>2012-05-13T11:46:22Z</time>
      </trkpt>
      <trkpt lat="59.8610026" lon="17.7037599">
        <ele>18.4023</ele>
        <time>2012-05-13T11:46:26Z</time>
      </trkpt>
      <trkpt lat="59.8614265" lon="17.7038914">
        <ele>18.8831</ele>
        <time>2012-05-13T11:46:34Z</time>
      </trkpt>
      <trkpt lat="59.8617477" lon="17.7040027">
        <ele>17.9218</ele>
        <time>2012-05-13T11:46:41Z</time>
      </trkpt>
      <trkpt lat="59.8620163" lon="17.7041166">
        <ele>19.3638</ele>
        <time>2012-05-13T11:46:47Z</time>
      </trkpt>
      <trkpt lat="59.8624066" lon="17.7042556">
        <ele>20.325</ele>
        <time>2012-05-13T11:46:55Z</time>
      </trkpt>
      <trkpt lat="59.862747" lon="17.7044004">
        <ele>20.8057</ele>
        <time>2012-05-13T11:47:02Z</time>
      </trkpt>
      <trkpt lat="59.8628723" lon="17.7044549">
        <ele>20.8057</ele>
        <time>2012-05-13T11:47:05Z</time>
      </trkpt>
      <trkpt lat="59.8630401" lon="17.7044643">
        <ele>20.8057</ele>
        <time>2012-05-13T11:47:09Z</time>
      </trkpt>
      <trkpt lat="59.8633031" lon="17.7042623">
        <ele>21.767</ele>
        <time>2012-05-13T11:47:15Z</time>
      </trkpt>
      <trkpt lat="59.8636908" lon="17.703795">
        <ele>21.767</ele>
        <time>2012-05-13T11:47:24Z</time>
      </trkpt>
      <trkpt lat="59.8639778" lon="17.7034168">
        <ele>21.767</ele>
        <time>2012-05-13T11:47:31Z</time>
      </trkpt>
      <trkpt lat="59.8641517" lon="17.7032174">
        <ele>21.2864</ele>
        <time>2012-05-13T11:47:36Z</time>
      </trkpt>
      <trkpt lat="59.8642653" lon="17.703088">
        <ele>22.7283</ele>
        <time>2012-05-13T11:47:41Z</time>
      </trkpt>
      <trkpt lat="59.8643005" lon="17.7030807">
        <ele>22.7283</ele>
        <time>2012-05-13T11:47:45Z</time>
      </trkpt>
      <trkpt lat="59.8643187" lon="17.7030359">
        <ele>22.7283</ele>
        <time>2012-05-13T11:47:47Z</time>
      </trkpt>
      <trkpt lat="59.864373" lon="17.7029967">
        <ele>22.7283</ele>
        <time>2012-05-13T11:47:52Z</time>
      </trkpt>
      <trkpt lat="59.8644274" lon="17.702904">
        <ele>22.7283</ele>
        <time>2012-05-13T11:47:55Z</time>
      </trkpt>
      <trkpt lat="59.8645966" lon="17.7027087">
        <ele>23.209</ele>
        <time>2012-05-13T11:48:01Z</time>
      </trkpt>
      <trkpt lat="59.8647838" lon="17.7024522">
        <ele>22.7283</ele>
        <time>2012-05-13T11:48:08Z</time>
      </trkpt>
      <trkpt lat="59.8649512" lon="17.7022109">
        <ele>23.209</ele>
        <time>2012-05-13T11:48:14Z</time>
      </trkpt>
      <trkpt lat="59.8651491" lon="17.7018881">
        <ele>24.1703</ele>
        <time>2012-05-13T11:48:22Z</time>
      </trkpt>
      <trkpt lat="59.8653422" lon="17.7015468">
        <ele>24.651</ele>
        <time>2012-05-13T11:48:31Z</time>
      </trkpt>
      <trkpt lat="59.8654803" lon="17.701116">
        <ele>24.651</ele>
        <time>2012-05-13T11:48:39Z</time>
      </trkpt>
      <trkpt lat="59.8655861" lon="17.7006831">
        <ele>25.6123</ele>
        <time>2012-05-13T11:48:47Z</time>
      </trkpt>
      <trkpt lat="59.8657851" lon="17.7001496">
        <ele>27.0543</ele>
        <time>2012-05-13T11:48:57Z</time>
      </trkpt>
      <trkpt lat="59.8659301" lon="17.6998009">
        <ele>27.0543</ele>
        <time>2012-05-13T11:49:03Z</time>
      </trkpt>
      <trkpt lat="59.8661404" lon="17.699351">
        <ele>27.0543</ele>
        <time>2012-05-13T11:49:11Z</time>
      </trkpt>
      <trkpt lat="59.8663464" lon="17.6990853">
        <ele>27.5349</ele>
        <time>2012-05-13T11:49:17Z</time>
      </trkpt>
      <trkpt lat="59.8666007" lon="17.6987905">
        <ele>27.0543</ele>
        <time>2012-05-13T11:49:25Z</time>
      </trkpt>
      <trkpt lat="59.8668108" lon="17.6984838">
        <ele>26.5736</ele>
        <time>2012-05-13T11:49:31Z</time>
      </trkpt>
      <trkpt lat="59.8671402" lon="17.6979649">
        <ele>25.6123</ele>
        <time>2012-05-13T11:49:40Z</time>
      </trkpt>
      <trkpt lat="59.8673032" lon="17.6978004">
        <ele>26.0929</ele>
        <time>2012-05-13T11:49:44Z</time>
      </trkpt>
      <trkpt lat="59.8675198" lon="17.6976234">
        <ele>25.6123</ele>
        <time>2012-05-13T11:49:49Z</time>
      </trkpt>
      <trkpt lat="59.8676827" lon="17.6975321">
        <ele>26.0929</ele>
        <time>2012-05-13T11:49:53Z</time>
      </trkpt>
      <trkpt lat="59.867944" lon="17.6972488">
        <ele>26.5736</ele>
        <time>2012-05-13T11:50:00Z</time>
      </trkpt>
      <trkpt lat="59.868115" lon="17.6970329">
        <ele>26.0929</ele>
        <time>2012-05-13T11:50:05Z</time>
      </trkpt>
      <trkpt lat="59.8683842" lon="17.6967633">
        <ele>26.0929</ele>
        <time>2012-05-13T11:50:13Z</time>
      </trkpt>
      <trkpt lat="59.8686098" lon="17.6965942">
        <ele>26.5736</ele>
        <time>2012-05-13T11:50:19Z</time>
      </trkpt>
      <trkpt lat="59.868891" lon="17.6963202">
        <ele>25.6123</ele>
        <time>2012-05-13T11:50:27Z</time>
      </trkpt>
      <trkpt lat="59.8691355" lon="17.6959425">
        <ele>23.209</ele>
        <time>2012-05-13T11:50:34Z</time>
      </trkpt>
      <trkpt lat="59.8691755" lon="17.6958819">
        <ele>23.209</ele>
        <time>2012-05-13T11:50:35Z</time>
      </trkpt>
      <trkpt lat="59.8694862" lon="17.6954872">
        <ele>22.7283</ele>
        <time>2012-05-13T11:50:43Z</time>
      </trkpt>
      <trkpt lat="59.8697536" lon="17.6951722">
        <ele>23.209</ele>
        <time>2012-05-13T11:50:50Z</time>
      </trkpt>
      <trkpt lat="59.8701175" lon="17.6947949">
        <ele>23.209</ele>
        <time>2012-05-13T11:50:58Z</time>
      </trkpt>
      <trkpt lat="59.8705549" lon="17.6943149">
        <ele>23.209</ele>
        <time>2012-05-13T11:51:07Z</time>
      </trkpt>
      <trkpt lat="59.8708843" lon="17.6939312">
        <ele>23.6896</ele>
        <time>2012-05-13T11:51:14Z</time>
      </trkpt>
      <trkpt lat="59.8710588" lon="17.693689">
        <ele>23.6896</ele>
        <time>2012-05-13T11:51:18Z</time>
      </trkpt>
      <trkpt lat="59.871377" lon="17.693051">
        <ele>22.2476</ele>
        <time>2012-05-13T11:51:26Z</time>
      </trkpt>
      <trkpt lat="59.8716681" lon="17.6924475">
        <ele>22.7283</ele>
        <time>2012-05-13T11:51:34Z</time>
      </trkpt>
      <trkpt lat="59.8719494" lon="17.6918541">
        <ele>22.7283</ele>
        <time>2012-05-13T11:51:42Z</time>
      </trkpt>
      <trkpt lat="59.8722183" lon="17.6912813">
        <ele>23.209</ele>
        <time>2012-05-13T11:51:50Z</time>
      </trkpt>
      <trkpt lat="59.8724073" lon="17.690839">
        <ele>22.7283</ele>
        <time>2012-05-13T11:51:56Z</time>
      </trkpt>
      <trkpt lat="59.8725234" lon="17.6905125">
        <ele>23.209</ele>
        <time>2012-05-13T11:52:00Z</time>
      </trkpt>
      <trkpt lat="59.8727471" lon="17.6897558">
        <ele>23.209</ele>
        <time>2012-05-13T11:52:09Z</time>
      </trkpt>
      <trkpt lat="59.8729486" lon="17.689291">
        <ele>23.6896</ele>
        <time>2012-05-13T11:52:15Z</time>
      </trkpt>
      <trkpt lat="59.8732126" lon="17.6888064">
        <ele>24.1703</ele>
        <time>2012-05-13T11:52:22Z</time>
      </trkpt>
      <trkpt lat="59.8735696" lon="17.6884044">
        <ele>24.651</ele>
        <time>2012-05-13T11:52:31Z</time>
      </trkpt>
      <trkpt lat="59.8738432" lon="17.6881055">
        <ele>25.1317</ele>
        <time>2012-05-13T11:52:38Z</time>
      </trkpt>
      <trkpt lat="59.8738805" lon="17.6880569">
        <ele>25.1317</ele>
        <time>2012-05-13T11:52:39Z</time>
      </trkpt>
      <trkpt lat="59.8740401" lon="17.6880312">
        <ele>25.1317</ele>
        <time>2012-05-13T11:52:44Z</time>
      </trkpt>
      <trkpt lat="59.8741523" lon="17.6881136">
        <ele>25.1317</ele>
        <time>2012-05-13T11:52:48Z</time>
      </trkpt>
      <trkpt lat="59.8741846" lon="17.6880804">
        <ele>25.1317</ele>
        <time>2012-05-13T11:52:49Z</time>
      </trkpt>
      <trkpt lat="59.874526" lon="17.687656">
        <ele>25.1317</ele>
        <time>2012-05-13T11:52:58Z</time>
      </trkpt>
      <trkpt lat="59.8748735" lon="17.6872498">
        <ele>25.1317</ele>
        <time>2012-05-13T11:53:06Z</time>
      </trkpt>
      <trkpt lat="59.8750058" lon="17.6870807">
        <ele>25.6123</ele>
        <time>2012-05-13T11:53:09Z</time>
      </trkpt>
      <trkpt lat="59.8753517" lon="17.6866391">
        <ele>25.6123</ele>
        <time>2012-05-13T11:53:17Z</time>
      </trkpt>
      <trkpt lat="59.8756936" lon="17.686135">
        <ele>27.0543</ele>
        <time>2012-05-13T11:53:26Z</time>
      </trkpt>
      <trkpt lat="59.8759597" lon="17.6857216">
        <ele>27.0543</ele>
        <time>2012-05-13T11:53:34Z</time>
      </trkpt>
      <trkpt lat="59.8759905" lon="17.6856764">
        <ele>27.5349</ele>
        <time>2012-05-13T11:53:35Z</time>
      </trkpt>
      <trkpt lat="59.8761912" lon="17.6855513">
        <ele>28.0155</ele>
        <time>2012-05-13T11:53:41Z</time>
      </trkpt>
      <trkpt lat="59.8764645" lon="17.6856016">
        <ele>30.4188</ele>
        <time>2012-05-13T11:53:49Z</time>
      </trkpt>
      <trkpt lat="59.8767784" lon="17.6857149">
        <ele>31.3801</ele>
        <time>2012-05-13T11:53:58Z</time>
      </trkpt>
      <trkpt lat="59.8770553" lon="17.6857656">
        <ele>31.8607</ele>
        <time>2012-05-13T11:54:04Z</time>
      </trkpt>
      <trkpt lat="59.877235" lon="17.685703">
        <ele>32.3416</ele>
        <time>2012-05-13T11:54:08Z</time>
      </trkpt>
      <trkpt lat="59.8773502" lon="17.6856126">
        <ele>32.3416</ele>
        <time>2012-05-13T11:54:11Z</time>
      </trkpt>
      <trkpt lat="59.877447" lon="17.6855207">
        <ele>32.8223</ele>
        <time>2012-05-13T11:54:17Z</time>
      </trkpt>
      <trkpt lat="59.8775672" lon="17.6853658">
        <ele>31.8607</ele>
        <time>2012-05-13T11:54:23Z</time>
      </trkpt>
      <trkpt lat="59.8777998" lon="17.6850255">
        <ele>32.3416</ele>
        <time>2012-05-13T11:54:31Z</time>
      </trkpt>
      <trkpt lat="59.8780633" lon="17.6846058">
        <ele>33.3029</ele>
        <time>2012-05-13T11:54:39Z</time>
      </trkpt>
      <trkpt lat="59.8782375" lon="17.6841676">
        <ele>34.2642</ele>
        <time>2012-05-13T11:54:46Z</time>
      </trkpt>
      <trkpt lat="59.8784006" lon="17.6836055">
        <ele>35.2255</ele>
        <time>2012-05-13T11:54:55Z</time>
      </trkpt>
      <trkpt lat="59.8784908" lon="17.6831366">
        <ele>34.7449</ele>
        <time>2012-05-13T11:55:01Z</time>
      </trkpt>
      <trkpt lat="59.8785274" lon="17.6830021">
        <ele>34.7449</ele>
        <time>2012-05-13T11:55:03Z</time>
      </trkpt>
      <trkpt lat="59.8786789" lon="17.6829943">
        <ele>33.7834</ele>
        <time>2012-05-13T11:55:07Z</time>
      </trkpt>
      <trkpt lat="59.8787139" lon="17.68304">
        <ele>33.7834</ele>
        <time>2012-05-13T11:55:08Z</time>
      </trkpt>
      <trkpt lat="59.8790307" lon="17.68353">
        <ele>33.3029</ele>
        <time>2012-05-13T11:55:16Z</time>
      </trkpt>
      <trkpt lat="59.8793734" lon="17.6839208">
        <ele>31.8607</ele>
        <time>2012-05-13T11:55:22Z</time>
      </trkpt>
      <trkpt lat="59.8798696" lon="17.6845697">
        <ele>29.4575</ele>
        <time>2012-05-13T11:55:30Z</time>
      </trkpt>
      <trkpt lat="59.880568" lon="17.6855099">
        <ele>28.0155</ele>
        <time>2012-05-13T11:55:41Z</time>
      </trkpt>
      <trkpt lat="59.8814191" lon="17.6866349">
        <ele>28.9769</ele>
        <time>2012-05-13T11:55:55Z</time>
      </trkpt>
      <trkpt lat="59.8820045" lon="17.6874262">
        <ele>27.5349</ele>
        <time>2012-05-13T11:56:05Z</time>
      </trkpt>
      <trkpt lat="59.8827815" lon="17.6884669">
        <ele>24.1703</ele>
        <time>2012-05-13T11:56:18Z</time>
      </trkpt>
      <trkpt lat="59.8833689" lon="17.6892634">
        <ele>23.209</ele>
        <time>2012-05-13T11:56:28Z</time>
      </trkpt>
      <trkpt lat="59.883914" lon="17.6899678">
        <ele>23.209</ele>
        <time>2012-05-13T11:56:37Z</time>
      </trkpt>
      <trkpt lat="59.8844995" lon="17.6907534">
        <ele>23.209</ele>
        <time>2012-05-13T11:56:47Z</time>
      </trkpt>
      <trkpt lat="59.8851818" lon="17.6916675">
        <ele>23.209</ele>
        <time>2012-05-13T11:56:59Z</time>
      </trkpt>
      <trkpt lat="59.8857263" lon="17.6923931">
        <ele>23.6896</ele>
        <time>2012-05-13T11:57:09Z</time>
      </trkpt>
      <trkpt lat="59.8863409" lon="17.6932134">
        <ele>23.6896</ele>
        <time>2012-05-13T11:57:20Z</time>
      </trkpt>
      <trkpt lat="59.886776" lon="17.6937513">
        <ele>24.651</ele>
        <time>2012-05-13T11:57:28Z</time>
      </trkpt>
      <trkpt lat="59.8868779" lon="17.6942144">
        <ele>24.1703</ele>
        <time>2012-05-13T11:57:32Z</time>
      </trkpt>
      <trkpt lat="59.8869826" lon="17.6946749">
        <ele>23.6896</ele>
        <time>2012-05-13T11:57:36Z</time>
      </trkpt>
      <trkpt lat="59.8871536" lon="17.6948397">
        <ele>23.6896</ele>
        <time>2012-05-13T11:57:39Z</time>
      </trkpt>
      <trkpt lat="59.8876553" lon="17.6951581">
        <ele>23.6896</ele>
        <time>2012-05-13T11:57:47Z</time>
      </trkpt>
      <trkpt lat="59.88808" lon="17.695704">
        <ele>24.651</ele>
        <time>2012-05-13T11:57:55Z</time>
      </trkpt>
      <trkpt lat="59.8886625" lon="17.6964828">
        <ele>25.1317</ele>
        <time>2012-05-13T11:58:06Z</time>
      </trkpt>
      <trkpt lat="59.8892668" lon="17.697277">
        <ele>26.5736</ele>
        <time>2012-05-13T11:58:17Z</time>
      </trkpt>
      <trkpt lat="59.8895773" lon="17.6976812">
        <ele>27.0543</ele>
        <time>2012-05-13T11:58:23Z</time>
      </trkpt>
      <trkpt lat="59.8899119" lon="17.6981393">
        <ele>27.0543</ele>
        <time>2012-05-13T11:58:31Z</time>
      </trkpt>
      <trkpt lat="59.8901502" lon="17.6984551">
        <ele>27.5349</ele>
        <time>2012-05-13T11:58:38Z</time>
      </trkpt>
      <trkpt lat="59.890237" lon="17.6985797">
        <ele>27.5349</ele>
        <time>2012-05-13T11:58:43Z</time>
      </trkpt>
      <trkpt lat="59.89026" lon="17.6985988">
        <ele>27.5349</ele>
        <time>2012-05-13T11:58:45Z</time>
      </trkpt>
      <trkpt lat="59.8903636" lon="17.6984637">
        <ele>27.0543</ele>
        <time>2012-05-13T11:58:51Z</time>
      </trkpt>
      <trkpt lat="59.8905609" lon="17.6982376">
        <ele>26.5736</ele>
        <time>2012-05-13T11:58:56Z</time>
      </trkpt>
      <trkpt lat="59.8907818" lon="17.6979007">
        <ele>26.0929</ele>
        <time>2012-05-13T11:59:01Z</time>
      </trkpt>
      <trkpt lat="59.8910743" lon="17.6977509">
        <ele>26.0929</ele>
        <time>2012-05-13T11:59:06Z</time>
      </trkpt>
      <trkpt lat="59.8913074" lon="17.6978708">
        <ele>26.0929</ele>
        <time>2012-05-13T11:59:10Z</time>
      </trkpt>
      <trkpt lat="59.8913604" lon="17.697927">
        <ele>26.0929</ele>
        <time>2012-05-13T11:59:11Z</time>
      </trkpt>
      <trkpt lat="59.8920493" lon="17.6987484">
        <ele>28.0155</ele>
        <time>2012-05-13T11:59:24Z</time>
      </trkpt>
      <trkpt lat="59.8924383" lon="17.6990702">
        <ele>28.9769</ele>
        <time>2012-05-13T11:59:31Z</time>
      </trkpt>
      <trkpt lat="59.8927372" lon="17.6991195">
        <ele>29.4575</ele>
        <time>2012-05-13T11:59:36Z</time>
      </trkpt>
      <trkpt lat="59.8930304" lon="17.6990169">
        <ele>29.9381</ele>
        <time>2012-05-13T11:59:41Z</time>
      </trkpt>
      <trkpt lat="59.8932888" lon="17.6987585">
        <ele>29.9381</ele>
        <time>2012-05-13T11:59:46Z</time>
      </trkpt>
      <trkpt lat="59.8935824" lon="17.6981612">
        <ele>29.9381</ele>
        <time>2012-05-13T11:59:53Z</time>
      </trkpt>
      <trkpt lat="59.8937126" lon="17.6975867">
        <ele>29.4575</ele>
        <time>2012-05-13T11:59:58Z</time>
      </trkpt>
      <trkpt lat="59.8937838" lon="17.6968862">
        <ele>29.9381</ele>
        <time>2012-05-13T12:00:04Z</time>
      </trkpt>
      <trkpt lat="59.8937959" lon="17.6962938">
        <ele>30.8995</ele>
        <time>2012-05-13T12:00:10Z</time>
      </trkpt>
      <trkpt lat="59.8938198" lon="17.6951836">
        <ele>29.4575</ele>
        <time>2012-05-13T12:00:20Z</time>
      </trkpt>
      <trkpt lat="59.8938389" lon="17.6943667">
        <ele>29.4575</ele>
        <time>2012-05-13T12:00:28Z</time>
      </trkpt>
      <trkpt lat="59.8938496" lon="17.6936544">
        <ele>29.4575</ele>
        <time>2012-05-13T12:00:37Z</time>
      </trkpt>
      <trkpt lat="59.8938628" lon="17.6930857">
        <ele>29.4575</ele>
        <time>2012-05-13T12:00:44Z</time>
      </trkpt>
      <trkpt lat="59.8938886" lon="17.6921859">
        <ele>29.9381</ele>
        <time>2012-05-13T12:00:54Z</time>
      </trkpt>
      <trkpt lat="59.8938906" lon="17.6920984">
        <ele>29.9381</ele>
        <time>2012-05-13T12:00:55Z</time>
      </trkpt>
      <trkpt lat="59.8938911" lon="17.6915996">
        <ele>30.8995</ele>
        <time>2012-05-13T12:01:01Z</time>
      </trkpt>
      <trkpt lat="59.8939147" lon="17.6912747">
        <ele>31.3801</ele>
        <time>2012-05-13T12:01:05Z</time>
      </trkpt>
      <trkpt lat="59.8939384" lon="17.6909432">
        <ele>32.3416</ele>
        <time>2012-05-13T12:01:09Z</time>
      </trkpt>
      <trkpt lat="59.893985" lon="17.6907019">
        <ele>32.8223</ele>
        <time>2012-05-13T12:01:12Z</time>
      </trkpt>
      <trkpt lat="59.8940089" lon="17.6905418">
        <ele>33.3029</ele>
        <time>2012-05-13T12:01:14Z</time>
      </trkpt>
      <trkpt lat="59.8941373" lon="17.6897847">
        <ele>35.7061</ele>
        <time>2012-05-13T12:01:24Z</time>
      </trkpt>
      <trkpt lat="59.8941815" lon="17.6894347">
        <ele>35.2255</ele>
        <time>2012-05-13T12:01:28Z</time>
      </trkpt>
      <trkpt lat="59.8942601" lon="17.6886987">
        <ele>33.7834</ele>
        <time>2012-05-13T12:01:36Z</time>
      </trkpt>
      <trkpt lat="59.8943901" lon="17.6880748">
        <ele>31.8607</ele>
        <time>2012-05-13T12:01:43Z</time>
      </trkpt>
      <trkpt lat="59.894559" lon="17.6873483">
        <ele>31.3801</ele>
        <time>2012-05-13T12:01:50Z</time>
      </trkpt>
      <trkpt lat="59.8947031" lon="17.6864609">
        <ele>31.3801</ele>
        <time>2012-05-13T12:01:57Z</time>
      </trkpt>
      <trkpt lat="59.8947767" lon="17.6855389">
        <ele>31.3801</ele>
        <time>2012-05-13T12:02:04Z</time>
      </trkpt>
      <trkpt lat="59.8948447" lon="17.6846398">
        <ele>30.4188</ele>
        <time>2012-05-13T12:02:11Z</time>
      </trkpt>
      <trkpt lat="59.894919" lon="17.6839495">
        <ele>30.4188</ele>
        <time>2012-05-13T12:02:17Z</time>
      </trkpt>
      <trkpt lat="59.8951105" lon="17.6834264">
        <ele>29.4575</ele>
        <time>2012-05-13T12:02:22Z</time>
      </trkpt>
      <trkpt lat="59.8951659" lon="17.6833541">
        <ele>29.4575</ele>
        <time>2012-05-13T12:02:23Z</time>
      </trkpt>
      <trkpt lat="59.8955164" lon="17.6829177">
        <ele>29.4575</ele>
        <time>2012-05-13T12:02:30Z</time>
      </trkpt>
      <trkpt lat="59.8957103" lon="17.6827348">
        <ele>29.9381</ele>
        <time>2012-05-13T12:02:34Z</time>
      </trkpt>
      <trkpt lat="59.8960659" lon="17.6824429">
        <ele>30.8995</ele>
        <time>2012-05-13T12:02:42Z</time>
      </trkpt>
      <trkpt lat="59.8964445" lon="17.6820163">
        <ele>28.9769</ele>
        <time>2012-05-13T12:02:49Z</time>
      </trkpt>
      <trkpt lat="59.8968727" lon="17.6813896">
        <ele>27.5349</ele>
        <time>2012-05-13T12:02:57Z</time>
      </trkpt>
      <trkpt lat="59.897163" lon="17.680756">
        <ele>27.5349</ele>
        <time>2012-05-13T12:03:04Z</time>
      </trkpt>
      <trkpt lat="59.8974018" lon="17.6801432">
        <ele>28.0155</ele>
        <time>2012-05-13T12:03:11Z</time>
      </trkpt>
      <trkpt lat="59.8977038" lon="17.6793357">
        <ele>28.0155</ele>
        <time>2012-05-13T12:03:20Z</time>
      </trkpt>
      <trkpt lat="59.8980248" lon="17.678509">
        <ele>28.0155</ele>
        <time>2012-05-13T12:03:29Z</time>
      </trkpt>
      <trkpt lat="59.8982261" lon="17.6777461">
        <ele>28.0155</ele>
        <time>2012-05-13T12:03:36Z</time>
      </trkpt>
      <trkpt lat="59.8983307" lon="17.6770836">
        <ele>28.9769</ele>
        <time>2012-05-13T12:03:42Z</time>
      </trkpt>
      <trkpt lat="59.8983948" lon="17.6763518">
        <ele>29.9381</ele>
        <time>2012-05-13T12:03:50Z</time>
      </trkpt>
      <trkpt lat="59.8984281" lon="17.6756244">
        <ele>30.8995</ele>
        <time>2012-05-13T12:03:58Z</time>
      </trkpt>
      <trkpt lat="59.8984803" lon="17.6752413">
        <ele>30.8995</ele>
        <time>2012-05-13T12:04:03Z</time>
      </trkpt>
      <trkpt lat="59.8985725" lon="17.674959">
        <ele>31.3801</ele>
        <time>2012-05-13T12:04:07Z</time>
      </trkpt>
      <trkpt lat="59.8987557" lon="17.6746646">
        <ele>32.3416</ele>
        <time>2012-05-13T12:04:13Z</time>
      </trkpt>
      <trkpt lat="59.8988221" lon="17.6745854">
        <ele>32.8223</ele>
        <time>2012-05-13T12:04:15Z</time>
      </trkpt>
      <trkpt lat="59.8990135" lon="17.6742789">
        <ele>36.1868</ele>
        <time>2012-05-13T12:04:21Z</time>
      </trkpt>
      <trkpt lat="59.8991399" lon="17.6737696">
        <ele>37.1481</ele>
        <time>2012-05-13T12:04:27Z</time>
      </trkpt>
      <trkpt lat="59.8991443" lon="17.673678">
        <ele>37.1481</ele>
        <time>2012-05-13T12:04:28Z</time>
      </trkpt>
      <trkpt lat="59.8991865" lon="17.6729946">
        <ele>37.6287</ele>
        <time>2012-05-13T12:04:36Z</time>
      </trkpt>
      <trkpt lat="59.8993561" lon="17.672205">
        <ele>36.1868</ele>
        <time>2012-05-13T12:04:44Z</time>
      </trkpt>
      <trkpt lat="59.8993794" lon="17.6716261">
        <ele>35.7061</ele>
        <time>2012-05-13T12:04:49Z</time>
      </trkpt>
      <trkpt lat="59.8993671" lon="17.671501">
        <ele>35.2255</ele>
        <time>2012-05-13T12:04:50Z</time>
      </trkpt>
      <trkpt lat="59.8993493" lon="17.6711112">
        <ele>34.2642</ele>
        <time>2012-05-13T12:04:53Z</time>
      </trkpt>
      <trkpt lat="59.8993804" lon="17.6705185">
        <ele>33.3029</ele>
        <time>2012-05-13T12:04:58Z</time>
      </trkpt>
      <trkpt lat="59.899493" lon="17.6702844">
        <ele>32.8223</ele>
        <time>2012-05-13T12:05:01Z</time>
      </trkpt>
      <trkpt lat="59.8995416" lon="17.6702424">
        <ele>32.8223</ele>
        <time>2012-05-13T12:05:02Z</time>
      </trkpt>
      <trkpt lat="59.9000504" lon="17.6699901">
        <ele>32.8223</ele>
        <time>2012-05-13T12:05:12Z</time>
      </trkpt>
      <trkpt lat="59.9004791" lon="17.6698591">
        <ele>32.3416</ele>
        <time>2012-05-13T12:05:19Z</time>
      </trkpt>
      <trkpt lat="59.9007638" lon="17.6697696">
        <ele>32.8223</ele>
        <time>2012-05-13T12:05:25Z</time>
      </trkpt>
      <trkpt lat="59.9009507" lon="17.6697295">
        <ele>33.3029</ele>
        <time>2012-05-13T12:05:30Z</time>
      </trkpt>
      <trkpt lat="59.9011496" lon="17.6696669">
        <ele>33.3029</ele>
        <time>2012-05-13T12:05:34Z</time>
      </trkpt>
      <trkpt lat="59.9013848" lon="17.6696038">
        <ele>32.8223</ele>
        <time>2012-05-13T12:05:38Z</time>
      </trkpt>
      <trkpt lat="59.9014986" lon="17.669596">
        <ele>32.8223</ele>
        <time>2012-05-13T12:05:40Z</time>
      </trkpt>
      <trkpt lat="59.9015956" lon="17.6696151">
        <ele>31.8607</ele>
        <time>2012-05-13T12:05:42Z</time>
      </trkpt>
      <trkpt lat="59.9018436" lon="17.6697814">
        <ele>33.3029</ele>
        <time>2012-05-13T12:05:47Z</time>
      </trkpt>
      <trkpt lat="59.9021552" lon="17.6699949">
        <ele>34.2642</ele>
        <time>2012-05-13T12:05:53Z</time>
      </trkpt>
      <trkpt lat="59.902451" lon="17.670012">
        <ele>34.2642</ele>
        <time>2012-05-13T12:05:59Z</time>
      </trkpt>
      <trkpt lat="59.9025957" lon="17.6699803">
        <ele>33.7834</ele>
        <time>2012-05-13T12:06:03Z</time>
      </trkpt>
      <trkpt lat="59.9028078" lon="17.6698611">
        <ele>33.3029</ele>
        <time>2012-05-13T12:06:09Z</time>
      </trkpt>
      <trkpt lat="59.9030248" lon="17.6699094">
        <ele>33.3029</ele>
        <time>2012-05-13T12:06:14Z</time>
      </trkpt>
      <trkpt lat="59.9031327" lon="17.6699621">
        <ele>33.3029</ele>
        <time>2012-05-13T12:06:16Z</time>
      </trkpt>
      <trkpt lat="59.9034142" lon="17.6698356">
        <ele>33.3029</ele>
        <time>2012-05-13T12:06:21Z</time>
      </trkpt>
      <trkpt lat="59.9034901" lon="17.669666">
        <ele>33.3029</ele>
        <time>2012-05-13T12:06:23Z</time>
      </trkpt>
      <trkpt lat="59.9035953" lon="17.6692915">
        <ele>32.8223</ele>
        <time>2012-05-13T12:06:27Z</time>
      </trkpt>
      <trkpt lat="59.9038192" lon="17.6687009">
        <ele>33.3029</ele>
        <time>2012-05-13T12:06:34Z</time>
      </trkpt>
      <trkpt lat="59.904011" lon="17.6683026">
        <ele>32.8223</ele>
        <time>2012-05-13T12:06:40Z</time>
      </trkpt>
      <trkpt lat="59.9042473" lon="17.6680503">
        <ele>32.8223</ele>
        <time>2012-05-13T12:06:46Z</time>
      </trkpt>
      <trkpt lat="59.9046999" lon="17.6679285">
        <ele>33.3029</ele>
        <time>2012-05-13T12:06:54Z</time>
      </trkpt>
      <trkpt lat="59.9047625" lon="17.6679273">
        <ele>33.3029</ele>
        <time>2012-05-13T12:06:55Z</time>
      </trkpt>
      <trkpt lat="59.9051849" lon="17.6681198">
        <ele>32.3416</ele>
        <time>2012-05-13T12:07:01Z</time>
      </trkpt>
      <trkpt lat="59.9056561" lon="17.6683684">
        <ele>30.8995</ele>
        <time>2012-05-13T12:07:08Z</time>
      </trkpt>
      <trkpt lat="59.9061412" lon="17.6685759">
        <ele>30.8995</ele>
        <time>2012-05-13T12:07:16Z</time>
      </trkpt>
      <trkpt lat="59.9061962" lon="17.6686029">
        <ele>31.3801</ele>
        <time>2012-05-13T12:07:17Z</time>
      </trkpt>
      <trkpt lat="59.9066099" lon="17.6686347">
        <ele>32.8223</ele>
        <time>2012-05-13T12:07:25Z</time>
      </trkpt>
      <trkpt lat="59.9069203" lon="17.6684998">
        <ele>32.3416</ele>
        <time>2012-05-13T12:07:31Z</time>
      </trkpt>
      <trkpt lat="59.9073388" lon="17.6683619">
        <ele>30.8995</ele>
        <time>2012-05-13T12:07:38Z</time>
      </trkpt>
      <trkpt lat="59.9074493" lon="17.6683173">
        <ele>30.4188</ele>
        <time>2012-05-13T12:07:40Z</time>
      </trkpt>
      <trkpt lat="59.9076651" lon="17.6680513">
        <ele>30.8995</ele>
        <time>2012-05-13T12:07:45Z</time>
      </trkpt>
      <trkpt lat="59.9077414" lon="17.6676688">
        <ele>31.3801</ele>
        <time>2012-05-13T12:07:49Z</time>
      </trkpt>
      <trkpt lat="59.907805" lon="17.6666159">
        <ele>33.7834</ele>
        <time>2012-05-13T12:07:59Z</time>
      </trkpt>
      <trkpt lat="59.9078792" lon="17.6658206">
        <ele>32.8223</ele>
        <time>2012-05-13T12:08:07Z</time>
      </trkpt>
      <trkpt lat="59.9079072" lon="17.6656285">
        <ele>32.8223</ele>
        <time>2012-05-13T12:08:09Z</time>
      </trkpt>
      <trkpt lat="59.9079673" lon="17.6650174">
        <ele>32.8223</ele>
        <time>2012-05-13T12:08:15Z</time>
      </trkpt>
      <trkpt lat="59.907977" lon="17.6649235">
        <ele>32.3416</ele>
        <time>2012-05-13T12:08:16Z</time>
      </trkpt>
      <trkpt lat="59.9080148" lon="17.6645385">
        <ele>31.3801</ele>
        <time>2012-05-13T12:08:20Z</time>
      </trkpt>
      <trkpt lat="59.9079287" lon="17.6633856">
        <ele>32.3416</ele>
        <time>2012-05-13T12:08:30Z</time>
      </trkpt>
      <trkpt lat="59.907761" lon="17.662146">
        <ele>32.8223</ele>
        <time>2012-05-13T12:08:40Z</time>
      </trkpt>
      <trkpt lat="59.9076795" lon="17.6611917">
        <ele>33.7834</ele>
        <time>2012-05-13T12:08:48Z</time>
      </trkpt>
      <trkpt lat="59.9075816" lon="17.6604474">
        <ele>32.8223</ele>
        <time>2012-05-13T12:08:55Z</time>
      </trkpt>
      <trkpt lat="59.9074409" lon="17.6595093">
        <ele>32.8223</ele>
        <time>2012-05-13T12:09:03Z</time>
      </trkpt>
      <trkpt lat="59.9073355" lon="17.658492">
        <ele>31.3801</ele>
        <time>2012-05-13T12:09:12Z</time>
      </trkpt>
      <trkpt lat="59.9071928" lon="17.6575139">
        <ele>29.4575</ele>
        <time>2012-05-13T12:09:21Z</time>
      </trkpt>
      <trkpt lat="59.9070751" lon="17.6565483">
        <ele>29.4575</ele>
        <time>2012-05-13T12:09:30Z</time>
      </trkpt>
      <trkpt lat="59.9070503" lon="17.6556083">
        <ele>27.5349</ele>
        <time>2012-05-13T12:09:38Z</time>
      </trkpt>
      <trkpt lat="59.907048" lon="17.6548047">
        <ele>27.0543</ele>
        <time>2012-05-13T12:09:45Z</time>
      </trkpt>
      <trkpt lat="59.9070783" lon="17.6538396">
        <ele>27.5349</ele>
        <time>2012-05-13T12:09:54Z</time>
      </trkpt>
      <trkpt lat="59.9071062" lon="17.6527703">
        <ele>27.5349</ele>
        <time>2012-05-13T12:10:05Z</time>
      </trkpt>
      <trkpt lat="59.9070705" lon="17.6520074">
        <ele>28.0155</ele>
        <time>2012-05-13T12:10:13Z</time>
      </trkpt>
      <trkpt lat="59.9069487" lon="17.651304">
        <ele>27.5349</ele>
        <time>2012-05-13T12:10:20Z</time>
      </trkpt>
      <trkpt lat="59.9067266" lon="17.6503669">
        <ele>27.5349</ele>
        <time>2012-05-13T12:10:29Z</time>
      </trkpt>
      <trkpt lat="59.9065574" lon="17.649619">
        <ele>26.5736</ele>
        <time>2012-05-13T12:10:37Z</time>
      </trkpt>
      <trkpt lat="59.9063536" lon="17.6489394">
        <ele>26.0929</ele>
        <time>2012-05-13T12:10:44Z</time>
      </trkpt>
      <trkpt lat="59.9060692" lon="17.6481513">
        <ele>25.6123</ele>
        <time>2012-05-13T12:10:52Z</time>
      </trkpt>
      <trkpt lat="59.9060412" lon="17.6480452">
        <ele>25.6123</ele>
        <time>2012-05-13T12:10:53Z</time>
      </trkpt>
      <trkpt lat="59.9059501" lon="17.6473505">
        <ele>25.6123</ele>
        <time>2012-05-13T12:10:59Z</time>
      </trkpt>
      <trkpt lat="59.9059898" lon="17.6466259">
        <ele>25.6123</ele>
        <time>2012-05-13T12:11:05Z</time>
      </trkpt>
      <trkpt lat="59.9060985" lon="17.6458564">
        <ele>25.1317</ele>
        <time>2012-05-13T12:11:12Z</time>
      </trkpt>
      <trkpt lat="59.9061686" lon="17.6450884">
        <ele>24.1703</ele>
        <time>2012-05-13T12:11:19Z</time>
      </trkpt>
      <trkpt lat="59.906107" lon="17.6445165">
        <ele>23.209</ele>
        <time>2012-05-13T12:11:24Z</time>
      </trkpt>
      <trkpt lat="59.906079" lon="17.6444146">
        <ele>22.7283</ele>
        <time>2012-05-13T12:11:25Z</time>
      </trkpt>
      <trkpt lat="59.9059039" lon="17.6438347">
        <ele>22.2476</ele>
        <time>2012-05-13T12:11:31Z</time>
      </trkpt>
      <trkpt lat="59.9058553" lon="17.6434062">
        <ele>22.2476</ele>
        <time>2012-05-13T12:11:36Z</time>
      </trkpt>
      <trkpt lat="59.9059289" lon="17.6433422">
        <ele>22.2476</ele>
        <time>2012-05-13T12:11:39Z</time>
      </trkpt>
      <trkpt lat="59.905965" lon="17.6433582">
        <ele>22.2476</ele>
        <time>2012-05-13T12:11:40Z</time>
      </trkpt>
      <trkpt lat="59.9063296" lon="17.6435309">
        <ele>22.7283</ele>
        <time>2012-05-13T12:11:48Z</time>
      </trkpt>
      <trkpt lat="59.906802" lon="17.6437012">
        <ele>23.6896</ele>
        <time>2012-05-13T12:11:57Z</time>
      </trkpt>
      <trkpt lat="59.9072171" lon="17.6438129">
        <ele>24.651</ele>
        <time>2012-05-13T12:12:05Z</time>
      </trkpt>
      <trkpt lat="59.9077297" lon="17.6439191">
        <ele>25.6123</ele>
        <time>2012-05-13T12:12:15Z</time>
      </trkpt>
      <trkpt lat="59.9082649" lon="17.6439845">
        <ele>26.5736</ele>
        <time>2012-05-13T12:12:26Z</time>
      </trkpt>
      <trkpt lat="59.9083601" lon="17.6438192">
        <ele>26.0929</ele>
        <time>2012-05-13T12:12:30Z</time>
      </trkpt>
      <trkpt lat="59.9085378" lon="17.6437341">
        <ele>25.6123</ele>
        <time>2012-05-13T12:12:34Z</time>
      </trkpt>
      <trkpt lat="59.9089518" lon="17.6437224">
        <ele>25.6123</ele>
        <time>2012-05-13T12:12:41Z</time>
      </trkpt>
      <trkpt lat="59.9093707" lon="17.6436612">
        <ele>26.0929</ele>
        <time>2012-05-13T12:12:48Z</time>
      </trkpt>
      <trkpt lat="59.9098196" lon="17.6435726">
        <ele>26.5736</ele>
        <time>2012-05-13T12:12:55Z</time>
      </trkpt>
      <trkpt lat="59.9101697" lon="17.6436583">
        <ele>28.0155</ele>
        <time>2012-05-13T12:13:01Z</time>
      </trkpt>
      <trkpt lat="59.9104276" lon="17.6436155">
        <ele>28.4962</ele>
        <time>2012-05-13T12:13:06Z</time>
      </trkpt>
      <trkpt lat="59.9107683" lon="17.6434741">
        <ele>28.4962</ele>
        <time>2012-05-13T12:13:12Z</time>
      </trkpt>
      <trkpt lat="59.9114184" lon="17.6433468">
        <ele>29.4575</ele>
        <time>2012-05-13T12:13:23Z</time>
      </trkpt>
      <trkpt lat="59.9119743" lon="17.6432251">
        <ele>29.4575</ele>
        <time>2012-05-13T12:13:32Z</time>
      </trkpt>
      <trkpt lat="59.9124329" lon="17.6430987">
        <ele>28.4962</ele>
        <time>2012-05-13T12:13:39Z</time>
      </trkpt>
      <trkpt lat="59.9125667" lon="17.6430851">
        <ele>28.4962</ele>
        <time>2012-05-13T12:13:41Z</time>
      </trkpt>
      <trkpt lat="59.9128494" lon="17.6431664">
        <ele>29.9381</ele>
        <time>2012-05-13T12:13:46Z</time>
      </trkpt>
      <trkpt lat="59.91339" lon="17.6430727">
        <ele>30.4188</ele>
        <time>2012-05-13T12:13:55Z</time>
      </trkpt>
      <trkpt lat="59.9139295" lon="17.6429475">
        <ele>29.4575</ele>
        <time>2012-05-13T12:14:03Z</time>
      </trkpt>
      <trkpt lat="59.914532" lon="17.6428354">
        <ele>28.0155</ele>
        <time>2012-05-13T12:14:11Z</time>
      </trkpt>
      <trkpt lat="59.9151084" lon="17.6427385">
        <ele>26.5736</ele>
        <time>2012-05-13T12:14:19Z</time>
      </trkpt>
      <trkpt lat="59.915314" lon="17.6426159">
        <ele>25.1317</ele>
        <time>2012-05-13T12:14:22Z</time>
      </trkpt>
      <trkpt lat="59.9157984" lon="17.6424849">
        <ele>25.1317</ele>
        <time>2012-05-13T12:14:28Z</time>
      </trkpt>
      <trkpt lat="59.9163983" lon="17.6424611">
        <ele>26.0929</ele>
        <time>2012-05-13T12:14:36Z</time>
      </trkpt>
      <trkpt lat="59.9169971" lon="17.6423756">
        <ele>25.6123</ele>
        <time>2012-05-13T12:14:44Z</time>
      </trkpt>
      <trkpt lat="59.9171504" lon="17.6423305">
        <ele>25.1317</ele>
        <time>2012-05-13T12:14:46Z</time>
      </trkpt>
      <trkpt lat="59.9175275" lon="17.6423077">
        <ele>25.1317</ele>
        <time>2012-05-13T12:14:51Z</time>
      </trkpt>
      <trkpt lat="59.918188" lon="17.6422773">
        <ele>26.5736</ele>
        <time>2012-05-13T12:15:00Z</time>
      </trkpt>
      <trkpt lat="59.9188714" lon="17.6421918">
        <ele>28.0155</ele>
        <time>2012-05-13T12:15:10Z</time>
      </trkpt>
      <trkpt lat="59.9194207" lon="17.6421274">
        <ele>28.0155</ele>
        <time>2012-05-13T12:15:18Z</time>
      </trkpt>
      <trkpt lat="59.9199618" lon="17.6420357">
        <ele>28.0155</ele>
        <time>2012-05-13T12:15:26Z</time>
      </trkpt>
      <trkpt lat="59.9204137" lon="17.6420005">
        <ele>28.0155</ele>
        <time>2012-05-13T12:15:33Z</time>
      </trkpt>
      <trkpt lat="59.9211635" lon="17.6419776">
        <ele>28.0155</ele>
        <time>2012-05-13T12:15:44Z</time>
      </trkpt>
      <trkpt lat="59.921538" lon="17.6419247">
        <ele>28.9769</ele>
        <time>2012-05-13T12:15:50Z</time>
      </trkpt>
      <trkpt lat="59.9219741" lon="17.6418527">
        <ele>28.9769</ele>
        <time>2012-05-13T12:15:57Z</time>
      </trkpt>
      <trkpt lat="59.9226351" lon="17.6417731">
        <ele>28.9769</ele>
        <time>2012-05-13T12:16:07Z</time>
      </trkpt>
      <trkpt lat="59.9231324" lon="17.6417229">
        <ele>27.5349</ele>
        <time>2012-05-13T12:16:14Z</time>
      </trkpt>
      <trkpt lat="59.9237457" lon="17.641637">
        <ele>26.0929</ele>
        <time>2012-05-13T12:16:22Z</time>
      </trkpt>
      <trkpt lat="59.924529" lon="17.6415643">
        <ele>25.1317</ele>
        <time>2012-05-13T12:16:31Z</time>
      </trkpt>
      <trkpt lat="59.9251269" lon="17.6414701">
        <ele>24.651</ele>
        <time>2012-05-13T12:16:38Z</time>
      </trkpt>
      <trkpt lat="59.9256676" lon="17.6414337">
        <ele>23.6896</ele>
        <time>2012-05-13T12:16:45Z</time>
      </trkpt>
      <trkpt lat="59.9263451" lon="17.6413458">
        <ele>22.7283</ele>
        <time>2012-05-13T12:16:54Z</time>
      </trkpt>
      <trkpt lat="59.9272775" lon="17.6412405">
        <ele>23.209</ele>
        <time>2012-05-13T12:17:06Z</time>
      </trkpt>
      <trkpt lat="59.9280393" lon="17.6411684">
        <ele>23.209</ele>
        <time>2012-05-13T12:17:16Z</time>
      </trkpt>
      <trkpt lat="59.9287662" lon="17.641068">
        <ele>23.6896</ele>
        <time>2012-05-13T12:17:26Z</time>
      </trkpt>
      <trkpt lat="59.9292613" lon="17.6410054">
        <ele>23.6896</ele>
        <time>2012-05-13T12:17:33Z</time>
      </trkpt>
      <trkpt lat="59.9296848" lon="17.6409452">
        <ele>23.6896</ele>
        <time>2012-05-13T12:17:40Z</time>
      </trkpt>
      <trkpt lat="59.9300784" lon="17.6409099">
        <ele>23.6896</ele>
        <time>2012-05-13T12:17:47Z</time>
      </trkpt>
      <trkpt lat="59.9306135" lon="17.6409096">
        <ele>24.1703</ele>
        <time>2012-05-13T12:17:56Z</time>
      </trkpt>
      <trkpt lat="59.9307725" lon="17.6408703">
        <ele>24.651</ele>
        <time>2012-05-13T12:17:59Z</time>
      </trkpt>
      <trkpt lat="59.9310961" lon="17.6410136">
        <ele>23.6896</ele>
        <time>2012-05-13T12:18:05Z</time>
      </trkpt>
      <trkpt lat="59.9314335" lon="17.6412669">
        <ele>25.1317</ele>
        <time>2012-05-13T12:18:12Z</time>
      </trkpt>
      <trkpt lat="59.9318396" lon="17.6415328">
        <ele>25.6123</ele>
        <time>2012-05-13T12:18:20Z</time>
      </trkpt>
      <trkpt lat="59.9321361" lon="17.6417902">
        <ele>26.0929</ele>
        <time>2012-05-13T12:18:26Z</time>
      </trkpt>
      <trkpt lat="59.9326051" lon="17.6422379">
        <ele>25.6123</ele>
        <time>2012-05-13T12:18:34Z</time>
      </trkpt>
      <trkpt lat="59.932717" lon="17.6423777">
        <ele>26.0929</ele>
        <time>2012-05-13T12:18:36Z</time>
      </trkpt>
      <trkpt lat="59.9328576" lon="17.6426418">
        <ele>26.0929</ele>
        <time>2012-05-13T12:18:39Z</time>
      </trkpt>
      <trkpt lat="59.933158" lon="17.6430472">
        <ele>27.5349</ele>
        <time>2012-05-13T12:18:45Z</time>
      </trkpt>
      <trkpt lat="59.9333775" lon="17.6434197">
        <ele>28.9769</ele>
        <time>2012-05-13T12:18:51Z</time>
      </trkpt>
      <trkpt lat="59.9336383" lon="17.6437391">
        <ele>29.9381</ele>
        <time>2012-05-13T12:18:59Z</time>
      </trkpt>
      <trkpt lat="59.9339137" lon="17.6440139">
        <ele>30.4188</ele>
        <time>2012-05-13T12:19:07Z</time>
      </trkpt>
      <trkpt lat="59.9342832" lon="17.6445009">
        <ele>30.4188</ele>
        <time>2012-05-13T12:19:17Z</time>
      </trkpt>
      <trkpt lat="59.9343223" lon="17.6445543">
        <ele>30.4188</ele>
        <time>2012-05-13T12:19:18Z</time>
      </trkpt>
      <trkpt lat="59.9344462" lon="17.6447826">
        <ele>31.3801</ele>
        <time>2012-05-13T12:19:22Z</time>
      </trkpt>
      <trkpt lat="59.934784" lon="17.645227">
        <ele>32.3416</ele>
        <time>2012-05-13T12:19:32Z</time>
      </trkpt>
      <trkpt lat="59.9351215" lon="17.6456054">
        <ele>32.8223</ele>
        <time>2012-05-13T12:19:40Z</time>
      </trkpt>
      <trkpt lat="59.9355039" lon="17.6460483">
        <ele>33.3029</ele>
        <time>2012-05-13T12:19:48Z</time>
      </trkpt>
      <trkpt lat="59.9359427" lon="17.6465804">
        <ele>33.7834</ele>
        <time>2012-05-13T12:19:57Z</time>
      </trkpt>
      <trkpt lat="59.9363292" lon="17.6470779">
        <ele>33.3029</ele>
        <time>2012-05-13T12:20:05Z</time>
      </trkpt>
      <trkpt lat="59.9366981" lon="17.6475635">
        <ele>32.8223</ele>
        <time>2012-05-13T12:20:12Z</time>
      </trkpt>
      <trkpt lat="59.9371483" lon="17.6481077">
        <ele>32.8223</ele>
        <time>2012-05-13T12:20:20Z</time>
      </trkpt>
      <trkpt lat="59.9372632" lon="17.6482507">
        <ele>32.3416</ele>
        <time>2012-05-13T12:20:22Z</time>
      </trkpt>
      <trkpt lat="59.937444" lon="17.6485927">
        <ele>32.8223</ele>
        <time>2012-05-13T12:20:26Z</time>
      </trkpt>
      <trkpt lat="59.9375518" lon="17.6489456">
        <ele>32.3416</ele>
        <time>2012-05-13T12:20:30Z</time>
      </trkpt>
      <trkpt lat="59.9377557" lon="17.6493893">
        <ele>31.8607</ele>
        <time>2012-05-13T12:20:35Z</time>
      </trkpt>
      <trkpt lat="59.9380661" lon="17.6502249">
        <ele>31.8607</ele>
        <time>2012-05-13T12:20:43Z</time>
      </trkpt>
      <trkpt lat="59.9383672" lon="17.651002">
        <ele>31.3801</ele>
        <time>2012-05-13T12:20:50Z</time>
      </trkpt>
      <trkpt lat="59.9386183" lon="17.6516992">
        <ele>31.3801</ele>
        <time>2012-05-13T12:20:56Z</time>
      </trkpt>
      <trkpt lat="59.9389686" lon="17.6529228">
        <ele>31.8607</ele>
        <time>2012-05-13T12:21:06Z</time>
      </trkpt>
      <trkpt lat="59.9391544" lon="17.6536861">
        <ele>32.3416</ele>
        <time>2012-05-13T12:21:13Z</time>
      </trkpt>
      <trkpt lat="59.9393337" lon="17.6545354">
        <ele>32.3416</ele>
        <time>2012-05-13T12:21:20Z</time>
      </trkpt>
      <trkpt lat="59.9395388" lon="17.6555268">
        <ele>32.3416</ele>
        <time>2012-05-13T12:21:28Z</time>
      </trkpt>
      <trkpt lat="59.9397239" lon="17.6564002">
        <ele>31.8607</ele>
        <time>2012-05-13T12:21:35Z</time>
      </trkpt>
      <trkpt lat="59.9399329" lon="17.6574906">
        <ele>30.8995</ele>
        <time>2012-05-13T12:21:44Z</time>
      </trkpt>
      <trkpt lat="59.9401351" lon="17.6584607">
        <ele>29.9381</ele>
        <time>2012-05-13T12:21:51Z</time>
      </trkpt>
      <trkpt lat="59.9403344" lon="17.6594741">
        <ele>30.4188</ele>
        <time>2012-05-13T12:21:58Z</time>
      </trkpt>
      <trkpt lat="59.940355" lon="17.6596068">
        <ele>30.4188</ele>
        <time>2012-05-13T12:21:59Z</time>
      </trkpt>
      <trkpt lat="59.9404687" lon="17.6600982">
        <ele>30.8995</ele>
        <time>2012-05-13T12:22:03Z</time>
      </trkpt>
      <trkpt lat="59.9404847" lon="17.660568">
        <ele>27.0543</ele>
        <time>2012-05-13T12:22:07Z</time>
      </trkpt>
      <trkpt lat="59.9403904" lon="17.660966">
        <ele>25.6123</ele>
        <time>2012-05-13T12:22:10Z</time>
      </trkpt>
      <trkpt lat="59.9403685" lon="17.66137">
        <ele>24.651</ele>
        <time>2012-05-13T12:22:13Z</time>
      </trkpt>
      <trkpt lat="59.940435" lon="17.6618272">
        <ele>25.6123</ele>
        <time>2012-05-13T12:22:17Z</time>
      </trkpt>
      <trkpt lat="59.9406018" lon="17.662105">
        <ele>26.5736</ele>
        <time>2012-05-13T12:22:21Z</time>
      </trkpt>
      <trkpt lat="59.9407613" lon="17.6621738">
        <ele>27.5349</ele>
        <time>2012-05-13T12:22:24Z</time>
      </trkpt>
      <trkpt lat="59.9411602" lon="17.6623304">
        <ele>28.4962</ele>
        <time>2012-05-13T12:22:31Z</time>
      </trkpt>
      <trkpt lat="59.9414915" lon="17.6626729">
        <ele>29.4575</ele>
        <time>2012-05-13T12:22:37Z</time>
      </trkpt>
      <trkpt lat="59.9418249" lon="17.6632529">
        <ele>29.9381</ele>
        <time>2012-05-13T12:22:44Z</time>
      </trkpt>
      <trkpt lat="59.9422611" lon="17.663933">
        <ele>29.9381</ele>
        <time>2012-05-13T12:22:52Z</time>
      </trkpt>
      <trkpt lat="59.9427174" lon="17.6645081">
        <ele>29.4575</ele>
        <time>2012-05-13T12:22:59Z</time>
      </trkpt>
      <trkpt lat="59.9432058" lon="17.6649889">
        <ele>28.4962</ele>
        <time>2012-05-13T12:23:06Z</time>
      </trkpt>
      <trkpt lat="59.9437869" lon="17.6654193">
        <ele>28.0155</ele>
        <time>2012-05-13T12:23:14Z</time>
      </trkpt>
      <trkpt lat="59.9442879" lon="17.6656691">
        <ele>27.5349</ele>
        <time>2012-05-13T12:23:21Z</time>
      </trkpt>
      <trkpt lat="59.9448114" lon="17.6658694">
        <ele>27.0543</ele>
        <time>2012-05-13T12:23:29Z</time>
      </trkpt>
      <trkpt lat="59.945542" lon="17.6661414">
        <ele>27.0543</ele>
        <time>2012-05-13T12:23:40Z</time>
      </trkpt>
      <trkpt lat="59.9462137" lon="17.6663826">
        <ele>27.0543</ele>
        <time>2012-05-13T12:23:50Z</time>
      </trkpt>
      <trkpt lat="59.9464123" lon="17.66653">
        <ele>27.0543</ele>
        <time>2012-05-13T12:23:53Z</time>
      </trkpt>
      <trkpt lat="59.9468361" lon="17.6666519">
        <ele>26.5736</ele>
        <time>2012-05-13T12:23:59Z</time>
      </trkpt>
      <trkpt lat="59.9477387" lon="17.6670674">
        <ele>26.5736</ele>
        <time>2012-05-13T12:24:12Z</time>
      </trkpt>
      <trkpt lat="59.9483332" lon="17.6673898">
        <ele>26.0929</ele>
        <time>2012-05-13T12:24:21Z</time>
      </trkpt>
      <trkpt lat="59.9487952" lon="17.6676484">
        <ele>25.6123</ele>
        <time>2012-05-13T12:24:29Z</time>
      </trkpt>
      <trkpt lat="59.9493625" lon="17.6679683">
        <ele>25.6123</ele>
        <time>2012-05-13T12:24:38Z</time>
      </trkpt>
      <trkpt lat="59.9500513" lon="17.6682923">
        <ele>25.6123</ele>
        <time>2012-05-13T12:24:48Z</time>
      </trkpt>
      <trkpt lat="59.950536" lon="17.6683665">
        <ele>25.1317</ele>
        <time>2012-05-13T12:24:55Z</time>
      </trkpt>
      <trkpt lat="59.9509763" lon="17.6682829">
        <ele>24.651</ele>
        <time>2012-05-13T12:25:01Z</time>
      </trkpt>
      <trkpt lat="59.9514969" lon="17.6681309">
        <ele>23.209</ele>
        <time>2012-05-13T12:25:08Z</time>
      </trkpt>
      <trkpt lat="59.9516997" lon="17.6682838">
        <ele>23.209</ele>
        <time>2012-05-13T12:25:11Z</time>
      </trkpt>
      <trkpt lat="59.9517736" lon="17.6685373">
        <ele>23.209</ele>
        <time>2012-05-13T12:25:13Z</time>
      </trkpt>
      <trkpt lat="59.9518199" lon="17.6691722">
        <ele>22.2476</ele>
        <time>2012-05-13T12:25:18Z</time>
      </trkpt>
      <trkpt lat="59.9517612" lon="17.670202">
        <ele>21.2864</ele>
        <time>2012-05-13T12:25:27Z</time>
      </trkpt>
      <trkpt lat="59.9517114" lon="17.6708375">
        <ele>21.767</ele>
        <time>2012-05-13T12:25:34Z</time>
      </trkpt>
      <trkpt lat="59.9517089" lon="17.6709307">
        <ele>21.767</ele>
        <time>2012-05-13T12:25:35Z</time>
      </trkpt>
      <trkpt lat="59.9517681" lon="17.6713462">
        <ele>23.209</ele>
        <time>2012-05-13T12:25:40Z</time>
      </trkpt>
      <trkpt lat="59.9517902" lon="17.6714855">
        <ele>23.6896</ele>
        <time>2012-05-13T12:25:42Z</time>
      </trkpt>
      <trkpt lat="59.9518017" lon="17.671625">
        <ele>24.651</ele>
        <time>2012-05-13T12:25:44Z</time>
      </trkpt>
      <trkpt lat="59.9518203" lon="17.6722144">
        <ele>25.1317</ele>
        <time>2012-05-13T12:25:52Z</time>
      </trkpt>
      <trkpt lat="59.9518961" lon="17.6729064">
        <ele>26.0929</ele>
        <time>2012-05-13T12:26:01Z</time>
      </trkpt>
      <trkpt lat="59.9519887" lon="17.6735266">
        <ele>27.0543</ele>
        <time>2012-05-13T12:26:09Z</time>
      </trkpt>
      <trkpt lat="59.9521196" lon="17.6742332">
        <ele>28.0155</ele>
        <time>2012-05-13T12:26:18Z</time>
      </trkpt>
      <trkpt lat="59.9522523" lon="17.674966">
        <ele>29.9381</ele>
        <time>2012-05-13T12:26:27Z</time>
      </trkpt>
      <trkpt lat="59.9523103" lon="17.6752276">
        <ele>30.4188</ele>
        <time>2012-05-13T12:26:31Z</time>
      </trkpt>
      <trkpt lat="59.9525067" lon="17.6757442">
        <ele>29.4575</ele>
        <time>2012-05-13T12:26:38Z</time>
      </trkpt>
      <trkpt lat="59.9527226" lon="17.6763356">
        <ele>28.4962</ele>
        <time>2012-05-13T12:26:44Z</time>
      </trkpt>
      <trkpt lat="59.9529728" lon="17.6769626">
        <ele>28.4962</ele>
        <time>2012-05-13T12:26:50Z</time>
      </trkpt>
      <trkpt lat="59.9533437" lon="17.6779668">
        <ele>28.4962</ele>
        <time>2012-05-13T12:26:59Z</time>
      </trkpt>
      <trkpt lat="59.9536361" lon="17.6788405">
        <ele>27.5349</ele>
        <time>2012-05-13T12:27:07Z</time>
      </trkpt>
      <trkpt lat="59.9540006" lon="17.6799365">
        <ele>27.5349</ele>
        <time>2012-05-13T12:27:16Z</time>
      </trkpt>
      <trkpt lat="59.9543869" lon="17.6811056">
        <ele>27.5349</ele>
        <time>2012-05-13T12:27:25Z</time>
      </trkpt>
      <trkpt lat="59.9546163" lon="17.6818044">
        <ele>28.4962</ele>
        <time>2012-05-13T12:27:31Z</time>
      </trkpt>
      <trkpt lat="59.954827" lon="17.6821526">
        <ele>28.4962</ele>
        <time>2012-05-13T12:27:35Z</time>
      </trkpt>
      <trkpt lat="59.9549077" lon="17.6823761">
        <ele>28.4962</ele>
        <time>2012-05-13T12:27:37Z</time>
      </trkpt>
      <trkpt lat="59.9552397" lon="17.6836102">
        <ele>28.9769</ele>
        <time>2012-05-13T12:27:47Z</time>
      </trkpt>
      <trkpt lat="59.955411" lon="17.6845032">
        <ele>28.4962</ele>
        <time>2012-05-13T12:27:54Z</time>
      </trkpt>
      <trkpt lat="59.9555737" lon="17.6855723">
        <ele>28.9769</ele>
        <time>2012-05-13T12:28:03Z</time>
      </trkpt>
      <trkpt lat="59.9557369" lon="17.6867405">
        <ele>29.4575</ele>
        <time>2012-05-13T12:28:13Z</time>
      </trkpt>
      <trkpt lat="59.9559059" lon="17.6878862">
        <ele>29.9381</ele>
        <time>2012-05-13T12:28:23Z</time>
      </trkpt>
      <trkpt lat="59.9560973" lon="17.6888798">
        <ele>30.8995</ele>
        <time>2012-05-13T12:28:32Z</time>
      </trkpt>
      <trkpt lat="59.9562649" lon="17.689574">
        <ele>31.8607</ele>
        <time>2012-05-13T12:28:39Z</time>
      </trkpt>
      <trkpt lat="59.9565134" lon="17.6904754">
        <ele>32.3416</ele>
        <time>2012-05-13T12:28:48Z</time>
      </trkpt>
      <trkpt lat="59.9568029" lon="17.6913281">
        <ele>30.4188</ele>
        <time>2012-05-13T12:28:56Z</time>
      </trkpt>
      <trkpt lat="59.9570854" lon="17.6921391">
        <ele>28.9769</ele>
        <time>2012-05-13T12:29:03Z</time>
      </trkpt>
      <trkpt lat="59.9573775" lon="17.6929754">
        <ele>28.0155</ele>
        <time>2012-05-13T12:29:11Z</time>
      </trkpt>
      <trkpt lat="59.9576161" lon="17.6936525">
        <ele>28.0155</ele>
        <time>2012-05-13T12:29:18Z</time>
      </trkpt>
      <trkpt lat="59.9580059" lon="17.6947604">
        <ele>28.4962</ele>
        <time>2012-05-13T12:29:29Z</time>
      </trkpt>
      <trkpt lat="59.9584027" lon="17.6958253">
        <ele>28.9769</ele>
        <time>2012-05-13T12:29:40Z</time>
      </trkpt>
      <trkpt lat="59.9587466" lon="17.6967568">
        <ele>28.9769</ele>
        <time>2012-05-13T12:29:49Z</time>
      </trkpt>
      <trkpt lat="59.9588952" lon="17.6974603">
        <ele>29.4575</ele>
        <time>2012-05-13T12:29:55Z</time>
      </trkpt>
      <trkpt lat="59.9589896" lon="17.6982005">
        <ele>30.4188</ele>
        <time>2012-05-13T12:30:02Z</time>
      </trkpt>
      <trkpt lat="59.9590061" lon="17.6989442">
        <ele>30.8995</ele>
        <time>2012-05-13T12:30:09Z</time>
      </trkpt>
      <trkpt lat="59.9590519" lon="17.6997852">
        <ele>30.4188</ele>
        <time>2012-05-13T12:30:16Z</time>
      </trkpt>
      <trkpt lat="59.9591346" lon="17.7006541">
        <ele>30.4188</ele>
        <time>2012-05-13T12:30:24Z</time>
      </trkpt>
      <trkpt lat="59.9591404" lon="17.7007496">
        <ele>30.4188</ele>
        <time>2012-05-13T12:30:25Z</time>
      </trkpt>
      <trkpt lat="59.9592527" lon="17.7015998">
        <ele>31.3801</ele>
        <time>2012-05-13T12:30:34Z</time>
      </trkpt>
      <trkpt lat="59.9594382" lon="17.7023068">
        <ele>31.3801</ele>
        <time>2012-05-13T12:30:41Z</time>
      </trkpt>
      <trkpt lat="59.959721" lon="17.7032408">
        <ele>32.3416</ele>
        <time>2012-05-13T12:30:50Z</time>
      </trkpt>
      <trkpt lat="59.9599784" lon="17.7040338">
        <ele>30.8995</ele>
        <time>2012-05-13T12:30:57Z</time>
      </trkpt>
      <trkpt lat="59.9602753" lon="17.7045511">
        <ele>30.8995</ele>
        <time>2012-05-13T12:31:03Z</time>
      </trkpt>
      <trkpt lat="59.9607942" lon="17.7052164">
        <ele>30.4188</ele>
        <time>2012-05-13T12:31:12Z</time>
      </trkpt>
      <trkpt lat="59.9612243" lon="17.70591">
        <ele>30.4188</ele>
        <time>2012-05-13T12:31:20Z</time>
      </trkpt>
      <trkpt lat="59.9617029" lon="17.7066502">
        <ele>30.4188</ele>
        <time>2012-05-13T12:31:29Z</time>
      </trkpt>
      <trkpt lat="59.96214" lon="17.7069849">
        <ele>29.9381</ele>
        <time>2012-05-13T12:31:36Z</time>
      </trkpt>
      <trkpt lat="59.9627084" lon="17.7072052">
        <ele>28.9769</ele>
        <time>2012-05-13T12:31:44Z</time>
      </trkpt>
      <trkpt lat="59.9633408" lon="17.7071981">
        <ele>27.0543</ele>
        <time>2012-05-13T12:31:52Z</time>
      </trkpt>
      <trkpt lat="59.9638587" lon="17.7072376">
        <ele>25.6123</ele>
        <time>2012-05-13T12:31:59Z</time>
      </trkpt>
      <trkpt lat="59.9642858" lon="17.7073447">
        <ele>25.6123</ele>
        <time>2012-05-13T12:32:05Z</time>
      </trkpt>
      <trkpt lat="59.964745" lon="17.7075827">
        <ele>25.1317</ele>
        <time>2012-05-13T12:32:11Z</time>
      </trkpt>
      <trkpt lat="59.96543" lon="17.7081425">
        <ele>24.651</ele>
        <time>2012-05-13T12:32:20Z</time>
      </trkpt>
      <trkpt lat="59.9655728" lon="17.7082994">
        <ele>24.651</ele>
        <time>2012-05-13T12:32:22Z</time>
      </trkpt>
      <trkpt lat="59.9658575" lon="17.7088622">
        <ele>24.1703</ele>
        <time>2012-05-13T12:32:27Z</time>
      </trkpt>
      <trkpt lat="59.9662008" lon="17.710022">
        <ele>25.1317</ele>
        <time>2012-05-13T12:32:36Z</time>
      </trkpt>
      <trkpt lat="59.9665426" lon="17.7112301">
        <ele>26.0929</ele>
        <time>2012-05-13T12:32:46Z</time>
      </trkpt>
      <trkpt lat="59.9665769" lon="17.7113419">
        <ele>26.5736</ele>
        <time>2012-05-13T12:32:47Z</time>
      </trkpt>
      <trkpt lat="59.9667411" lon="17.7119043">
        <ele>27.0543</ele>
        <time>2012-05-13T12:32:52Z</time>
      </trkpt>
      <trkpt lat="59.96681" lon="17.7121249">
        <ele>27.0543</ele>
        <time>2012-05-13T12:32:54Z</time>
      </trkpt>
      <trkpt lat="59.9670346" lon="17.7129292">
        <ele>27.0543</ele>
        <time>2012-05-13T12:33:01Z</time>
      </trkpt>
      <trkpt lat="59.9672258" lon="17.7139557">
        <ele>25.1317</ele>
        <time>2012-05-13T12:33:09Z</time>
      </trkpt>
      <trkpt lat="59.9673975" lon="17.7151346">
        <ele>22.2476</ele>
        <time>2012-05-13T12:33:17Z</time>
      </trkpt>
      <trkpt lat="59.967463" lon="17.715652">
        <ele>20.8057</ele>
        <time>2012-05-13T12:33:21Z</time>
      </trkpt>
      <trkpt lat="59.9675972" lon="17.7161507">
        <ele>20.8057</ele>
        <time>2012-05-13T12:33:26Z</time>
      </trkpt>
      <trkpt lat="59.9677889" lon="17.7166088">
        <ele>23.209</ele>
        <time>2012-05-13T12:33:32Z</time>
      </trkpt>
      <trkpt lat="59.9680219" lon="17.7169882">
        <ele>25.1317</ele>
        <time>2012-05-13T12:33:39Z</time>
      </trkpt>
      <trkpt lat="59.9681675" lon="17.7171681">
        <ele>26.0929</ele>
        <time>2012-05-13T12:33:43Z</time>
      </trkpt>
      <trkpt lat="59.9685268" lon="17.7174009">
        <ele>25.6123</ele>
        <time>2012-05-13T12:33:51Z</time>
      </trkpt>
      <trkpt lat="59.9687379" lon="17.7174843">
        <ele>25.6123</ele>
        <time>2012-05-13T12:33:55Z</time>
      </trkpt>
      <trkpt lat="59.968906" lon="17.717457">
        <ele>27.0543</ele>
        <time>2012-05-13T12:33:58Z</time>
      </trkpt>
      <trkpt lat="59.9692462" lon="17.7175379">
        <ele>27.5349</ele>
        <time>2012-05-13T12:34:04Z</time>
      </trkpt>
      <trkpt lat="59.9696839" lon="17.7177973">
        <ele>27.0543</ele>
        <time>2012-05-13T12:34:11Z</time>
      </trkpt>
      <trkpt lat="59.9701423" lon="17.7181846">
        <ele>26.5736</ele>
        <time>2012-05-13T12:34:19Z</time>
      </trkpt>
      <trkpt lat="59.9705568" lon="17.7185664">
        <ele>27.0543</ele>
        <time>2012-05-13T12:34:27Z</time>
      </trkpt>
      <trkpt lat="59.9711218" lon="17.7190792">
        <ele>27.0543</ele>
        <time>2012-05-13T12:34:37Z</time>
      </trkpt>
      <trkpt lat="59.9717377" lon="17.7196383">
        <ele>27.5349</ele>
        <time>2012-05-13T12:34:47Z</time>
      </trkpt>
      <trkpt lat="59.9723678" lon="17.7202045">
        <ele>27.0543</ele>
        <time>2012-05-13T12:34:57Z</time>
      </trkpt>
      <trkpt lat="59.9728696" lon="17.7206943">
        <ele>26.5736</ele>
        <time>2012-05-13T12:35:06Z</time>
      </trkpt>
      <trkpt lat="59.9732901" lon="17.7213322">
        <ele>26.5736</ele>
        <time>2012-05-13T12:35:14Z</time>
      </trkpt>
      <trkpt lat="59.9736143" lon="17.7220454">
        <ele>26.0929</ele>
        <time>2012-05-13T12:35:21Z</time>
      </trkpt>
      <trkpt lat="59.9738763" lon="17.7229032">
        <ele>26.0929</ele>
        <time>2012-05-13T12:35:29Z</time>
      </trkpt>
      <trkpt lat="59.9740528" lon="17.7238249">
        <ele>26.0929</ele>
        <time>2012-05-13T12:35:37Z</time>
      </trkpt>
      <trkpt lat="59.9742272" lon="17.7250365">
        <ele>26.0929</ele>
        <time>2012-05-13T12:35:47Z</time>
      </trkpt>
      <trkpt lat="59.9743356" lon="17.7261855">
        <ele>26.0929</ele>
        <time>2012-05-13T12:35:56Z</time>
      </trkpt>
      <trkpt lat="59.9743681" lon="17.7274213">
        <ele>25.1317</ele>
        <time>2012-05-13T12:36:05Z</time>
      </trkpt>
      <trkpt lat="59.9744007" lon="17.7287556">
        <ele>24.1703</ele>
        <time>2012-05-13T12:36:15Z</time>
      </trkpt>
      <trkpt lat="59.9744034" lon="17.7298704">
        <ele>23.6896</ele>
        <time>2012-05-13T12:36:24Z</time>
      </trkpt>
      <trkpt lat="59.974308" lon="17.7311177">
        <ele>23.6896</ele>
        <time>2012-05-13T12:36:34Z</time>
      </trkpt>
      <trkpt lat="59.974301" lon="17.7321729">
        <ele>23.209</ele>
        <time>2012-05-13T12:36:42Z</time>
      </trkpt>
      <trkpt lat="59.9743002" lon="17.7332947">
        <ele>22.7283</ele>
        <time>2012-05-13T12:36:50Z</time>
      </trkpt>
      <trkpt lat="59.9742502" lon="17.7344801">
        <ele>23.209</ele>
        <time>2012-05-13T12:36:59Z</time>
      </trkpt>
      <trkpt lat="59.9743075" lon="17.7354407">
        <ele>23.6896</ele>
        <time>2012-05-13T12:37:06Z</time>
      </trkpt>
      <trkpt lat="59.9744605" lon="17.7363338">
        <ele>24.1703</ele>
        <time>2012-05-13T12:37:13Z</time>
      </trkpt>
      <trkpt lat="59.9746749" lon="17.7370288">
        <ele>24.1703</ele>
        <time>2012-05-13T12:37:19Z</time>
      </trkpt>
      <trkpt lat="59.9749234" lon="17.7376122">
        <ele>24.651</ele>
        <time>2012-05-13T12:37:25Z</time>
      </trkpt>
      <trkpt lat="59.9752634" lon="17.7382015">
        <ele>24.651</ele>
        <time>2012-05-13T12:37:33Z</time>
      </trkpt>
      <trkpt lat="59.9757227" lon="17.7390103">
        <ele>25.1317</ele>
        <time>2012-05-13T12:37:43Z</time>
      </trkpt>
      <trkpt lat="59.9760196" lon="17.7395097">
        <ele>26.5736</ele>
        <time>2012-05-13T12:37:50Z</time>
      </trkpt>
      <trkpt lat="59.9761285" lon="17.7396598">
        <ele>27.5349</ele>
        <time>2012-05-13T12:37:53Z</time>
      </trkpt>
      <trkpt lat="59.9762543" lon="17.7397682">
        <ele>28.9769</ele>
        <time>2012-05-13T12:37:57Z</time>
      </trkpt>
      <trkpt lat="59.9764148" lon="17.7397238">
        <ele>29.4575</ele>
        <time>2012-05-13T12:38:02Z</time>
      </trkpt>
      <trkpt lat="59.9767059" lon="17.7394646">
        <ele>30.8995</ele>
        <time>2012-05-13T12:38:10Z</time>
      </trkpt>
      <trkpt lat="59.9770144" lon="17.7393107">
        <ele>31.8607</ele>
        <time>2012-05-13T12:38:19Z</time>
      </trkpt>
      <trkpt lat="59.9773867" lon="17.7390999">
        <ele>32.3416</ele>
        <time>2012-05-13T12:38:29Z</time>
      </trkpt>
      <trkpt lat="59.9776742" lon="17.7390725">
        <ele>33.7834</ele>
        <time>2012-05-13T12:38:37Z</time>
      </trkpt>
      <trkpt lat="59.9779556" lon="17.7391797">
        <ele>35.7061</ele>
        <time>2012-05-13T12:38:45Z</time>
      </trkpt>
      <trkpt lat="59.9782294" lon="17.7393138">
        <ele>36.1868</ele>
        <time>2012-05-13T12:38:52Z</time>
      </trkpt>
      <trkpt lat="59.9785705" lon="17.7393864">
        <ele>35.2255</ele>
        <time>2012-05-13T12:39:00Z</time>
      </trkpt>
      <trkpt lat="59.9786557" lon="17.7394014">
        <ele>34.7449</ele>
        <time>2012-05-13T12:39:02Z</time>
      </trkpt>
      <trkpt lat="59.9786978" lon="17.7394101">
        <ele>34.2642</ele>
        <time>2012-05-13T12:39:03Z</time>
      </trkpt>
    </trkseg>
  </trk>
</gpx>